GFSGL_con_mlcape_000.txt.gz
CAPE
132 46 8 0 0 0 0 4 25 35 80 73 158 197 190 219 217 190 138 46 53 98 116 76 180 269 227 205 340 456 493 436 223 78 68 147 398 539 603 766 1011 1128 1026
28 5 0 0 0 0 0 0 2 0 65 96 169 403 376 332 348 392 293 206 153 75 86 76 102 176 165 350 263 245 293 298 264 190 103 194 248 471 646 872 1115 795 963
0 0 0 0 0 0 0 0 0 29 73 169 340 304 205 395 364 361 399 190 78 53 14 3 0 4 15 153 381 258 132 253 259 280 187 166 143 198 363 685 862 862 759
0 0 0 0 0 0 0 0 34 131 211 379 424 397 474 524 484 477 400 177 45 9 0 3 0 5 14 180 204 366 295 151 226 204 197 133 139 191 353 460 689 544 625
0 0 0 0 47 0 64 175 201 168 135 277 274 382 399 410 478 516 157 167 59 8 4 0 0 11 4 1 8 214 242 292 109 177 114 93 110 118 196 384 377 588 653
92 11 0 73 234 320 175 241 211 117 92 210 260 287 447 512 161 0 0 103 38 51 21 0 0 4 3 3 0 0 12 208 243 167 26 50 84 125 158 234 348 392 412
176 46 58 274 301 286 76 142 148 243 274 189 215 309 455 500 238 0 0 74 53 3 34 25 0 0 2 2 2 2 0 1 34 250 44 27 111 133 160 213 274 462 451
179 154 164 276 325 330 144 106 139 279 236 181 224 386 372 325 179 15 0 99 146 96 40 75 20 2 0 0 2 3 4 0 18 7 92 55 109 157 148 234 533 479 599
107 172 156 267 372 416 278 264 320 265 123 108 262 423 388 354 116 113 0 156 203 101 167 52 30 21 0 0 1 2 1 5 0 22 15 85 89 65 177 258 306 525 323
101 135 82 235 447 355 331 291 279 267 168 247 276 403 475 274 269 117 48 171 144 179 144 67 22 15 0 0 0 2 2 2 7 27 21 14 18 42 16 75 306 292 479
151 87 104 465 701 710 350 348 299 410 371 376 487 503 343 154 400 92 19 137 187 202 56 18 30 58 24 0 0 1 1 2 4 6 69 81 68 52 91 28 99 149 135
287 352 684 726 689 254 623 447 314 431 140 412 560 464 202 192 232 45 0 0 5 13 52 123 119 72 48 16 3 1 0 1 5 22 48 22 27 89 63 109 129 72 195
1205 789 350 119 371 793 662 535 355 280 212 143 240 195 226 189 149 21 0 8 0 0 16 121 31 40 37 60 17 18 0 3 3 4 3 3 10 62 99 152 204 255 349
593 290 304 598 724 777 441 364 345 192 290 312 239 196 143 136 151 1 0 4 8 0 0 79 56 41 27 54 45 33 48 2 2 1 1 3 3 0 27 78 190 216 285
431 452 600 503 477 473 499 184 205 0 26 29 181 120 101 48 0 0 0 0 0 0 0 71 10 0 0 0 11 65 45 39 1 1 0 0 1 3 4 1 12 192 165
520 396 328 255 213 131 175 29 0 0 0 0 0 0 0 0 0 0 0 0 0 0 16 0 0 0 2 3 2 2 5 12 76 3 1 0 0 0 4 0 3 3 1
426 303 152 58 63 249 379 125 0 0 0 0 0 0 0 0 0 0 0 0 0 0 0 0 0 0 0 2 5 7 6 4 3 0 2 15 0 0 0 1 3 8 1
267 29 73 193 288 291 201 110 25 2 15 7 0 0 0 0 0 0 0 0 0 0 0 0 0 0 0 0 1 2 3 4 4 3 3 1 3 31 38 10 0 0 0
152 206 383 190 52 1 0 0 0 0 1 1 2 0 0 0 0 0 0 0 0 0 0 0 0 0 0 0 1 4 1 0 1 2 4 1 2 8 55 51 27 14 1
38 35 17 2 0 0 0 0 0 0 0 1 0 1 3 4 2 0 0 0 0 0 0 0 0 0 0 0 0 0 0 0 0 0 0 0 0 0 0 50 65 32 27
32 22 0 1 0 0 0 0 0 0 0 0 1 0 0 2 1 2 1 0 0 0 0 0 0 0 0 0 0 0 0 0 0 0 0 0 0 0 0 0 3 17 48
25 19 34 11 1 0 0 0 2 0 2 3 1 0 0 1 1 3 1 0 0 0 0 0 0 0 0 0 0 0 0 0 0 0 0 0 0 0 0 0 1 0 0
3 0 0 0 0 0 0 0 0 0 0 0 0 0 0 5 3 1 2 2 0 0 0 0 0 0 0 0 0 0 0 0 0 0 0 0 0 0 0 0 0 0 1
0 0 0 0 0 0 0 0 0 0 0 0 0 0 0 0 1 0 0 0 0 0 0 0 0 0 0 0 0 0 0 0 0 0 0 0 0 0 0 0 0 0 0
0 0 0 0 0 0 0 0 0 0 0 0 0 0 0 0 0 0 0 0 0 0 0 0 0 0 0 0 0 0 0 0 0 0 0 0 0 0 0 0 0 0 0
0 0 0 0 0 0 0 0 0 0 0 0 0 0 0 0 0 0 0 0 0 0 0 0 0 0 0 0 0 0 0 0 0 0 0 0 0 0 0 0 0 0 0

GFSGL_con_mlcape_003.txt.gz
CAPE
293 255 38 0 0 24 1 1 18 73 118 113 59 56 158 216 222 315 299 298 204 286 223 28 39 115 20 96 232 220 337 482 410 198 154 140 285 240 95 716 937 916 703
128 142 2 16 39 2 0 0 0 2 9 52 60 142 185 220 217 349 404 372 431 181 121 15 4 7 18 11 9 244 263 324 367 196 294 190 332 384 331 746 875 931 896
58 111 15 54 86 92 93 3 0 0 17 80 106 122 197 276 351 469 479 443 367 312 136 87 16 9 0 4 1 182 222 327 269 287 194 282 256 318 377 685 727 712 823
27 0 0 35 198 183 132 50 102 133 140 128 117 151 196 304 398 549 569 558 374 344 207 130 24 3 0 0 1 6 5 142 286 230 294 238 196 250 302 277 340 464 483
23 16 16 72 257 367 277 189 161 149 110 108 107 173 112 178 170 559 629 431 430 370 256 215 55 0 0 0 2 2 3 4 1 351 240 298 161 134 135 166 286 509 578
211 144 81 87 216 345 345 258 214 157 102 139 135 139 271 220 149 211 175 249 419 331 235 144 213 33 0 2 0 0 2 3 2 2 283 244 276 157 190 225 343 496 463
315 333 229 281 485 470 217 188 166 194 243 327 234 176 242 412 157 200 66 99 286 325 292 196 130 122 58 9 0 0 0 0 2 3 2 80 167 182 120 155 317 372 509
399 440 395 416 475 463 370 265 245 277 390 364 266 239 342 332 151 143 96 153 216 311 497 282 231 36 59 1 0 0 0 0 1 5 9 0 33 285 178 47 395 281 555
497 543 557 472 498 556 470 442 314 488 298 317 281 235 444 603 369 169 124 204 227 399 349 331 188 22 30 5 0 0 0 1 6 4 0 0 2 79 144 458 85 586 401
550 509 481 426 391 563 528 546 513 557 332 259 170 206 321 485 550 98 56 126 308 388 363 271 105 21 28 11 3 0 2 4 2 3 3 0 0 2 14 52 425 94 391
543 469 523 463 492 550 787 647 298 600 515 553 283 456 550 458 241 74 0 37 119 240 178 66 58 51 9 5 4 2 23 0 2 3 3 12 22 119 144 40 80 196 170
812 636 529 530 702 239 415 789 907 573 535 494 122 159 40 0 204 45 0 0 5 0 0 14 58 9 1 6 27 25 8 1 2 3 8 43 261 196 149 233 131 193 168
1175 1005 830 1076 458 365 466 968 777 522 447 139 167 88 146 108 123 11 0 0 0 0 0 1 8 26 0 0 6 12 12 11 1 3 3 3 4 175 317 292 280 259 197
1661 1570 1518 1072 917 864 907 694 426 323 184 107 78 164 51 169 47 0 0 0 0 0 17 13 47 1 0 0 1 0 1 2 26 2 3 2 2 1 18 43 198 209 258
1243 896 647 517 646 544 599 317 226 0 3 12 33 27 22 35 0 0 0 0 0 0 0 35 0 0 0 1 2 3 1 0 1 22 7 3 2 3 3 2 55 240 256
843 686 476 372 311 172 178 4 0 0 0 0 0 0 0 0 0 0 0 0 0 0 0 6 2 0 0 1 3 3 5 1 3 2 1 31 11 0 0 1 2 4 3
742 420 245 82 91 266 446 429 158 0 0 0 0 0 0 0 0 0 0 0 0 0 3 3 2 1 2 3 1 1 3 4 2 2 2 1 20 24 1 0 2 1 3
472 107 64 148 468 534 417 216 158 105 18 0 0 0 0 0 0 0 0 0 1 1 3 1 0 0 0 0 0 1 0 1 0 0 2 1 12 28 66 15 0 0 1
325 353 535 470 296 76 25 0 0 0 0 0 0 0 0 0 0 0 0 0 0 0 0 0 0 0 0 0 0 0 0 0 0 0 0 0 0 1 18 56 38 25 5
241 182 291 202 67 30 0 0 0 0 0 0 0 0 0 3 0 2 0 0 0 0 0 0 0 0 0 0 0 0 0 0 0 0 0 0 0 0 0 29 44 55 45
204 198 47 73 0 0 0 0 0 7 4 0 0 0 0 0 2 0 1 0 0 0 0 0 0 0 0 0 0 0 0 0 0 0 0 0 0 0 0 0 6 2 2
166 149 83 57 11 12 9 8 8 1 4 5 1 0 0 0 0 1 1 0 0 0 0 0 0 0 0 0 0 0 0 0 0 0 0 0 0 0 0 0 0 0 0
13 9 2 0 1 0 0 1 3 2 4 2 2 0 2 0 0 0 0 0 0 0 0 0 0 0 0 0 0 0 0 0 0 0 0 0 0 0 0 0 0 0 0
0 0 0 0 0 0 0 0 0 0 0 0 0 0 0 0 1 0 0 0 0 0 0 0 0 0 0 0 0 0 0 0 0 0 0 0 0 0 0 0 0 0 0
0 0 0 0 1 0 0 0 0 0 0 0 0 0 0 0 0 0 0 0 0 0 0 0 0 0 0 0 0 0 0 0 0 0 0 0 0 0 0 0 0 0 0
0 0 0 0 0 0 0 0 0 0 0 0 0 0 0 0 0 0 0 0 0 0 0 0 0 0 0 0 0 0 0 0 0 0 0 0 0 0 0 0 0 0 0

GFSGL_con_mlcape_006.txt.gz
CAPE
275 449 175 0 0 120 111 67 63 190 223 269 246 201 185 190 252 105 56 138 78 178 214 72 98 0 0 0 0 0 0 1 15 4 12 194 348 249 182 373 500 628 503
419 405 278 86 21 15 21 48 61 91 91 91 149 178 157 233 226 23 103 207 230 255 300 153 117 0 0 0 0 0 0 1 3 34 1 119 212 253 118 68 230 140 206
410 303 175 112 147 189 185 210 131 104 70 230 233 159 116 180 274 248 320 234 440 508 413 193 210 26 0 0 0 0 0 1 0 3 12 67 162 236 137 211 146 72 116
246 296 256 228 279 318 308 405 174 256 312 336 278 238 143 310 307 391 340 340 348 497 448 330 272 184 0 0 0 0 0 0 0 0 2 6 149 161 178 50 129 234 271
69 72 79 168 313 465 496 386 320 324 414 384 197 310 466 482 313 243 329 246 353 356 497 398 295 249 87 13 0 0 0 0 0 2 3 3 1 147 188 66 65 155 203
176 151 170 259 356 434 603 699 528 550 399 317 274 347 249 383 108 99 91 196 215 161 133 361 242 173 187 113 15 15 0 1 0 2 2 1 0 1 134 148 70 123 192
309 269 299 352 393 515 612 544 554 354 331 378 346 433 386 358 404 166 96 132 189 285 291 385 223 242 116 28 48 43 9 0 0 4 7 7 4 3 3 152 58 28 59
547 607 587 591 613 724 739 545 512 518 479 357 386 448 330 353 318 85 125 202 276 351 424 337 211 104 140 134 20 10 14 0 4 8 9 6 7 7 1 44 109 9 172
646 711 820 758 770 822 879 717 582 562 408 505 474 394 357 273 250 149 56 218 352 231 381 378 312 77 117 41 16 2 0 0 1 0 4 3 2 5 1 3 8 47 32
678 915 1020 951 965 921 896 681 712 616 369 36 376 549 540 468 89 77 5 0 0 73 164 275 192 51 25 0 0 6 17 17 0 3 2 2 0 2 0 0 0 105 0
922 1033 999 1087 1079 956 957 876 821 463 42 417 577 426 481 322 77 3 36 26 27 86 18 42 64 11 0 0 0 3 0 2 9 6 4 3 3 1 1 0 2 253 10
1139 1042 1116 1178 976 796 787 671 503 406 506 553 383 330 76 123 88 10 46 11 0 0 0 37 25 0 0 0 0 0 0 3 3 4 5 3 3 3 0 14 0 48 129
1661 1551 1312 1284 1005 1019 813 405 623 643 550 418 276 167 121 56 34 30 0 0 0 0 0 4 0 0 0 0 0 0 0 0 0 3 5 7 3 3 12 124 122 58 45
1940 2119 1774 1535 1468 1239 767 911 774 686 272 217 128 101 89 55 4 0 0 0 0 0 0 0 6 0 0 0 0 2 2 0 1 10 20 12 3 2 5 1 207 188 118
2282 2096 1708 1483 1187 903 163 81 349 0 0 5 0 0 0 0 0 0 0 0 0 0 0 0 4 0 0 0 0 2 3 4 1 0 9 25 4 2 2 4 3 13 155
1238 1140 1009 915 411 506 101 0 0 0 0 0 0 0 0 0 0 0 0 0 0 0 0 0 0 0 0 0 1 0 1 0 1 1 2 2 58 12 2 1 2 2 3
834 738 455 152 210 394 385 479 214 0 0 0 0 0 0 0 0 0 0 0 0 0 0 0 0 0 0 0 0 0 0 0 0 0 0 1 3 48 18 2 1 2 1
446 173 167 95 332 530 541 393 290 296 57 0 0 0 0 0 0 0 0 0 0 0 0 0 0 0 0 0 0 0 0 0 0 0 0 0 0 1 60 64 30 0 0
250 278 335 476 307 212 119 61 35 3 0 1 1 0 0 0 0 0 0 0 0 0 0 0 0 0 0 0 0 0 0 0 0 0 0 0 0 0 0 40 37 6 5
274 26 221 339 27 99 19 5 0 0 0 2 0 0 0 0 0 0 0 0 0 0 0 0 0 0 0 0 0 0 0 0 0 0 0 0 0 0 0 0 0 3 7
185 64 48 148 24 0 0 0 0 0 5 0 0 0 0 0 0 0 0 0 0 0 0 0 0 0 0 0 0 0 0 0 0 0 0 0 0 0 0 0 0 0 0
95 47 51 177 29 30 19 16 1 0 4 0 0 0 0 0 0 0 0 0 1 0 0 0 0 0 0 0 0 0 0 0 0 0 0 0 0 0 0 0 0 0 0
77 30 23 0 0 0 0 0 2 1 4 0 4 0 0 0 0 0 0 0 2 0 0 0 0 0 0 0 0 0 0 0 0 0 0 0 0 0 0 0 0 0 0
0 0 0 0 0 0 0 0 0 0 0 0 0 0 0 3 0 0 0 0 0 0 0 0 0 0 0 0 0 0 0 0 0 0 0 0 0 0 0 0 0 0 0
0 1 7 4 6 1 0 0 0 0 0 0 0 0 0 0 0 0 0 0 0 0 0 0 0 0 0 0 0 0 0 0 0 0 0 0 0 0 0 0 0 0 0
3 2 1 1 0 0 0 0 0 0 0 0 0 0 0 0 0 0 0 0 0 0 0 0 0 0 0 0 0 0 0 0 0 0 0 0 0 0 0 0 0 0 0

GFSGL_con_mlcape_009.txt.gz
CAPE
238 71 211 328 148 36 36 0 0 0 123 106 89 58 38 50 111 178 82 12 18 107 99 72 0 6 0 0 0 0 0 0 0 0 0 0 0 12 0 216 184 110 68
262 185 279 2 0 5 11 0 0 0 0 8 0 3 17 16 10 21 19 14 71 50 105 37 102 83 0 0 0 0 0 0 0 0 0 0 0 0 1 51 92 84 128
69 307 175 49 15 6 6 4 7 4 3 0 6 31 32 0 0 23 127 84 72 71 101 139 165 115 67 3 0 0 0 0 0 0 0 0 0 0 0 13 76 62 88
178 223 178 74 18 22 40 66 84 58 24 70 178 61 74 82 103 172 171 136 124 49 65 302 243 180 101 56 5 0 0 0 0 0 0 2 3 0 0 0 18 82 58
279 233 187 91 47 90 104 151 257 73 106 99 162 153 54 177 265 93 49 81 69 73 149 84 172 204 204 108 26 0 0 0 0 0 0 2 2 2 1 1 2 40 60
211 192 159 105 43 54 87 150 206 153 116 330 133 94 100 235 152 76 66 58 56 46 79 76 143 166 119 61 38 5 53 14 0 6 0 3 0 3 5 1 3 7 28
156 113 44 14 14 67 166 249 460 399 450 104 108 277 52 230 252 88 108 37 50 87 131 122 94 171 127 57 13 17 60 59 48 26 5 6 16 5 12 4 4 6 8
0 48 58 64 122 168 280 346 351 398 221 174 193 109 173 337 273 193 46 39 43 80 120 138 145 137 91 39 1 1 0 3 19 24 29 11 4 6 9 7 6 4 2
1 56 171 170 178 274 434 528 520 474 330 309 312 141 308 229 65 35 13 0 1 0 0 16 110 82 2 0 0 0 0 0 0 5 5 1 1 3 3 5 9 8 3
153 274 371 444 465 534 629 656 713 569 394 413 179 39 149 56 28 1 0 0 0 0 21 9 0 0 0 0 0 0 0 0 0 1 1 0 2 4 2 1 1 10 4
339 502 680 726 752 751 772 774 765 617 384 219 79 293 211 144 11 0 0 0 2 4 0 0 0 0 0 0 0 0 0 0 0 1 0 1 4 10 5 1 3 2 5
642 819 919 1045 1050 981 941 933 864 606 228 82 198 256 124 35 0 0 0 6 5 0 0 0 0 0 0 0 0 0 0 0 0 5 4 1 4 6 2 2 2 2 4
1241 1235 1366 1408 1292 1111 1023 811 501 141 105 35 128 173 67 0 0 0 0 0 0 0 0 0 0 0 0 0 0 0 0 1 0 1 5 7 1 9 3 2 2 2 2
1 110 3 19 1292 1096 539 345 321 219 109 130 80 15 7 0 0 0 0 0 0 0 0 0 0 0 0 0 0 0 0 0 3 2 1 8 3 12 4 3 3 6 5
0 0 0 720 684 274 89 112 135 0 0 0 0 0 0 0 0 0 0 0 0 0 0 0 0 0 0 0 0 0 0 0 0 1 3 2 2 14 12 3 2 4 1
6 25 619 649 579 187 0 0 0 0 0 0 0 0 0 0 0 0 0 0 0 0 0 0 0 0 0 0 0 0 0 0 0 0 2 3 3 1 21 2 2 3 3
743 381 370 190 152 126 10 0 0 0 0 0 0 0 0 0 0 0 0 0 0 0 0 0 0 0 0 0 0 0 0 0 0 0 0 0 4 0 0 5 10 2 1
457 271 210 111 153 119 189 100 8 0 0 0 0 0 0 0 0 0 0 0 0 0 0 0 0 0 0 0 0 0 0 0 0 0 0 0 0 1 0 2 0 9 4
319 246 113 83 41 19 0 0 0 0 0 0 0 0 0 0 0 0 0 0 0 0 0 0 0 0 0 0 0 0 0 0 0 0 0 0 0 0 0 1 0 0 2
125 3 31 86 10 11 0 0 0 0 0 0 0 0 0 0 0 0 0 0 0 0 0 0 0 0 0 0 0 0 0 0 0 0 0 0 0 0 0 0 0 0 0
148 17 2 0 0 0 0 0 0 0 0 0 0 0 0 0 0 0 0 0 0 0 0 0 0 0 0 0 0 0 0 0 0 0 0 0 0 0 0 0 0 0 0
88 16 18 6 0 0 1 0 0 0 0 0 0 0 0 0 0 0 0 0 0 0 0 0 0 0 0 0 0 0 0 0 0 0 0 0 0 0 0 0 0 0 0
48 31 0 0 0 0 1 2 0 3 0 0 0 0 0 0 0 0 0 0 0 0 0 0 0 0 0 0 0 0 0 0 0 0 0 0 0 0 0 0 0 0 0
0 0 0 0 0 0 0 0 0 0 0 0 0 0 0 0 0 0 0 0 0 0 0 0 0 0 0 0 0 0 0 0 0 0 0 0 0 0 0 0 0 0 0
0 0 0 0 0 0 0 0 0 0 0 0 0 0 0 0 0 0 0 0 0 0 0 0 0 0 0 0 0 0 0 0 0 0 0 0 0 0 0 0 0 0 0
0 5 1 0 0 0 0 0 0 0 0 0 0 0 0 0 0 0 0 0 0 0 0 0 0 0 0 0 0 0 0 0 0 0 0 0 0 0 0 0 0 0 0

GFSGL_con_mlcape_012.txt.gz
CAPE
0 0 0 0 0 0 0 0 0 0 0 5 0 0 0 0 0 0 0 0 0 0 0 19 13 7 0 0 0 0 0 0 0 0 0 0 0 0 0 0 0 1 18
0 0 0 13 105 55 16 8 0 0 7 5 0 0 0 0 0 0 0 0 0 0 26 18 10 17 0 0 0 0 0 0 0 0 0 0 0 0 0 0 0 0 11
0 0 0 106 134 38 16 16 5 0 0 0 0 0 0 2 0 0 0 8 19 42 42 50 20 21 0 0 0 0 0 0 0 0 0 0 0 0 0 0 0 0 0
46 0 38 151 15 5 11 27 0 0 0 0 0 0 31 17 6 30 57 67 40 73 48 30 25 28 17 0 0 0 0 0 0 0 0 1 0 0 0 0 0 0 0
213 149 155 114 46 12 3 2 1 7 23 20 9 31 62 0 8 114 64 28 55 41 31 46 39 31 61 45 20 0 0 0 0 0 0 2 0 0 0 0 4 3 1
323 221 182 122 145 40 36 13 31 49 135 78 67 134 73 29 57 72 25 29 16 0 16 27 40 52 53 74 53 30 24 0 0 19 12 0 4 7 14 6 7 2 2
436 237 191 184 211 118 86 66 49 68 168 198 166 248 68 73 50 101 37 11 13 5 0 2 12 42 56 35 23 0 0 1 11 10 6 5 2 5 31 15 8 8 5
356 301 346 305 224 188 100 72 116 198 313 408 338 154 185 76 138 100 44 0 0 0 1 5 0 7 13 0 0 0 0 0 0 0 0 0 1 5 1 4 3 6 6
288 291 324 375 284 179 131 90 244 343 422 359 258 188 104 162 93 44 4 0 0 0 0 1 1 0 0 0 0 0 0 0 0 0 0 0 1 0 0 7 5 5 2
240 247 337 320 187 160 215 282 391 450 483 393 193 41 34 25 65 22 0 0 0 0 6 0 0 0 0 0 0 0 0 0 0 0 0 0 0 0 4 6 10 7 3
169 185 142 209 231 303 388 459 493 481 250 119 55 0 0 7 31 7 0 0 0 0 0 0 0 0 0 0 0 0 0 1 0 0 0 1 0 0 2 13 5 4 2
107 165 301 390 541 540 582 666 489 334 254 118 29 0 0 22 0 0 0 0 0 0 0 0 0 0 0 0 0 0 0 0 0 0 0 0 1 0 1 5 2 1 1
60 88 63 15 0 36 628 845 541 217 106 51 29 2 27 1 0 0 0 0 0 0 0 0 0 0 0 0 0 0 0 0 3 0 0 0 0 0 1 11 3 2 1
20 0 1 0 0 0 26 445 420 274 111 44 32 42 1 0 0 0 0 0 0 0 0 0 0 0 0 0 0 0 0 0 0 2 2 3 1 0 1 5 4 2 3
0 0 0 0 23 165 82 103 166 0 0 0 0 0 0 0 0 0 0 0 0 0 0 0 0 0 0 0 0 0 0 0 0 0 3 1 0 0 2 2 4 3 3
0 0 0 0 117 99 6 0 0 0 0 0 0 0 0 0 0 0 0 0 0 0 0 0 0 0 0 0 0 0 0 0 0 0 0 0 1 0 0 3 1 2 3
0 0 0 152 172 52 0 0 0 0 0 0 0 0 0 0 0 0 0 0 0 0 0 0 0 0 0 0 0 0 0 0 0 0 0 0 0 1 0 3 0 1 1
165 206 136 56 59 0 0 0 0 0 0 0 0 0 0 0 0 0 0 0 0 0 0 0 0 0 0 0 0 0 0 0 0 0 0 0 0 0 0 0 1 0 0
125 66 84 102 95 46 1 1 0 0 0 0 0 0 0 0 0 0 0 0 0 0 0 0 0 0 0 0 0 0 0 0 0 0 0 0 0 0 0 0 0 0 0
1 27 22 48 10 0 0 0 0 0 0 0 0 0 0 0 0 0 0 0 0 0 0 0 0 0 0 0 0 0 0 0 0 0 0 0 0 0 0 0 0 0 0
66 22 6 2 0 0 2 0 0 0 0 0 0 0 0 0 0 0 0 0 0 0 0 0 0 0 0 0 0 0 0 0 0 0 0 0 0 0 0 0 0 0 0
78 45 27 24 6 1 0 0 0 0 0 0 0 0 0 0 0 0 0 1 0 0 0 0 0 0 0 0 0 0 0 0 0 0 0 0 0 0 0 0 0 0 0
20 1 3 2 0 0 0 0 3 2 0 0 0 0 0 0 0 0 0 0 0 0 0 0 0 0 0 0 0 0 0 0 0 0 0 0 0 0 0 0 0 0 0
0 0 0 0 0 0 0 0 0 0 0 0 0 0 0 0 0 0 0 0 0 0 0 0 0 0 0 0 0 0 0 0 0 0 0 0 0 0 0 0 0 0 0
0 0 0 0 0 0 0 0 0 0 0 0 0 0 0 0 0 0 0 0 0 0 0 0 0 0 0 0 0 0 0 0 0 0 0 0 0 0 0 0 0 0 0
0 0 0 0 6 2 0 0 0 0 0 0 0 0 0 0 0 0 0 0 0 0 0 0 0 0 0 0 0 0 0 0 0 0 0 0 0 0 0 0 0 0 0

GFSGL_con_mlcape_015.txt.gz
CAPE
633 475 49 0 0 0 0 0 0 0 0 0 0 0 0 0 0 0 0 0 0 0 0 0 0 6 13 4 0 0 0 0 0 0 0 0 0 0 0 0 0 0 0
642 392 8 0 0 0 0 0 0 0 0 0 0 0 0 0 0 0 0 0 0 0 6 4 0 9 14 7 0 0 0 0 0 0 0 0 0 0 0 0 0 0 0
541 266 0 0 0 0 0 0 0 0 0 0 0 0 0 0 0 0 0 0 0 0 4 20 21 9 0 0 4 0 0 0 0 0 0 1 0 0 0 0 0 0 0
407 223 0 0 0 10 6 0 0 0 0 0 0 0 0 0 0 0 0 0 8 0 0 3 29 8 5 2 4 6 0 0 0 0 0 1 0 0 0 0 0 0 0
527 240 0 0 0 42 116 49 12 3 0 30 1 4 0 3 40 0 0 0 0 0 12 29 17 27 55 27 11 18 10 1 0 0 0 0 0 0 0 0 0 0 0
630 229 0 0 3 8 75 0 5 0 3 0 57 44 26 53 80 0 26 0 9 0 0 9 1 13 24 27 46 105 71 6 0 0 0 0 0 0 0 0 0 4 6
419 127 1 11 66 0 0 3 0 0 0 27 76 124 95 105 32 7 24 12 26 13 0 3 0 0 5 6 23 31 22 24 17 3 0 0 0 0 0 0 0 4 5
297 146 20 0 55 32 22 76 50 7 36 51 147 216 210 182 38 18 57 36 24 0 0 0 0 0 0 0 0 0 0 0 0 0 0 0 0 0 0 0 2 3 3
363 277 284 215 23 24 69 192 146 156 134 211 246 257 199 110 23 24 6 13 0 0 0 0 0 0 0 0 0 0 0 0 0 0 0 0 0 0 0 3 3 5 5
396 188 190 85 53 84 163 257 244 197 211 219 207 212 111 105 44 22 0 0 0 0 0 0 0 0 0 0 0 0 0 0 0 0 0 0 0 0 0 1 1 4 6
351 200 171 58 110 119 82 127 175 221 166 238 200 106 123 26 0 4 7 0 0 0 0 0 0 0 0 0 0 0 0 0 0 0 1 0 0 0 0 0 1 3 3
340 347 217 155 205 110 85 6 0 4 37 103 121 117 36 0 0 6 0 0 0 0 0 0 0 0 0 0 0 0 0 0 0 0 1 0 0 0 0 0 2 7 5
117 60 8 0 3 5 9 1 0 0 10 105 106 45 1 0 0 0 0 0 0 0 0 0 0 0 0 0 0 0 0 0 0 0 1 0 1 0 0 1 1 5 3
113 10 0 0 0 0 0 0 8 5 50 62 74 50 0 0 0 0 0 0 0 0 0 0 0 0 0 0 0 0 0 0 0 0 0 0 1 0 0 0 2 2 4
38 0 0 0 0 0 0 0 1 3 2 37 17 0 0 0 0 0 0 0 0 0 0 0 0 0 0 0 0 0 0 0 0 0 0 0 0 0 0 1 1 1 5
0 0 0 0 0 0 0 0 0 0 0 0 0 0 0 0 0 0 0 0 0 0 0 0 0 0 0 0 0 0 0 0 0 0 0 0 0 0 3 0 0 0 1
0 0 0 0 0 11 0 0 0 0 0 0 0 0 0 0 0 0 0 0 0 0 0 0 0 0 0 0 0 0 0 0 0 0 0 0 0 0 0 0 1 0 0
0 0 3 19 33 12 0 0 0 0 0 0 0 0 0 0 0 0 0 0 0 0 0 0 0 0 0 0 0 0 0 0 0 0 0 0 0 0 0 0 2 0 0
38 69 49 28 16 3 0 0 0 0 0 0 0 0 0 0 0 0 0 0 0 0 0 0 0 0 0 0 0 0 0 0 0 0 0 0 0 0 0 0 0 0 0
35 10 17 20 9 0 0 0 0 0 0 0 0 0 0 0 0 0 0 0 0 0 0 0 0 0 0 0 0 0 0 0 0 0 0 0 0 0 0 0 0 0 0
11 4 21 19 19 0 0 0 0 0 0 0 0 0 0 0 0 0 0 0 0 0 0 0 0 0 0 0 0 0 0 0 0 0 0 0 0 0 0 0 0 0 0
90 5 3 12 1 0 0 0 0 0 0 0 0 0 0 0 0 0 0 0 0 0 0 0 0 0 0 0 0 0 0 0 0 0 0 0 0 0 0 0 0 0 0
87 56 41 23 0 0 0 0 0 0 1 0 0 0 0 0 0 0 0 0 0 0 0 0 0 0 0 0 0 0 0 0 0 0 0 0 0 0 0 0 0 0 0
3 13 4 0 0 0 0 0 0 0 0 0 0 0 0 0 0 0 0 0 0 0 0 0 0 0 0 0 0 0 0 0 0 0 0 0 0 0 0 0 0 0 0
0 0 10 19 5 2 0 0 0 0 0 0 0 0 0 0 0 0 0 0 0 0 0 0 0 0 0 0 0 0 0 0 0 0 0 0 0 0 0 0 0 0 0
0 0 0 0 1 0 0 0 0 0 0 0 0 0 0 0 0 0 0 0 0 0 0 0 0 0 0 0 0 0 0 0 0 0 0 0 0 0 0 0 0 0 0

GFSGL_con_mlcape_018.txt.gz
CAPE
673 503 364 318 7 0 0 0 0 0 0 0 0 0 0 0 0 0 0 0 0 0 0 0 0 0 6 7 0 0 0 0 0 0 0 0 0 0 0 0 0 0 0
706 497 307 230 5 0 0 0 0 0 0 0 0 0 0 0 0 0 0 0 0 0 0 0 0 0 9 14 0 0 0 0 0 0 0 0 0 0 0 0 0 0 0
775 523 311 232 0 0 0 0 0 0 0 0 0 0 0 0 0 0 0 0 0 0 0 0 0 3 0 0 0 0 0 0 0 0 0 1 0 0 0 0 0 0 0
779 631 404 196 0 0 5 0 8 3 0 0 0 0 1 0 0 0 0 0 0 0 1 0 0 0 0 0 0 0 0 1 2 0 0 0 0 0 0 0 0 0 0
826 568 154 0 0 0 0 4 5 0 3 8 3 1 3 0 1 2 15 1 0 0 0 0 0 0 0 0 0 0 0 7 9 2 0 0 1 0 0 0 0 0 0
675 359 68 14 0 0 0 0 0 0 2 35 25 40 16 30 35 33 72 6 16 20 7 0 0 0 0 0 13 17 36 20 17 11 0 1 0 0 0 0 0 0 0
693 218 42 7 0 0 0 0 0 12 47 54 59 67 74 114 96 82 88 13 3 15 3 0 0 0 0 0 0 1 16 27 23 22 1 0 0 0 1 1 0 0 0
717 331 44 0 0 0 0 0 0 1 0 21 91 76 77 176 154 99 24 23 32 7 0 0 0 0 0 0 0 0 0 0 0 0 0 0 0 0 3 1 0 1 3
717 458 127 0 0 0 1 0 0 0 1 46 127 111 135 211 171 61 3 3 3 0 0 0 0 0 0 0 0 0 0 0 0 0 0 0 0 0 0 1 0 0 3
628 491 257 24 0 5 7 19 4 1 10 24 68 56 87 129 100 5 0 0 1 0 0 0 0 0 0 0 0 0 0 0 0 0 0 0 1 0 0 0 0 2 3
558 462 282 144 40 15 42 19 17 14 47 80 43 37 50 47 29 4 0 0 1 0 0 0 0 0 0 0 0 0 0 0 0 0 0 0 0 0 0 0 0 2 2
472 435 338 235 208 81 86 46 59 99 36 28 8 0 0 1 0 0 0 0 0 0 0 0 0 0 0 0 0 0 0 0 0 0 0 0 0 0 0 0 0 2 3
369 350 307 163 116 63 86 43 12 7 0 0 0 0 15 1 0 0 0 0 0 0 0 0 0 0 0 0 0 0 0 0 0 0 0 0 0 0 0 0 2 1 0
268 128 62 100 35 0 0 0 0 0 0 0 1 5 2 0 0 0 0 0 0 0 0 0 0 0 0 0 0 0 0 0 0 0 0 0 0 0 0 0 5 2 1
192 7 0 0 0 0 0 0 0 0 0 2 4 14 0 0 0 0 0 0 0 0 0 0 0 0 0 0 0 0 0 0 0 0 0 0 0 0 0 0 3 1 2
80 0 0 0 0 0 0 0 0 0 0 0 0 0 0 0 0 0 0 0 0 0 0 0 0 0 0 0 0 0 0 0 0 0 0 0 0 0 0 0 0 0 1
0 0 0 0 0 0 0 0 0 0 0 0 0 0 0 0 0 0 0 0 0 0 0 0 0 0 0 0 0 0 0 0 0 0 0 0 0 0 0 0 0 0 0
0 0 0 0 0 0 0 0 0 0 0 0 0 0 0 0 0 0 0 0 0 0 0 0 0 0 0 0 0 0 0 0 0 0 0 0 0 0 0 0 0 1 0
0 0 0 11 7 0 0 0 0 0 0 0 0 0 0 0 0 0 0 0 0 0 0 0 0 0 0 0 0 0 0 0 0 0 0 0 0 0 0 0 0 0 0
29 58 52 19 0 0 0 0 0 0 0 0 0 0 0 0 0 0 0 0 0 0 0 0 0 0 0 0 0 0 0 0 0 0 0 0 0 0 0 0 0 0 0
56 6 8 6 0 0 0 0 0 0 0 0 0 0 0 0 0 0 0 0 0 0 0 0 0 0 0 0 0 0 0 0 0 0 0 0 0 0 0 0 0 0 0
48 43 32 29 0 0 0 0 0 0 0 0 0 0 0 0 0 0 0 0 0 0 0 0 0 0 0 0 0 0 0 0 0 0 0 0 0 0 0 0 0 0 0
107 52 19 1 0 0 0 0 0 0 0 0 0 0 0 0 0 0 0 0 0 0 0 0 0 0 0 0 0 0 0 0 0 0 0 0 0 0 0 0 0 0 0
17 25 17 0 0 1 0 0 0 0 0 0 0 0 0 0 0 0 0 0 0 0 0 0 0 0 0 0 0 0 0 0 0 0 0 0 0 0 0 0 0 0 0
3 0 0 0 0 0 0 0 1 0 0 0 0 0 0 0 0 0 0 0 0 0 0 0 0 0 0 0 0 0 0 0 0 0 0 0 0 0 0 0 0 0 0
0 0 0 0 0 0 13 14 16 0 0 1 0 0 0 0 0 0 0 0 0 0 0 0 0 0 0 0 0 0 0 0 0 0 0 0 0 0 0 0 0 0 0

GFSGL_con_mlcape_021.txt.gz
CAPE
1004 1105 1252 1223 1062 496 416 9 0 0 0 53 29 9 42 41 40 15 0 8 0 27 62 37 58 97 39 51 64 77 51 28 0 0 0 0 0 0 0 0 0 0 0
1181 1216 1075 763 344 594 159 7 0 0 0 0 1 21 62 66 44 44 29 11 11 23 0 39 59 87 108 19 35 37 73 79 46 2 0 3 4 1 6 2 0 0 0
1383 1263 947 231 395 295 0 0 0 2 17 5 4 27 36 75 70 71 20 10 30 12 22 52 73 75 40 20 47 51 48 65 49 43 3 0 1 0 0 0 2 0 0
1556 1263 697 209 351 213 0 0 0 0 0 0 0 0 10 32 75 70 36 30 39 69 49 131 150 49 44 22 63 39 50 39 51 38 18 8 5 7 8 7 7 12 15
1769 1327 851 329 247 99 0 0 0 0 0 0 0 0 3 34 48 10 37 85 244 179 194 203 123 69 14 3 23 32 67 55 43 34 26 13 4 6 6 14 12 10 6
1607 1322 817 388 360 174 1 0 0 0 0 0 0 1 28 23 18 0 37 224 410 226 138 218 153 18 1 0 0 0 1 27 49 49 41 21 2 12 16 22 20 2 1
1507 1232 599 520 514 278 1 0 0 0 0 0 0 4 73 81 37 24 32 214 510 430 270 208 62 67 4 0 0 0 0 0 2 29 4 6 19 9 12 7 8 8 6
1351 1000 674 561 487 274 14 0 0 0 0 0 0 37 166 189 64 69 83 212 313 378 291 190 112 52 5 0 0 0 0 3 4 1 1 1 0 0 1 7 3 2 8
1227 937 801 653 527 239 27 0 0 0 12 6 27 110 134 248 90 32 22 31 59 77 120 73 11 0 0 0 0 0 0 0 0 0 0 0 0 0 0 2 1 11 7
1153 977 845 686 526 284 87 14 11 2 1 110 80 87 44 156 68 16 0 7 23 15 0 0 0 0 0 0 0 0 0 0 0 0 0 0 0 0 0 2 2 7 14
1139 998 802 641 435 294 169 111 102 93 135 139 53 93 100 154 31 7 0 0 16 12 0 10 0 0 0 0 0 0 0 0 0 0 0 0 0 0 0 1 0 4 5
928 880 799 680 428 326 265 285 298 308 285 206 185 89 179 149 29 4 1 4 0 2 22 14 0 0 0 0 0 0 0 0 0 0 0 0 0 0 0 0 0 0 1
932 878 735 603 489 387 345 458 448 368 454 256 65 103 95 9 9 1 0 0 0 0 0 0 0 0 0 0 0 0 0 0 0 0 0 0 0 0 0 0 0 0 1
824 796 735 716 675 621 596 544 431 271 243 107 5 9 7 9 7 0 0 0 0 0 0 0 0 0 0 0 0 0 0 0 0 0 0 0 0 0 0 0 0 0 3
667 638 597 394 233 0 0 0 0 0 0 3 24 37 60 108 22 0 0 0 0 0 0 0 0 0 0 0 0 0 0 0 0 0 0 0 0 0 0 0 0 1 2
342 225 169 59 0 0 0 0 0 0 0 0 0 57 0 2 0 0 0 0 0 0 0 0 0 0 0 0 0 0 0 0 0 0 0 0 0 0 0 0 0 0 2
2 0 0 0 0 0 0 0 0 0 0 0 0 0 0 0 0 0 0 0 0 0 0 0 0 0 0 0 0 0 0 0 0 0 0 0 0 0 0 0 0 0 1
0 0 0 0 0 0 0 0 0 0 0 0 0 0 0 0 0 0 0 0 0 0 0 0 0 0 0 0 0 0 0 0 0 0 0 0 0 0 0 0 0 0 1
0 0 0 0 4 11 12 0 0 0 0 0 0 0 0 0 0 0 0 0 0 0 0 0 0 0 0 0 0 0 0 0 0 0 0 0 0 0 0 0 0 0 0
0 14 140 170 57 64 28 6 0 0 0 0 0 0 0 0 0 0 0 0 0 0 0 0 0 0 0 0 0 0 0 0 0 0 0 0 0 0 0 0 0 0 0
145 101 35 89 103 107 92 47 0 0 0 0 0 0 0 0 0 0 0 0 0 0 0 0 0 0 0 0 0 0 0 0 0 0 0 0 0 0 0 0 0 0 0
140 131 147 177 148 113 115 47 4 0 0 0 0 0 0 0 0 0 0 0 0 0 0 0 0 0 0 0 0 0 0 0 0 0 0 0 0 0 0 0 0 0 0
180 203 194 178 202 124 78 93 50 10 4 1 0 0 0 0 0 0 0 0 0 0 0 0 0 0 0 0 0 0 0 0 0 0 0 0 0 0 0 0 0 0 0
130 143 159 172 136 132 156 111 22 1 0 0 0 0 2 0 0 0 0 0 0 0 0 0 0 0 0 0 0 0 0 0 0 0 0 0 0 0 0 0 0 0 0
28 61 86 119 95 83 75 62 10 1 3 11 0 4 9 8 0 0 0 0 0 0 0 0 0 0 0 0 0 0 0 0 0 0 0 0 0 0 0 0 0 0 0
0 0 4 27 44 41 57 48 36 36 32 6 4 11 7 2 0 0 0 0 0 0 0 0 0 0 0 0 0 0 0 0 0 0 0 0 0 0 0 0 0 0 0

GFSGL_con_mlcape_024.txt.gz
CAPE
1938 1952 2019 2020 2237 2486 2179 1913 1205 511 208 158 194 206 287 171 179 216 92 0 24 54 34 19 45 106 46 40 58 45 46 28 3 0 0 3 13 31 16 10 11 9 3
2044 2277 2129 2069 2200 2243 2007 1272 641 125 12 10 77 12 85 201 254 186 114 2 44 58 44 52 72 88 79 132 39 31 29 51 35 2 0 2 12 27 34 22 16 6 5
2015 2146 2168 2168 2091 1683 1191 782 163 0 0 0 0 0 20 233 265 218 209 138 78 52 52 93 110 98 95 73 52 18 36 43 46 48 16 2 6 19 35 44 20 9 5
1922 2073 2255 2302 1876 1467 1370 461 12 0 0 0 0 0 10 203 173 122 240 179 115 106 160 198 206 146 110 74 76 15 36 69 61 55 53 32 18 18 38 35 34 32 15
1951 2058 2252 2360 1649 1280 1612 583 20 0 0 0 0 0 139 151 25 125 159 180 177 276 312 274 291 254 157 79 37 3 66 15 45 40 34 38 40 68 66 40 17 29 14
2080 2260 2404 2227 1367 1499 1297 607 130 2 0 20 0 4 71 1 0 11 161 105 167 408 379 373 389 358 119 44 2 0 0 0 24 26 6 14 37 44 15 28 26 22 7
2349 2577 2480 2197 1635 1389 1291 867 442 34 1 162 112 139 79 42 10 9 22 58 119 466 596 650 270 204 106 181 120 7 0 0 0 0 16 26 14 16 13 14 17 12 3
2605 2633 2476 2207 1653 1518 1380 1008 511 77 16 98 170 246 289 142 184 52 19 58 110 310 151 84 57 97 195 156 106 64 44 39 49 45 32 28 22 7 2 0 3 5 5
2552 2503 2344 1858 1743 1638 1455 1143 621 333 112 160 218 314 408 407 225 103 54 112 144 62 32 18 19 44 41 3 12 11 9 1 0 0 0 0 0 0 0 3 1 8 15
2251 2270 2050 1838 1805 1725 1267 1146 816 579 333 367 401 607 330 523 86 45 96 235 117 36 7 6 0 2 0 0 0 0 1 0 5 1 0 1 0 8 3 1 3 12 35
2179 2101 2023 1855 1608 1408 1305 937 739 615 467 546 577 543 503 528 561 22 20 130 86 44 12 0 17 0 0 0 0 0 0 0 0 0 0 0 2 10 31 19 23 10 8
2159 1927 1723 1662 1446 1166 992 702 503 383 335 436 649 537 476 733 365 0 3 0 109 72 72 168 108 0 0 0 0 0 0 0 0 1 0 0 3 2 3 0 0 0 0
1731 1747 1417 1115 1135 992 775 702 535 479 489 595 691 622 555 537 178 1 1 0 4 102 83 2 0 0 0 0 0 0 0 0 2 0 0 0 0 0 0 0 0 0 0
1621 1459 1118 978 825 725 772 728 692 618 601 608 648 550 260 129 29 4 1 0 0 0 0 0 0 0 0 0 0 0 0 1 0 0 0 0 0 0 0 0 0 0 3
1337 1201 940 762 589 352 5 65 343 12 159 550 145 71 93 98 104 3 1 45 28 19 16 4 0 0 2 5 12 10 1 0 0 0 0 0 0 0 0 0 0 0 13
1141 1041 864 736 620 537 89 0 0 0 0 0 0 119 0 3 0 0 0 0 0 0 0 0 7 20 19 21 13 2 0 0 0 0 0 0 0 0 0 0 0 0 7
855 719 393 366 267 167 25 0 0 0 0 0 0 0 0 0 0 0 0 0 0 0 0 0 2 9 11 9 0 0 0 0 0 0 0 0 0 0 0 0 0 0 6
14 0 21 3 0 0 0 0 0 0 0 0 0 0 0 0 0 0 0 0 0 0 0 0 2 7 6 0 0 0 0 0 0 0 0 0 0 0 0 0 0 0 2
12 0 0 0 0 0 12 123 78 19 2 0 0 0 0 0 0 0 0 0 0 0 0 0 0 0 0 0 0 0 0 0 0 0 0 0 0 0 0 0 0 0 0
38 0 0 0 38 102 136 63 42 56 19 0 0 0 0 0 0 0 0 0 0 0 0 0 0 0 0 0 0 0 0 0 0 0 0 0 0 0 0 0 0 0 2
73 0 6 20 9 34 64 83 81 79 64 58 43 3 0 0 0 0 0 0 0 0 0 0 0 0 0 0 0 0 0 0 0 0 0 0 0 0 0 0 0 0 0
120 48 47 105 115 114 140 154 136 98 113 88 36 0 0 0 2 2 0 0 0 0 0 0 0 0 0 0 0 0 0 0 0 0 0 0 0 0 0 0 0 0 0
184 220 200 216 181 104 141 143 147 158 118 71 13 5 0 0 4 9 0 0 0 0 0 0 0 0 0 0 0 0 0 0 0 0 0 0 0 0 0 0 0 0 0
197 208 227 255 235 183 164 196 167 99 90 4 6 1 5 1 5 23 3 1 1 0 0 0 0 0 0 0 0 0 0 0 0 0 0 0 0 0 0 0 0 0 0
45 64 91 141 175 81 179 181 209 124 35 11 4 5 8 9 8 22 13 3 2 0 0 0 0 0 0 0 0 0 0 0 0 0 0 0 0 0 0 0 0 0 0
8 16 32 48 72 124 164 182 201 103 34 12 29 20 19 23 25 24 18 2 2 0 0 0 0 0 0 0 0 0 0 0 0 0 0 0 0 0 0 0 0 0 0

GFSGL_con_mlcape_027.txt.gz
CAPE
3108 3090 2904 2952 2875 2970 2599 2660 2502 1930 1037 666 792 710 589 327 430 312 178 146 92 95 72 73 36 44 1 13 30 44 23 14 20 41 27 24 45 43 35 50 61 58 38
2716 3161 3032 3023 2893 2795 2854 2805 2930 2180 1411 809 642 558 394 390 307 263 234 41 24 60 106 93 44 14 82 160 58 7 13 16 13 13 21 22 29 49 48 52 56 36 32
2602 2751 3145 3169 2980 2733 2955 2958 2847 2226 1364 663 474 360 15 317 229 482 327 219 80 62 77 77 78 49 92 88 157 120 4 32 73 63 13 0 5 14 22 59 54 25 65
2001 2394 2916 3273 3196 3034 3161 2942 2677 1939 1123 373 133 319 201 290 152 529 315 235 179 82 93 170 131 166 213 195 219 195 194 39 68 30 35 36 18 0 24 27 23 34 34
2257 2536 2954 3414 3394 3381 2979 2829 2450 1716 822 463 239 160 289 21 178 419 147 224 312 173 147 245 349 285 212 150 169 113 142 40 17 33 24 22 7 22 21 16 18 20 22
2594 2751 3011 3505 3516 3242 2873 2788 2219 1378 668 464 262 125 193 302 182 68 216 171 294 351 349 475 534 325 342 128 99 66 29 5 8 28 12 13 16 4 25 10 10 1 3
3018 2882 3238 3572 3492 3152 2760 2537 2316 1397 773 473 225 312 383 521 32 0 0 64 273 334 451 743 519 409 115 39 74 80 40 17 3 23 39 51 29 52 14 0 3 6 3
2941 3213 3459 3369 3312 2798 2422 2660 2361 1736 954 446 358 359 444 585 227 1 0 18 190 277 583 911 628 273 62 22 29 34 72 84 135 65 36 63 38 36 1 0 0 0 1
3110 3361 3321 3318 3137 2783 2260 2415 2293 1957 1258 686 479 563 606 655 383 171 37 130 259 504 691 620 260 67 34 1 1 0 2 61 118 51 19 0 0 0 0 0 0 9 11
3151 3323 3286 3077 2780 2436 2282 2207 2142 1771 1389 836 496 555 500 591 594 319 142 516 498 554 946 606 73 46 3 0 1 6 7 66 64 76 59 12 0 1 0 2 23 31 34
3041 2975 2973 2659 2508 2489 2137 2198 1627 1168 843 712 509 413 469 605 700 277 154 656 611 713 668 368 114 2 0 0 0 18 9 9 12 0 0 0 19 12 19 66 53 36 25
2632 2576 2597 2597 2375 2261 1884 1528 1197 865 867 813 632 530 748 965 740 123 69 100 399 371 286 178 77 70 14 0 0 0 0 0 0 0 2 18 3 3 4 3 0 0 0
2651 2681 2727 2550 2066 1743 1263 1060 930 804 970 861 749 925 1063 925 765 137 5 2 10 18 255 75 9 0 0 0 0 0 0 0 0 5 16 1 0 0 0 0 3 1 2
2792 2342 2009 1715 1533 1293 986 893 982 841 798 765 758 834 1008 726 614 53 0 0 0 4 2 7 0 0 0 0 0 0 0 0 9 0 0 0 0 0 0 0 0 0 0
1973 1867 1520 1459 1399 926 207 405 961 437 429 1012 615 475 352 390 166 0 0 3 1 18 144 172 16 4 6 5 3 9 3 8 9 1 0 0 0 0 0 0 0 0 0
1609 1463 1069 923 797 696 394 5 0 0 0 0 0 145 0 33 0 0 0 0 0 0 22 73 8 27 23 25 17 17 15 4 3 0 0 0 0 0 0 0 0 0 3
1434 1137 1056 987 936 691 489 190 0 0 0 0 0 0 0 0 0 0 0 0 0 0 0 0 0 15 20 11 9 0 8 5 0 0 0 0 0 0 0 0 0 0 5
966 603 582 443 414 276 161 85 2 0 0 0 0 0 0 0 0 0 0 0 0 0 0 0 0 9 14 11 10 8 5 2 0 0 0 0 0 0 0 0 0 0 0
173 181 131 18 3 1 0 0 2 3 2 0 0 0 0 0 0 0 0 0 0 0 0 0 0 0 0 0 1 0 0 0 0 0 0 0 0 0 0 0 0 0 0
63 16 4 5 0 0 14 75 36 26 12 0 0 0 0 0 0 0 0 0 0 0 0 0 0 0 0 0 0 0 0 0 0 0 0 0 0 0 0 0 0 0 0
80 0 0 3 2 86 84 44 47 61 73 43 17 1 0 0 0 3 2 0 0 0 0 0 0 0 0 0 0 0 0 0 0 0 0 0 0 0 0 0 0 0 0
94 17 0 75 57 45 66 91 117 128 135 79 2 0 0 0 5 7 3 1 0 0 0 0 0 0 0 0 0 0 0 0 0 0 0 0 0 0 0 0 0 0 0
182 97 80 107 48 44 86 140 101 117 99 68 2 1 0 0 0 3 3 5 6 3 0 0 0 0 0 0 0 0 0 0 0 0 0 0 0 0 0 0 0 0 0
98 143 134 108 100 122 108 67 113 59 75 40 32 5 3 0 3 11 3 4 10 6 0 0 0 0 0 0 0 0 0 0 0 0 0 0 0 0 0 0 0 0 0
93 73 64 60 59 73 59 68 98 66 66 55 24 11 16 19 6 9 13 8 16 8 3 0 0 0 0 0 0 0 0 0 0 0 0 0 0 0 0 0 0 0 0
47 35 44 27 25 21 26 40 36 67 38 52 10 24 22 25 11 15 19 10 16 15 4 2 0 0 0 0 0 0 0 0 0 0 0 0 0 0 0 0 0 0 0

GFSGL_con_mlcape_030.txt.gz
CAPE
3654 3611 3554 3512 3785 3160 2734 2287 2624 1743 1419 1376 1159 1001 1226 1130 787 546 297 227 160 82 46 27 61 15 0 0 54 9 16 22 1 0 8 39 32 45 38 43 51 44 44
3506 3489 3597 3738 3729 3590 2545 3044 2955 2338 2091 1225 1092 1166 980 1054 759 694 100 102 362 298 208 166 40 151 60 68 21 27 8 15 23 17 6 39 0 68 62 41 33 35 28
3191 3366 3544 3639 3583 3414 3308 2528 3046 2855 2576 1386 1109 964 1009 814 560 609 434 148 262 36 155 224 130 129 129 45 97 68 69 67 66 5 36 65 9 30 30 61 38 37 18
2782 3086 3273 3612 3494 3362 3384 3296 3080 3332 3003 1847 1408 1110 938 702 659 673 661 563 263 224 289 218 281 217 117 115 64 56 109 87 81 21 6 26 75 69 67 16 1 20 9
2350 2840 3194 3665 3592 3578 3420 3486 3326 3366 3135 2242 1531 1219 980 533 613 494 654 612 405 296 261 275 216 397 279 241 132 172 60 16 2 0 0 0 0 0 0 0 3 6 8
1881 2567 2935 3369 3792 3795 3664 3536 3425 3300 2955 2195 1496 1052 787 450 376 212 585 506 551 544 302 533 393 371 204 66 39 22 11 3 9 7 3 0 0 9 22 7 13 0 0
2003 2319 2738 3266 3786 3843 3827 3598 3508 3276 2725 1958 1336 881 515 468 135 69 460 474 361 526 656 601 685 654 543 181 30 5 17 6 7 5 4 2 19 44 37 26 12 0 0
2439 2772 3065 3572 3972 4031 3893 3692 3400 3185 2436 1701 1085 729 487 601 470 119 126 147 320 527 609 638 637 808 580 338 92 22 8 32 55 18 4 13 36 60 87 10 0 0 0
2822 3519 3627 3873 4264 4097 3813 3521 3089 3061 2201 1713 1040 689 650 811 446 246 2 3 0 15 310 488 719 1035 913 198 43 19 11 2 24 11 21 51 30 2 0 4 0 0 0
3457 3466 3936 4303 4163 3919 3559 3151 3058 3044 2223 1503 1014 814 754 774 604 324 54 58 50 120 449 416 361 698 536 98 32 10 11 20 63 81 92 54 25 0 0 11 15 16 23
3706 3916 4059 4033 3994 3736 3018 2518 2468 2502 2214 1628 1104 817 761 706 721 439 198 432 517 513 307 455 781 376 158 59 0 5 23 38 0 0 0 0 0 2 42 73 70 36 23
3597 3911 3824 3758 3211 2985 2523 2046 2113 2013 1734 1371 1034 796 741 656 585 516 325 219 388 463 472 461 517 341 64 7 0 0 0 0 0 0 0 0 1 13 2 0 0 0 1
3575 3550 3214 2835 2675 2384 2085 2025 1539 1310 1123 990 847 760 662 879 930 599 231 25 46 211 65 13 5 12 12 3 0 0 0 0 0 0 0 0 0 0 0 0 0 0 0
3186 3070 2931 2481 2116 1825 1600 1371 1074 922 905 1028 1040 1098 1017 904 652 151 27 0 0 0 0 1 0 0 0 0 0 0 0 0 1 4 1 0 0 0 0 0 0 0 0
2989 2434 2041 1711 1409 608 186 332 888 383 586 882 1002 1127 1035 843 714 144 8 0 0 0 20 40 0 0 0 1 1 4 8 9 7 9 5 0 0 0 0 0 0 0 0
2071 1759 1460 1158 737 404 382 157 0 0 0 4 200 414 0 83 0 0 0 0 0 0 0 214 192 170 155 89 48 31 31 20 15 9 1 0 0 0 0 0 0 0 0
1542 1457 1349 1199 917 712 451 235 5 0 0 0 0 0 0 0 0 0 0 0 0 0 22 36 1 13 16 6 7 15 6 2 0 0 0 0 0 0 0 0 0 0 0
1668 1321 1249 1285 1253 1036 603 277 0 0 0 0 0 0 0 0 0 0 0 0 0 0 0 0 0 2 13 11 3 0 0 0 0 0 0 0 0 0 0 0 0 0 0
1272 1206 882 761 627 488 304 173 0 0 0 0 0 0 0 0 0 0 0 0 0 0 0 1 0 0 0 0 0 0 0 0 0 0 0 0 0 0 0 0 0 0 0
291 240 238 96 15 26 7 2 4 20 0 0 0 0 0 0 0 0 0 0 0 0 0 0 0 0 0 0 0 0 0 0 0 0 0 0 0 0 0 0 0 0 0
9 0 0 3 0 0 6 11 14 19 17 1 0 0 0 0 0 0 0 0 0 0 0 0 0 0 0 0 0 0 0 0 0 0 0 0 0 0 0 0 0 0 0
15 7 12 49 40 54 11 21 31 37 65 63 32 0 0 0 0 0 4 0 0 0 0 0 0 0 0 0 0 0 0 0 0 0 0 0 0 0 0 0 0 0 0
128 41 10 39 16 25 50 54 110 24 1 1 0 0 0 0 0 2 1 0 1 1 0 0 0 0 0 0 0 0 0 0 0 0 0 0 0 0 0 0 0 0 0
103 113 113 63 10 4 99 17 32 18 20 7 0 1 0 7 0 2 2 2 1 3 0 0 0 0 0 0 0 0 0 0 0 0 0 0 0 0 0 0 0 0 0
77 53 116 153 53 34 48 22 56 65 62 54 26 11 21 2 0 10 10 0 5 6 0 0 0 0 0 0 0 0 0 0 0 0 0 0 0 0 0 0 0 0 0
53 27 24 27 30 39 60 27 44 45 42 45 45 23 27 8 12 8 7 3 0 7 2 0 0 0 0 0 0 0 0 0 0 0 0 0 0 0 0 0 0 0 0

GFSGL_con_mlcape_033.txt.gz
CAPE
2262 2202 2376 2452 2139 2026 1900 2294 1662 1424 1455 1117 1013 1000 918 734 335 347 171 86 153 16 38 9 46 30 0 0 2 0 0 0 0 0 0 23 52 32 33 17 16 0 1
2596 2600 2480 2613 2968 2564 2230 2038 1999 1654 1497 1247 929 954 816 671 495 433 248 185 28 153 66 28 0 0 0 0 0 0 5 0 0 0 0 2 10 1 12 0 0 14 0
2745 2878 2911 2811 2818 3030 2698 2575 2151 2009 1662 1404 1080 786 729 617 433 465 298 157 140 215 106 11 1 0 0 48 55 45 55 47 38 14 1 4 9 18 0 26 23 30 20
2788 2913 2913 2962 2955 2960 3324 2825 2678 2523 2158 1706 1344 1015 803 775 573 626 464 273 52 250 285 236 117 15 1 47 3 11 18 25 40 45 25 14 1 0 2 0 0 0 0
2544 2850 2857 3016 3143 3259 3269 3284 2596 2812 2600 2014 1499 1181 988 854 711 598 472 345 148 93 273 144 175 123 175 165 53 16 21 21 9 0 0 0 0 0 0 0 1 0 0
2314 2533 2969 2915 3287 3355 3312 3254 3125 2595 2891 2571 1840 1437 1089 971 822 653 366 379 201 290 273 257 244 267 370 374 234 192 84 18 0 0 0 0 0 1 5 1 0 0 0
1409 2341 2763 2979 3115 3324 3370 3295 3305 3044 3077 2905 2291 1749 1382 1062 703 561 519 422 371 514 385 277 393 276 227 178 86 43 31 13 1 0 0 0 0 0 0 0 0 0 0
1670 1901 2548 2755 3144 3402 3491 3443 3398 3320 3168 2797 2301 1895 1429 993 482 266 335 503 527 492 510 526 436 353 330 110 90 42 37 11 0 0 0 0 0 0 10 29 18 0 0
1662 1989 2496 2754 3166 3446 3596 3617 3497 3364 3042 2566 2082 1594 1283 815 522 232 64 84 314 423 461 568 499 493 350 320 229 113 41 29 29 1 0 0 0 31 50 23 0 3 0
1600 2021 2340 2795 3252 3591 3708 3679 3412 3166 2838 2148 1800 1411 1010 804 507 356 163 227 169 116 88 210 55 370 238 173 89 51 67 47 6 65 93 6 0 0 0 0 3 7 8
2388 2907 2909 3236 3638 3861 3720 3495 3309 2850 2522 2184 1712 1260 909 775 606 464 265 271 164 32 17 107 267 319 106 129 130 72 41 35 16 2 2 0 0 0 0 3 4 6 0
3399 3513 3884 3935 3945 3651 3370 3090 2823 2545 2177 1765 1379 1013 802 742 692 474 393 373 349 408 532 446 309 240 136 54 33 44 2 1 0 0 0 0 0 0 0 0 0 1 0
3693 3867 3959 3672 3362 3089 2798 2208 2040 2112 1853 1498 1264 980 828 756 723 532 335 214 146 428 386 128 27 8 18 6 5 10 0 0 0 0 0 0 0 0 0 0 0 0 0
3695 3481 3044 2821 2514 2124 1618 1611 1611 1541 1428 1310 1157 922 748 681 651 396 287 32 0 0 0 0 0 0 0 0 0 0 0 0 0 0 2 2 0 0 0 0 0 0 0
3056 2440 2054 1697 1254 900 660 977 1159 757 923 1084 909 919 848 824 672 339 54 0 0 0 0 0 0 0 0 0 0 0 0 0 1 5 11 3 0 0 0 0 0 0 0
2029 1724 1251 878 754 648 501 126 0 19 60 301 619 625 137 457 183 30 0 0 0 0 0 1 0 0 0 0 0 0 8 15 6 9 6 0 0 0 0 0 0 0 0
1472 860 849 686 541 412 227 190 151 0 0 0 1 9 28 0 0 0 0 0 0 0 0 0 35 1 0 0 4 16 16 9 8 0 0 0 0 0 0 0 0 0 0
1200 997 1095 819 623 398 278 63 0 15 2 0 0 0 0 0 0 0 0 0 0 0 0 0 0 0 0 0 0 0 0 0 0 0 0 0 0 0 0 0 0 0 0
1240 1190 1136 835 712 537 337 10 4 0 0 0 0 0 0 0 0 0 0 0 0 0 0 0 0 0 0 0 0 0 0 0 0 0 0 0 0 0 0 0 0 0 0
1143 1110 1033 1109 856 489 100 0 0 0 0 0 0 0 0 0 0 0 0 0 0 0 0 0 0 0 0 0 0 0 0 0 0 0 0 0 0 0 0 0 0 0 0
0 99 87 96 138 175 132 16 2 0 0 0 0 0 0 0 0 0 0 0 0 0 0 0 0 0 0 0 0 0 0 0 0 0 0 0 0 0 0 0 0 0 0
0 0 8 0 1 8 22 69 41 17 2 0 0 0 0 0 0 0 0 0 0 0 0 0 0 0 0 0 0 0 0 0 0 0 0 0 0 0 0 0 0 0 0
0 6 62 53 12 46 33 22 21 10 0 0 1 0 0 0 0 0 0 0 0 0 0 0 0 0 0 0 0 0 0 0 0 0 0 0 0 0 0 0 0 0 0
0 2 44 31 15 10 27 26 41 0 12 15 0 0 0 0 0 0 0 0 0 0 0 0 0 0 0 0 0 0 0 0 0 0 0 0 0 0 0 0 0 0 0
46 46 7 29 20 2 19 41 35 10 7 6 0 0 0 2 0 0 0 0 1 0 0 0 0 0 0 0 0 0 0 0 0 0 0 0 0 0 0 0 0 0 0
45 126 94 52 47 63 31 51 41 41 12 20 14 6 3 1 1 0 2 1 0 0 0 0 0 0 0 0 0 0 0 0 0 0 0 0 0 0 0 0 0 0 0

GFSGL_con_mlcape_036.txt.gz
CAPE
1235 1322 1272 1095 829 1276 1739 1901 1495 1155 865 485 604 541 466 389 335 213 82 2 0 0 17 0 0 0 0 0 0 0 0 0 0 0 0 0 3 9 17 13 2 0 0
1390 1416 1485 1451 1276 835 1288 1688 1910 1718 1222 967 704 794 700 590 478 377 102 24 2 0 3 58 0 0 0 0 0 0 0 0 0 0 0 0 0 0 0 0 8 41 23
1686 1638 1763 1847 1776 1502 1173 1209 1449 1682 1542 1172 1067 993 837 734 628 482 130 42 1 1 16 28 28 1 0 0 0 0 0 10 3 0 0 0 0 4 7 2 0 0 0
2001 1938 1848 1977 2099 2007 1907 1612 1491 1622 1721 1401 1237 1223 1033 789 691 512 258 121 79 63 5 60 83 31 0 0 1 3 24 28 32 11 0 0 0 0 0 0 0 0 0
2272 2241 2121 2144 2298 2361 2385 2278 2002 1780 1790 1613 1439 1183 998 838 734 572 420 170 115 73 95 119 240 104 26 8 3 27 17 21 23 20 17 0 0 0 0 0 4 7 8
2294 2392 2523 2542 2562 2520 2597 2694 2439 2184 2160 1807 1512 1295 1089 954 801 635 537 351 251 154 61 56 181 276 248 135 27 81 94 42 43 46 36 0 0 0 0 0 0 0 0
2130 2434 2646 2757 2725 2726 2727 2842 2743 2455 2495 2164 1753 1520 1448 1322 1007 809 717 602 476 380 219 76 24 297 296 296 204 261 171 46 13 14 6 0 0 0 0 0 0 0 0
2320 2403 2745 2810 2757 2863 2941 2879 2880 2706 2534 2421 2073 1829 1736 1646 1234 943 795 837 618 448 241 145 138 363 314 292 153 173 153 50 18 4 0 0 0 2 0 0 0 0 0
1766 2247 2422 2728 2688 2950 2923 2946 2944 2985 2701 2630 2278 2065 2061 1932 1453 1084 901 851 637 535 334 374 598 526 414 181 130 93 64 8 20 22 4 4 26 51 75 0 3 0 0
1486 1561 2235 2644 2724 2856 2965 3016 3065 3064 2816 2572 2393 2301 2205 2188 1617 1061 552 417 424 420 420 448 542 618 426 231 276 214 41 19 49 50 31 34 8 6 0 0 0 0 0
1196 1451 1592 2358 2563 2823 3067 3137 3125 3017 2666 2561 2458 1957 1552 1559 1248 790 281 315 165 62 179 272 317 80 22 36 120 107 70 51 62 5 0 0 0 0 0 0 0 0 0
1155 1367 1761 2140 2496 2836 3151 3217 3015 2910 2618 2326 1593 1100 913 972 667 332 188 316 224 285 366 324 188 142 173 108 41 46 23 14 0 0 0 0 0 0 0 0 0 0 2
1628 1654 1911 2304 2717 3228 3257 3041 2899 2536 2285 1662 1430 1242 1067 859 559 304 247 271 261 452 376 317 141 18 0 0 0 0 13 0 0 0 0 0 0 0 0 0 0 0 0
2123 2678 2872 2947 3106 3150 3032 2714 2438 1882 1364 1098 1143 1279 1034 640 485 177 101 12 18 55 10 0 0 0 0 0 0 0 0 0 0 0 0 0 0 0 0 0 0 0 0
3161 3155 3014 2521 2408 1552 993 1179 1541 830 821 592 1287 908 720 719 555 298 28 18 10 3 0 0 0 0 0 0 0 0 0 0 0 0 0 0 0 0 0 0 0 0 0
2536 2232 1664 1266 361 361 23 33 3 95 481 648 820 589 203 425 270 85 0 0 0 0 0 0 0 0 0 0 0 0 0 0 0 0 0 0 0 0 0 0 0 0 0
1619 1033 586 503 277 238 70 24 19 0 0 3 83 196 320 77 19 0 0 0 0 0 0 0 0 0 0 0 0 0 0 0 0 0 0 0 0 0 0 0 0 0 0
581 343 245 325 136 65 64 0 91 131 74 6 0 0 0 0 0 0 0 0 0 0 0 0 0 0 0 0 0 0 0 0 0 0 0 0 0 0 0 0 0 0 0
459 273 391 240 132 81 27 24 22 13 0 0 0 0 0 0 0 0 0 0 0 0 0 0 0 0 0 0 0 0 0 0 0 0 0 0 0 0 0 0 0 0 0
318 269 247 290 206 79 25 0 2 0 0 0 0 0 0 0 0 0 0 0 0 0 0 0 0 0 0 0 0 0 0 0 0 0 0 0 0 0 0 0 0 0 0
440 501 443 338 286 89 12 1 0 0 0 0 0 0 0 0 0 0 0 0 0 0 0 0 0 0 0 0 0 0 0 0 0 0 0 0 0 0 0 0 0 0 0
3 50 149 248 151 29 0 0 0 0 0 0 0 0 0 0 0 0 0 0 0 0 0 0 0 0 0 0 0 0 0 0 0 0 0 0 0 0 0 0 0 0 0
0 0 0 0 0 2 12 2 0 0 0 0 0 0 0 0 0 0 0 0 0 0 0 0 0 0 0 0 0 0 0 0 0 0 0 0 0 0 0 0 0 0 0
0 0 0 0 0 16 0 0 12 16 3 0 0 0 0 0 0 0 0 0 0 0 0 0 0 0 0 0 0 0 0 0 0 0 0 0 0 0 0 0 0 0 0
0 0 0 0 0 2 0 0 4 38 22 9 4 0 0 0 0 0 0 0 0 0 0 0 0 0 0 0 0 0 0 0 0 0 0 0 0 0 0 0 0 0 0
7 16 8 18 0 6 3 19 27 13 6 21 12 4 10 0 0 0 0 0 0 0 0 0 0 0 0 0 0 0 0 0 0 0 0 0 0 0 0 0 0 0 0

GFSGL_con_mlcape_039.txt.gz
CAPE
681 778 850 889 980 1012 941 598 556 835 576 644 777 617 594 463 163 59 34 18 0 0 0 0 0 0 0 0 0 0 0 0 0 0 0 0 0 0 0 5 6 0 0
756 808 776 770 838 991 1108 963 895 967 662 591 537 531 492 463 302 156 109 91 10 0 0 0 0 0 0 0 0 0 0 0 0 0 0 0 0 0 0 0 0 5 22
760 934 959 896 831 775 926 1051 1206 1214 1115 694 591 669 530 460 313 253 209 202 95 3 0 0 0 0 0 0 0 1 0 0 0 0 0 0 0 0 0 0 0 0 0
834 969 1042 1080 993 852 832 880 1039 1401 1377 1350 943 850 800 614 502 389 333 309 257 81 0 0 0 0 0 7 5 9 0 4 0 2 0 0 0 0 0 0 0 0 0
987 1084 1080 1192 1199 1144 1070 940 896 1121 1507 1441 1382 1085 971 932 795 632 529 475 430 276 33 9 6 2 22 20 12 0 3 1 14 15 11 0 0 0 0 0 0 0 0
1218 1206 1348 1348 1445 1476 1468 1421 1295 1096 1126 1211 1049 1123 1109 1031 942 883 815 650 547 411 163 56 72 55 34 89 70 12 10 0 13 16 20 10 11 0 0 0 0 0 0
1372 1501 1621 1629 1635 1728 1858 1854 1779 1632 1447 1323 1161 984 963 1137 958 939 850 776 602 431 260 92 96 133 84 54 92 98 20 12 19 14 21 2 9 1 0 0 0 0 0
1474 1666 1899 1928 1894 1914 1989 2012 2127 2093 1870 1665 1450 1204 1088 1070 996 930 918 816 457 390 420 272 245 90 61 34 163 180 158 6 7 0 4 5 0 0 0 1 2 0 0
1476 1714 2082 2149 2125 2218 2230 2152 2252 2388 2209 2097 1653 1397 1342 1286 1114 1014 737 727 758 819 634 556 385 189 73 57 249 152 49 0 0 0 8 18 22 24 11 0 6 0 0
1480 1668 1957 2228 2270 2360 2351 2373 2379 2466 2347 2122 1880 1522 1575 1688 1455 989 864 873 1187 1046 623 465 315 268 269 275 345 183 91 72 37 0 2 1 0 0 0 0 0 0 0
1223 1688 2038 2264 2400 2438 2507 2592 2608 2603 2566 2234 1947 1738 1829 1953 1360 945 786 985 1351 942 566 149 188 222 248 131 49 43 94 48 30 22 9 0 0 0 0 0 0 0 0
1132 1283 1513 1987 2360 2568 2594 2715 2747 2725 2606 2337 2085 1819 1669 1585 1204 931 924 559 608 482 288 102 81 35 41 2 0 43 51 15 5 2 0 0 0 0 0 0 0 0 0
795 1009 1110 1295 1917 2337 2538 2687 2806 2806 2626 2266 1794 1494 1297 1010 668 710 625 779 394 319 126 56 34 43 10 1 1 1 0 0 0 0 0 0 0 0 0 0 0 0 0
532 724 1006 1137 1541 2207 2563 2779 2889 2818 2458 1902 1426 1114 774 576 409 108 31 54 50 67 8 13 50 2 0 0 0 0 0 0 0 0 0 0 0 0 0 0 0 0 0
1401 1215 1209 1419 1716 1183 385 405 1659 1472 1887 1163 887 663 467 6 0 49 37 95 106 24 0 0 0 0 0 0 0 0 0 0 0 0 0 0 0 0 0 0 0 0 0
2465 2431 2132 1336 922 667 446 192 66 125 398 192 29 26 0 0 2 10 89 76 9 0 0 0 0 0 0 0 0 0 0 0 0 0 0 0 0 0 0 0 0 0 0
1717 1150 802 644 598 474 502 188 18 0 0 0 23 30 30 11 26 89 77 0 0 1 0 0 0 0 0 0 0 0 0 0 0 0 0 0 0 0 0 0 0 0 0
843 616 509 278 144 100 49 1 0 0 0 0 0 0 0 8 0 0 0 0 0 0 0 0 0 0 0 0 0 0 0 0 0 0 0 0 0 0 0 0 0 0 0
278 255 78 0 13 0 0 0 0 0 0 0 1 0 0 0 0 0 0 0 0 0 0 0 0 0 0 0 0 0 0 0 0 0 0 0 0 0 0 0 0 0 0
103 64 2 17 5 0 0 0 0 0 0 0 0 0 0 0 0 0 0 0 0 0 0 0 0 0 0 0 0 0 0 0 0 0 0 0 0 0 0 0 0 0 0
80 7 12 21 5 0 0 0 0 0 0 0 0 0 0 0 0 0 0 0 0 0 0 0 0 0 0 0 0 0 0 0 0 0 0 0 0 0 0 0 0 0 0
0 22 39 17 6 4 6 1 0 0 0 0 0 0 0 0 0 0 0 0 0 0 0 0 0 0 0 0 0 0 0 0 0 0 0 0 0 0 0 0 0 0 0
0 0 0 6 24 2 21 0 0 0 0 0 0 0 0 0 0 0 0 0 0 0 0 0 0 0 0 0 0 0 0 0 0 0 0 0 0 0 0 0 0 0 0
0 0 3 2 28 14 8 4 0 0 0 0 0 0 0 0 0 0 0 0 0 0 0 0 0 0 0 0 0 0 0 0 0 0 0 0 0 0 0 0 0 0 0
0 0 0 0 0 0 0 0 1 3 0 1 0 0 0 0 0 0 0 0 0 0 0 0 0 0 0 0 0 0 0 0 0 0 0 0 0 0 0 0 0 0 0
10 11 1 0 0 0 2 24 15 3 22 3 0 0 0 0 0 0 0 0 0 0 0 0 0 0 0 0 0 0 0 0 0 0 0 0 0 0 0 0 0 0 0

GFSGL_con_mlcape_042.txt.gz
CAPE
326 482 543 544 568 534 539 491 498 480 421 350 669 805 782 779 424 344 152 40 2 0 0 0 0 0 0 0 0 0 0 0 0 0 0 0 0 0 0 0 0 0 0
241 526 627 644 655 554 525 525 519 556 458 316 576 737 698 722 444 440 303 104 52 22 0 0 0 0 0 0 0 0 0 0 0 0 0 0 0 0 0 0 0 0 0
317 461 643 718 719 643 604 681 641 642 554 326 494 683 690 720 514 375 366 231 128 89 45 0 0 0 0 0 0 0 0 0 0 0 0 0 0 0 0 0 0 0 0
343 491 542 662 692 720 777 843 898 824 714 451 530 731 750 698 584 471 400 344 255 162 116 36 0 0 0 0 0 0 0 0 1 4 0 6 0 0 0 0 0 0 0
405 519 641 655 656 679 718 838 987 1079 975 751 504 704 668 668 628 563 475 431 350 313 240 154 20 0 0 0 0 0 0 1 0 3 5 0 2 2 0 0 0 0 0
466 482 682 821 835 781 763 741 800 985 1161 1073 893 721 751 793 717 660 658 574 481 467 432 362 230 38 0 0 0 0 0 0 1 2 14 8 1 0 0 0 0 0 0
510 584 735 894 986 1000 958 877 805 810 979 1137 1094 986 803 980 963 841 777 790 798 698 647 528 213 91 71 9 1 0 0 4 1 3 12 4 2 16 4 0 0 0 0
645 716 902 1044 1073 1181 1178 1139 1085 958 848 929 1115 1142 1108 1065 950 895 938 1010 807 794 674 434 352 259 182 129 105 45 38 48 8 3 6 3 0 1 2 0 0 0 0
843 1017 1074 1213 1214 1255 1392 1440 1418 1361 1261 1152 1143 1182 1132 1118 815 756 740 845 721 825 619 542 563 405 210 199 133 102 27 58 0 2 0 0 0 0 1 0 0 1 0
915 1109 1241 1318 1379 1385 1477 1638 1715 1725 1709 1681 1540 1389 1314 1304 849 792 755 846 901 878 761 579 563 656 357 77 125 31 200 77 9 1 3 0 0 0 0 0 0 0 0
769 1156 1411 1613 1665 1716 1718 1742 1856 1909 2050 2051 1965 1848 1501 1356 1182 824 794 931 1028 995 547 623 458 370 133 36 131 267 265 46 25 12 0 0 0 0 0 0 0 0 0
787 1193 1403 1646 1878 2014 2022 2076 2127 2102 2124 2234 2230 2105 1614 1492 1283 674 699 929 665 613 658 498 171 128 45 42 36 87 14 13 4 0 0 0 0 0 0 0 0 0 0
900 1096 1474 1765 1987 2204 2340 2439 2482 2488 2448 2486 2427 2186 1827 1492 828 802 576 502 349 228 265 114 13 2 10 0 0 0 1 4 0 0 0 0 0 0 0 0 0 0 0
500 699 931 1151 1706 2216 2539 2598 2632 2641 2599 2470 2367 2116 1566 1058 472 205 64 141 136 159 9 0 2 0 0 0 0 0 0 0 0 0 0 0 0 0 0 0 0 0 0
955 857 886 896 725 799 1008 1539 1860 1126 2360 2150 1905 1181 731 367 9 0 2 4 85 14 8 0 0 0 0 0 0 0 0 0 0 0 0 0 0 0 0 0 0 0 0
1980 1675 1099 614 456 770 784 230 40 30 0 0 0 0 0 0 0 0 0 19 6 0 23 52 15 0 0 0 0 0 0 0 0 0 0 0 0 0 0 0 0 0 0
1838 1462 1085 847 654 698 584 310 17 0 0 0 0 0 0 0 0 0 0 0 0 23 41 13 9 0 0 0 0 0 0 0 0 0 0 0 0 0 0 0 0 0 0
1157 1007 996 773 443 246 128 95 0 0 0 0 0 0 0 0 0 0 0 0 0 1 0 0 0 0 0 0 0 0 0 0 0 0 0 0 0 0 0 0 0 0 0
491 494 503 486 409 301 161 66 25 0 0 0 0 0 0 0 0 0 1 3 2 1 0 0 0 0 0 0 0 0 0 0 0 0 0 0 0 0 0 0 0 0 0
320 183 51 10 55 5 0 0 0 0 0 0 0 0 0 1 4 3 0 0 0 0 0 0 0 0 0 0 0 0 0 0 0 0 0 0 0 0 0 0 0 0 0
50 0 0 0 0 0 0 0 0 2 0 0 0 2 3 0 0 0 0 0 0 0 0 0 0 0 0 0 0 0 0 0 0 0 0 0 0 0 0 0 0 0 0
28 0 0 0 0 0 0 0 0 0 0 0 0 0 0 0 0 0 0 0 0 0 0 0 0 0 0 0 0 0 0 0 0 0 0 0 0 0 0 0 0 0 0
11 10 0 0 0 0 0 0 0 0 0 0 0 0 0 0 0 0 0 0 0 0 0 0 0 0 0 0 0 0 0 0 0 0 0 0 0 0 0 0 0 0 0
7 0 3 0 3 0 0 0 0 0 0 0 0 0 0 0 0 0 0 0 0 0 0 0 0 0 0 0 0 0 0 0 0 0 0 0 0 0 0 0 0 0 0
0 10 26 24 11 1 0 0 0 0 0 0 3 0 0 0 0 0 0 0 0 0 0 0 0 0 0 0 0 0 0 0 0 0 0 0 0 0 0 0 0 0 0
4 0 0 0 0 0 0 0 2 0 0 0 0 0 0 0 0 0 0 0 0 0 0 0 0 0 0 0 0 0 0 0 0 0 0 0 0 0 0 0 0 0 0

GFSGL_con_mlcape_045.txt.gz
CAPE
473 539 634 700 805 868 925 932 914 975 1064 1121 1015 1361 1590 1423 1426 1344 1071 706 311 230 64 33 0 0 0 0 0 0 0 0 0 0 0 0 0 3 9 43 54 54 3
480 585 647 786 898 871 915 990 989 913 1038 1129 1118 1072 1377 1501 1413 1273 1226 791 549 383 180 65 0 0 0 1 0 0 0 0 0 0 0 0 0 15 32 12 1 0 0
574 625 769 837 920 925 958 1074 1139 1020 1053 1087 1186 1139 1072 1354 1350 1244 1283 1008 691 550 368 209 58 5 0 3 0 0 0 1 0 0 0 0 0 0 0 0 0 0 0
611 647 743 874 939 959 1071 1155 1178 1123 1033 1053 1108 1185 1151 1173 1362 1246 1188 1136 859 685 536 404 293 101 1 0 8 4 4 3 9 2 0 0 6 18 8 0 0 2 6
678 701 759 938 1056 1162 1246 1213 1258 1289 1177 1103 1057 1155 1221 1109 1223 1240 1127 1114 967 816 724 563 444 322 114 5 0 11 3 7 19 4 0 0 0 0 3 28 26 13 1
598 643 807 1054 1180 1164 1292 1328 1339 1340 1370 1344 1159 1122 1195 1083 1000 938 1236 1174 1077 995 988 838 628 238 131 33 0 7 75 60 73 20 0 0 4 10 15 39 29 41 18
580 674 895 1085 1137 1261 1351 1413 1408 1471 1612 1468 1381 1246 1208 1250 733 644 780 1273 1274 1270 1161 1113 920 471 244 156 16 0 0 2 87 365 150 184 104 78 46 2 13 3 40
630 787 1015 1149 1186 1345 1364 1330 1381 1487 1523 1686 1609 1524 1362 1352 912 577 606 1024 1384 1436 1331 1281 1126 747 455 418 254 227 21 66 26 36 238 417 293 41 11 33 60 39 64
664 801 1000 1106 1210 1438 1433 1356 1428 1432 1434 1494 1729 1770 1656 1556 1053 745 611 899 1291 1600 1447 1298 1094 862 742 220 449 542 308 372 168 33 42 61 0 1 0 1 0 1 5
741 822 1069 1195 1314 1382 1445 1564 1646 1592 1483 1487 1575 1826 1881 1840 1428 787 695 1076 1184 1397 1222 1051 646 768 461 234 301 378 546 488 144 30 0 0 0 0 0 2 47 29 33
912 1216 1366 1463 1442 1568 1743 1835 1920 1942 1916 1906 1772 1758 1737 1716 1774 851 638 1114 1343 1191 836 647 490 249 219 83 188 442 464 458 223 200 38 5 12 12 2 1 2 0 0
1032 1329 1694 1814 1820 1868 1811 1841 1976 2017 1821 1641 2359 2288 2070 1914 1415 666 572 751 1265 1009 744 460 432 259 201 81 10 111 122 233 260 158 28 16 6 1 0 0 0 0 0
782 1117 1652 1969 2129 2201 2221 2157 2203 2135 1954 1290 2215 2414 2326 1960 1720 977 719 520 621 700 542 286 375 191 25 0 2 56 64 118 39 65 77 12 0 0 0 0 0 0 0
963 1293 1657 1864 2103 2379 2550 2588 2584 2715 2604 2499 2410 2409 2401 2037 1514 691 353 85 46 73 0 0 0 37 35 11 0 0 30 70 126 12 1 0 0 0 0 0 0 0 0
1175 1388 1539 1968 2093 2006 1682 2145 3013 3048 2929 2920 2684 2469 1769 1177 349 153 198 44 80 10 4 0 1 57 1 4 0 0 1 2 2 0 0 0 0 0 0 0 0 0 0
1387 1248 827 702 843 838 993 981 422 1254 2031 1973 1182 993 158 97 0 0 0 0 0 0 0 3 0 0 5 1 1 1 2 2 0 0 0 0 0 0 0 0 0 0 0
1342 868 530 619 536 601 690 595 425 6 1 4 0 0 0 0 0 0 0 0 0 0 0 0 8 12 2 3 1 0 0 0 3 0 0 0 0 0 0 0 0 0 0
1133 976 980 964 821 709 582 287 123 27 0 0 0 0 0 0 0 0 0 0 0 1 7 0 0 4 3 1 0 0 0 1 0 0 0 0 0 0 0 0 0 0 0
741 768 714 608 493 316 60 1 0 0 5 0 0 0 0 0 0 0 0 0 1 0 13 14 1 2 0 0 0 0 0 0 0 0 0 0 0 0 0 0 0 0 0
95 134 228 255 214 256 187 83 13 1 0 0 0 0 0 0 0 0 1 2 2 0 1 6 2 0 0 0 0 0 0 0 0 0 0 0 0 0 0 0 0 0 0
7 1 1 40 66 119 63 2 0 0 0 0 0 0 0 0 0 3 1 2 0 2 1 0 0 0 0 0 0 0 0 0 0 0 0 0 0 0 0 0 0 0 0
1 11 21 12 0 0 0 0 0 0 0 0 0 1 3 3 2 3 1 1 0 0 0 0 0 0 0 0 0 0 0 0 0 0 0 0 0 0 0 0 0 0 0
167 91 32 6 2 0 3 4 4 5 3 4 4 2 0 0 0 0 0 0 0 0 0 0 0 0 0 0 0 0 0 0 0 0 0 0 0 0 0 0 0 0 0
171 250 228 75 11 5 1 0 1 1 4 2 0 0 0 0 0 0 0 0 0 0 0 0 0 0 0 0 0 0 0 0 0 0 0 0 0 0 0 0 0 0 0
34 66 83 51 30 10 6 0 0 4 2 3 0 0 0 0 0 0 0 0 0 0 0 0 0 0 0 0 0 0 0 0 0 0 0 0 0 0 0 0 0 0 0
0 12 40 16 22 16 1 0 0 0 0 0 0 0 0 0 0 0 0 0 0 0 0 0 0 0 0 0 0 0 0 0 0 0 0 0 0 0 0 0 0 0 0

GFSGL_con_mlcape_048.txt.gz
CAPE
1555 1628 1707 1688 1686 1881 1712 1912 1989 1975 2053 1910 1680 1544 1532 1954 2463 2532 2286 1788 1801 1278 670 467 520 5 0 0 0 0 0 0 0 0 0 0 10 24 0 0 3 0 12
1520 1728 1631 1672 1720 1677 1827 1939 2078 2005 2219 2249 2119 1910 1655 1848 2420 2514 2335 1767 1852 1520 1022 671 550 212 103 16 14 7 0 4 0 0 0 0 45 34 76 150 7 0 0
1534 1533 1686 1673 1655 1741 1924 2006 2110 2082 2189 2134 2285 2277 1971 1695 1964 2357 2251 2117 1904 1754 1269 1083 661 404 232 17 17 4 4 17 26 0 0 4 0 54 118 117 51 0 0
1303 1464 1656 1851 1588 1704 2022 2100 2115 2228 2209 2241 2318 2422 2230 2139 1899 1893 2113 2124 2150 1871 1623 1209 991 635 365 277 145 125 30 10 32 9 0 0 9 2 33 8 72 40 2
1335 1485 1599 1841 2043 2010 2074 2173 2274 2330 2344 2265 2279 2390 2357 2138 1789 1881 2019 2083 2236 2139 1785 1467 1164 946 624 541 251 251 78 77 5 40 3 0 8 6 42 3 20 28 100
1412 1523 1691 1957 2182 2072 2134 2244 2332 2340 2465 2468 2326 2317 2191 2054 1592 1226 1862 2043 2160 2310 2195 1852 1499 1040 824 461 313 226 213 20 9 5 12 5 25 28 53 29 42 51 89
1373 1656 1836 2017 2133 2214 2233 2281 2324 2367 2404 2443 2383 2360 2294 2360 1663 1260 1120 1887 2050 2257 2380 2237 1841 1479 1098 944 253 85 52 48 91 359 168 258 146 230 253 196 340 129 75
1422 1552 1916 2046 2090 2261 2323 2302 2425 2498 2394 2557 2574 2515 2492 2511 2028 1319 1061 1398 1851 2252 2450 2399 2266 1948 1622 1251 806 239 170 69 91 136 322 520 590 777 648 438 218 165 180
1489 1427 1771 2029 2078 2258 2276 2286 2606 2439 2512 2483 2472 2604 2763 2619 2121 1515 1137 1413 1659 2050 2550 2549 2441 2382 2098 996 1080 765 260 238 288 100 118 248 359 319 253 225 49 81 55
1469 1520 1860 2103 2267 2231 2315 2512 2477 2448 2336 2278 2286 2510 2682 2747 2646 1796 1178 1485 1495 1681 2073 2351 1900 2166 1905 1011 919 911 724 769 589 254 117 27 16 1 0 46 62 6 50
1661 1755 2046 2342 2455 2501 2603 2567 2479 2403 2239 2302 2237 2350 2397 2428 2415 1881 1478 1508 1158 986 1502 1890 2228 1371 1084 744 481 638 663 851 552 495 172 227 135 70 5 1 34 36 19
1837 1831 2143 2483 2387 2186 2602 2615 2615 2610 2562 2454 2438 2227 1997 1112 1458 1228 506 1436 1375 1335 1411 1085 1701 1159 496 241 98 127 352 367 435 301 331 244 152 42 16 27 26 0 0
1870 2129 2385 2530 2523 2248 2633 2693 2576 2654 2410 2516 2455 2355 2073 1755 851 887 1226 1217 1187 1153 1539 1509 780 386 195 41 0 0 45 392 306 268 321 270 106 43 13 2 0 0 0
2068 2158 2432 2760 2825 2712 2620 2706 2652 2598 2680 2464 2300 2092 1293 582 2319 2483 1728 919 488 235 25 7 40 12 25 0 0 0 59 303 285 219 298 167 60 0 0 0 0 0 0
2093 2352 2619 2761 2703 3000 2568 2434 2947 2851 2683 2843 2857 2750 2356 2814 3100 2077 1690 946 444 65 25 1 2 0 0 0 0 0 4 55 182 220 149 30 3 0 0 0 0 0 0
2624 2694 2691 2763 2956 3073 2374 1713 292 936 1744 1904 2502 3050 2469 1965 859 904 823 506 200 1 3 2 0 0 0 0 0 5 44 30 77 44 4 2 0 0 0 0 0 0 0
2315 2128 1919 1874 1592 1611 1971 2222 1778 268 175 429 524 807 833 289 3 1 0 0 0 1 0 0 0 1 8 5 0 0 1 2 58 28 16 1 0 0 0 0 0 0 0
1212 1094 1582 1194 1564 1842 1908 1731 988 843 533 6 0 0 0 0 0 0 0 0 1 0 4 25 54 19 4 2 0 3 4 16 78 30 5 0 0 0 0 1 2 0 0
1189 1192 1105 1026 1136 906 1055 887 454 91 23 2 0 0 0 0 0 0 0 14 3 1 23 11 2 7 17 11 26 43 43 24 5 6 2 0 0 1 4 2 0 0 0
474 510 793 595 352 227 114 100 70 50 27 0 1 3 0 0 0 0 1 4 2 2 14 16 15 2 2 6 45 71 11 1 2 0 0 0 1 0 0 0 0 0 0
352 229 311 445 329 245 225 161 177 381 239 1 2 2 3 3 3 1 4 3 0 1 8 0 0 2 3 2 1 0 0 0 0 0 1 1 0 0 0 0 0 0 0
235 272 351 360 286 156 66 29 1 0 2 2 3 0 0 3 10 8 3 1 0 0 14 19 17 13 4 0 0 0 0 0 0 0 0 0 0 0 0 0 0 0 0
312 249 219 161 68 30 23 0 2 3 3 1 4 2 1 3 0 0 1 26 16 13 5 2 0 0 0 0 0 0 0 0 0 0 0 0 0 0 0 0 0 0 0
238 209 212 223 180 105 5 4 0 0 3 1 2 0 9 26 9 8 5 0 0 0 0 0 0 0 0 0 0 0 0 0 0 0 0 0 0 0 0 0 0 0 0
123 144 88 28 22 25 22 16 18 2 0 0 2 1 12 7 5 5 0 0 0 0 0 0 0 0 0 0 0 0 0 0 0 0 0 0 0 0 0 0 0 0 0
28 16 87 41 30 14 10 4 2 4 8 0 8 22 11 20 19 7 0 0 0 0 0 0 0 0 0 0 0 0 0 0 0 0 0 0 0 0 0 0 0 0 0

GFSGL_con_mlcape_054.txt.gz
CAPE
2548 2738 2688 2680 2921 2129 1464 1859 1195 1404 1341 1720 2487 2521 2175 2209 2097 2577 2582 2476 2191 2302 1901 1545 1388 631 410 106 52 81 56 24 24 27 286 194 26 11 10 46 2 0 0
2692 2823 2824 2822 2936 2841 2101 1895 2085 2088 2683 1873 2113 2514 2286 2115 2208 2614 2596 2163 2677 2586 2200 1735 1900 1376 617 352 556 58 82 135 92 103 350 228 99 34 43 96 72 23 2
2599 2959 2943 2895 2975 2997 2900 2257 2428 2534 2276 3125 2929 2266 2414 2295 2209 2386 2735 3010 2391 2735 2876 2348 1513 1727 1192 428 191 353 221 256 502 194 319 357 313 401 175 127 249 236 170
2183 2808 3016 3004 3100 3188 3129 2985 2673 2506 2942 2601 2999 3066 2608 2712 2410 2463 2736 2997 3041 2675 2931 2935 2408 1698 1392 1267 430 19 248 371 144 252 219 140 340 320 247 271 276 369 276
1998 2458 2856 2969 3027 3096 3124 3120 3211 3080 2789 3190 3097 3102 3192 2907 2909 2542 2542 2948 3213 3127 2728 2998 2844 2370 1747 1526 1321 557 84 113 519 278 247 286 102 283 175 205 208 270 371
2001 2131 2667 2891 3053 3205 3207 3226 3156 3291 3263 3213 3395 3356 3117 3340 3102 2746 2666 2691 3155 3168 3151 2750 2944 2656 2211 1647 1401 1117 676 110 125 363 324 221 128 75 206 160 205 265 134
2053 2323 2555 2879 3016 3187 3444 3361 3349 3268 3417 3267 3404 3444 3313 3383 3154 2723 2458 2690 2737 2925 3130 3115 2859 2922 2506 2097 1461 1201 896 592 253 171 128 202 160 142 192 340 240 174 121
1997 2329 2656 2907 3044 3281 3423 3630 3545 3496 3414 3525 3484 3591 3479 3557 3284 2838 2352 2506 2702 2762 2837 3160 3129 2857 2864 2511 1991 1403 998 712 378 401 331 173 259 287 384 358 215 171 246
2407 2413 2387 2822 3211 3344 3499 3666 3825 3727 3751 3660 3754 3613 3593 3508 3293 3100 2690 2409 2421 2505 2827 2926 3090 3114 2949 2536 2262 1896 1484 849 499 250 224 181 191 21 2 17 163 257 186
2151 2391 2796 2601 3078 3406 3534 3744 3922 3968 3839 3930 3846 3783 3708 3664 3673 3068 2857 3070 2698 2279 2557 2727 2680 2967 2939 2538 2383 2042 1853 1557 772 259 81 34 11 12 7 84 76 130 160
2241 2667 2643 2817 2887 3420 3667 3805 3980 4048 3952 3835 3799 3868 3927 3924 3971 3328 2822 3206 3013 2823 2670 2467 2606 2546 2313 2377 2307 2460 2100 1921 1109 347 99 75 10 1 11 4 96 124 148
2486 2741 2734 3144 2922 3402 3693 3853 4042 4113 3997 3904 3952 3775 3853 3979 3795 3433 2936 2781 2924 2832 2818 2836 2757 2511 2275 2005 1874 2347 2403 1884 816 296 146 62 18 7 23 26 34 139 147
2570 2696 2868 3150 3552 3111 3649 3843 4050 4121 4080 4032 3726 4003 3826 3631 3973 3464 2940 2518 2396 2400 2375 2293 1972 2021 1601 1442 1296 1357 1414 1508 655 187 145 102 14 50 72 52 59 126 80
3013 3006 3218 3468 3615 3655 3443 3938 4114 4058 4050 3781 3738 3503 3535 3762 3267 3684 3070 2183 1947 2040 2181 2246 1647 1453 1257 1217 686 253 978 1219 677 356 233 121 55 52 80 93 72 93 2
3858 3709 3694 3742 3832 4115 2807 2320 3759 3452 2928 3851 3479 3550 3451 3277 3232 2859 3248 2636 2291 2040 2097 2011 1288 1106 1234 1151 928 714 538 628 521 172 125 106 72 100 102 81 72 10 0
2987 3629 3688 3404 3723 3807 2333 1005 4 344 608 1247 2241 2775 1703 1716 1950 1448 1750 1669 1433 1605 1668 1575 1507 1189 955 677 592 446 179 28 1 0 27 33 86 36 44 48 9 0 0
3519 3198 3119 3031 3214 3454 2743 2067 1375 68 55 303 564 914 1317 980 913 968 952 861 965 1285 1386 828 507 100 36 24 3 3 3 2 18 30 53 48 41 42 37 12 0 0 0
3320 2828 3089 2781 3009 3528 3607 3022 2138 1659 1801 686 0 0 0 0 0 0 0 0 0 0 0 0 0 0 1 0 0 0 0 0 11 30 6 24 29 20 14 0 0 0 0
3454 3154 3230 3194 3386 3407 3175 2919 2697 2572 1119 182 0 0 0 0 0 0 0 0 0 0 0 0 1 0 0 0 0 0 0 1 0 10 6 20 21 3 0 0 0 0 0
1915 2071 2442 2388 2395 2298 2090 1793 1452 1167 687 313 263 0 0 0 0 0 0 0 0 0 0 0 0 0 0 0 0 1 3 3 1 1 1 14 2 0 0 0 0 0 0
1350 1570 1519 1689 1499 1251 1069 814 715 672 519 423 241 0 0 0 0 0 0 1 1 4 1 6 1 1 3 2 0 0 0 0 4 0 0 0 0 0 0 0 0 0 0
1033 1183 1197 1062 825 792 706 595 581 257 111 8 0 0 0 0 1 0 0 4 4 5 7 4 1 5 2 1 1 5 3 8 2 1 1 0 2 0 7 6 0 0 0
637 541 421 287 177 70 64 38 60 6 0 0 0 0 0 3 4 1 1 1 6 2 10 14 6 1 0 0 2 7 10 9 14 12 1 3 0 0 0 0 0 0 0
1 0 0 0 6 4 1 0 0 3 13 7 6 2 3 0 8 7 10 9 2 2 3 37 37 0 6 6 3 0 4 6 2 0 2 18 6 0 0 0 0 0 0
0 0 0 0 0 0 0 5 0 0 0 0 0 0 31 9 11 28 86 37 34 17 18 10 1 17 14 2 2 0 0 0 10 5 0 0 0 0 0 0 0 0 0
0 0 0 0 0 0 1 1 2 2 1 0 0 0 0 0 0 10 25 21 11 1 1 2 0 0 0 0 0 0 0 0 0 0 0 0 0 0 0 0 0 0 0

GFSGL_con_mlcape_057.txt.gz
CAPE
1421 1160 1524 1794 1456 753 1329 1424 392 188 734 2305 1991 1949 1674 1510 1910 2098 1620 1776 2191 2041 1889 1606 1109 621 10 33 85 57 26 7 1 1 27 15 0 60 0 0 0 0 0
1350 1656 1396 1780 2356 1798 1034 1069 1452 593 312 856 2174 2358 1919 1626 1684 1785 1910 1906 1674 1885 2078 1744 1525 1295 881 45 174 34 13 32 2 0 11 259 8 0 0 0 13 24 10
1468 1567 1955 1741 1917 2393 2103 1316 1093 1331 900 638 820 1960 2216 1958 1904 1656 1494 2075 2073 2275 2150 2009 1635 1508 1144 925 257 203 80 0 33 22 1 126 42 30 18 13 15 28 57
1349 1733 1793 2206 2261 2278 2574 2316 1531 1429 1419 1382 1535 1320 2128 2175 1931 1856 1873 1637 1793 1708 2084 2525 2234 1830 1602 1333 849 207 103 203 89 147 121 143 180 88 6 16 48 92 85
1734 1868 2022 2233 2485 2451 2377 2574 2471 1668 1911 1792 1602 2375 2311 2297 2204 2014 1925 1996 2058 2014 1831 2208 2426 2387 1999 1660 1356 817 143 30 211 105 53 77 62 114 132 62 13 22 120
1013 2024 2255 2592 2617 2570 2601 2585 2769 2681 1992 2089 2512 2058 2392 2605 2579 2211 2191 2205 2224 2222 2198 2303 2357 2471 2379 2048 1714 1374 870 214 0 45 100 33 35 19 38 37 74 104 101
1380 1399 2219 2577 2737 2783 2867 2877 2847 2822 2868 2632 2295 2688 2599 2701 2579 2392 2344 2388 2359 2478 2457 2497 2578 2583 2562 2522 1925 1696 1434 968 478 43 13 37 55 93 71 79 79 81 56
1443 1754 1759 2347 2710 2815 2858 2954 2890 2924 2941 2973 2958 2774 2852 2979 2821 2478 2402 2682 2626 2484 2613 2870 2868 2841 2718 2593 2515 2037 1696 1343 902 506 127 101 128 180 117 135 186 90 64
1972 1899 2013 2355 2656 2865 2857 2959 3058 3052 3072 3015 3131 3125 3050 3077 2896 2795 2535 2713 2791 2743 2688 2704 2889 3098 3006 2594 2627 2473 2107 1747 1017 617 497 256 160 152 153 71 62 62 52
2037 2398 2543 2491 2664 2763 3007 3057 3264 3251 3191 3249 3186 3273 3247 3132 3192 2879 2766 2953 2700 2643 2639 2620 2588 2679 2773 2776 2808 2697 2506 2157 1564 798 455 296 192 102 36 16 3 16 15
2363 1878 2172 2626 2794 3044 3064 3249 3316 3484 3538 3448 3434 3393 3406 3532 3500 3100 2838 3127 3130 2961 2703 2523 2420 2242 2279 2445 2591 2948 2783 2507 1939 1241 662 323 109 107 23 0 0 8 9
1052 2426 2392 2452 2766 3172 3333 3426 3534 3591 3648 3676 3606 3580 3679 3736 3569 3382 2927 2908 3282 3286 3207 3003 2739 2546 2221 2051 1952 2119 2388 2460 2309 1458 846 462 160 72 30 20 0 163 32
815 1924 2536 2533 2672 2645 3220 3529 3635 3722 3731 3734 3712 3716 3692 3651 3747 3567 3176 3016 3073 3360 3403 3245 2912 2499 2113 1745 1389 1185 884 1437 2026 1770 1181 653 194 54 5 4 1 4 12
1247 2124 3144 2956 2908 2733 2979 3342 3660 3799 3882 3856 3858 3802 3673 3757 3776 3571 3188 2595 2464 2599 2657 2893 2492 2058 1680 1501 1245 883 758 891 1248 1431 1071 633 42 6 2 2 15 16 6
1237 2046 2489 3284 3039 3181 2195 2300 3513 3349 3359 3890 3856 3724 3715 3478 3374 3411 3431 2752 2762 2717 2550 2338 2087 1931 1959 1668 1178 786 525 574 876 865 527 72 2 6 10 13 13 0 0
2809 1989 3850 3734 3522 3077 2179 1338 138 772 1019 1967 3189 3649 2253 2315 1994 2188 2540 2582 2554 2274 2112 2302 2246 1925 1393 949 726 373 134 109 94 42 7 1 4 1 6 22 2 0 0
3607 3318 2728 3819 3793 3147 2475 2248 1975 337 37 650 1080 1542 2244 1391 1055 1063 1066 940 920 1227 1448 1266 1092 875 613 173 25 1 12 1 0 0 1 0 0 1 7 2 0 0 0
2613 3547 3345 3149 3309 3226 2769 2405 1994 1812 1874 1254 12 272 256 400 507 546 616 985 1281 1032 948 788 441 17 0 0 0 0 0 0 0 1 3 1 5 8 1 0 0 0 0
3116 3656 3200 2933 2859 3209 2879 2122 1786 1481 820 330 0 0 0 0 0 0 0 40 38 0 0 0 0 0 0 0 0 0 0 0 0 6 5 5 0 3 0 0 0 0 0
2056 2614 2838 2913 2943 3013 3037 2616 1628 879 446 123 6 0 0 0 0 0 0 0 0 0 0 0 0 0 0 0 0 0 0 1 0 1 0 2 1 0 0 0 0 0 0
1736 1938 1817 1680 1782 1768 1622 1447 971 584 310 45 0 0 0 0 0 0 0 0 0 0 0 0 0 0 0 0 0 1 0 0 0 0 0 0 0 0 0 0 0 0 0
1506 1503 1108 964 821 742 706 576 446 208 119 0 0 0 0 0 0 0 0 0 0 0 0 0 0 0 0 0 0 0 0 0 0 0 0 0 0 0 0 0 0 0 0
1121 1222 733 641 390 239 215 158 24 0 0 0 0 0 0 0 0 0 0 0 0 0 0 0 0 0 0 0 0 0 0 0 0 0 0 0 0 0 0 0 0 0 0
37 6 0 0 1 0 0 0 0 0 0 0 0 0 0 0 0 0 0 0 1 0 0 0 0 0 0 0 0 0 0 2 1 0 1 7 2 1 0 0 0 0 0
0 0 0 0 0 0 0 0 0 0 0 0 0 0 0 0 0 0 1 13 9 6 13 13 29 10 8 11 0 0 0 0 0 6 1 2 16 10 4 0 0 0 0
0 0 0 0 0 0 0 0 0 0 0 0 1 0 0 0 0 0 0 0 0 0 0 0 0 2 0 0 0 0 0 0 0 3 7 0 0 0 0 0 0 0 0

GFSGL_con_mlcape_060.txt.gz
CAPE
396 603 567 433 254 444 1005 630 190 187 456 643 852 1238 1312 1539 1453 1399 1230 1258 1489 1639 1651 1381 986 641 44 6 0 0 0 0 0 0 0 2 0 0 0 0 0 0 0
467 482 638 771 742 396 292 964 932 491 147 257 1310 1572 1228 1346 1670 1479 1309 1381 1474 1574 1795 1652 1474 1337 948 89 8 0 0 0 0 0 0 0 2 0 0 3 0 0 0
691 675 690 882 1011 958 635 411 753 874 610 254 496 1061 1904 1787 1605 1579 1555 1508 1541 1428 1631 1696 1492 1586 1328 1140 492 10 0 3 0 0 0 1 10 8 8 8 0 0 0
969 1011 863 818 1231 1501 1331 950 571 640 899 783 499 637 1273 1896 1840 1506 1422 1619 1622 1393 1416 1459 1497 1594 1569 1459 1212 810 325 26 9 24 2 4 18 28 3 0 0 7 18
1031 1077 1063 1109 1056 1417 1723 1645 1276 868 797 861 876 887 1014 1265 1630 1807 1593 1457 1476 1536 1543 1643 1841 1914 1739 1774 1616 1368 1085 732 304 30 34 34 36 64 45 8 0 0 2
927 984 1088 1274 1505 1370 1468 1725 1898 1690 1330 1216 1115 1096 1202 1317 1516 1580 1800 1792 1688 1557 1489 1489 1474 1568 1706 1649 1773 1806 1597 1175 853 441 111 18 41 43 56 43 22 2 8
943 963 1222 1404 1535 1775 1800 1835 1901 1934 1817 1509 1534 1374 1099 1585 1806 1766 1762 1942 1874 1904 1909 1904 1911 1992 1836 1908 1614 1569 1603 1535 1483 1051 540 272 129 32 23 32 63 43 42
754 1220 1345 1605 1761 1909 2080 2095 2110 2197 2270 2116 1755 1787 1943 1837 1754 1828 1910 2102 2158 2102 2098 2124 2146 2183 2318 2239 2281 2207 1838 1704 1370 1070 1074 849 234 160 49 38 36 28 35
668 699 1334 1755 1937 2148 2297 2360 2388 2517 2548 2563 2576 2422 2173 2262 2261 2066 1924 2163 2257 2383 2395 2312 2342 2435 2494 2326 2390 2387 2384 2076 1698 1425 1308 1341 910 316 168 91 79 67 42
926 1031 1084 1413 1969 2171 2304 2453 2588 2678 2693 2769 2772 2821 2828 2733 2540 2275 2265 2597 2469 2460 2513 2585 2470 2459 2392 2462 2638 2721 2705 2559 2352 2023 1398 899 591 473 63 109 186 99 41
1575 1351 1421 1518 1600 2049 2360 2574 2598 2755 2807 2815 2836 2861 2874 2897 2930 2472 2320 2855 2860 2840 2728 2672 2613 2393 2132 2035 2130 2648 2741 2740 2676 2367 1990 1283 840 471 285 115 100 51 8
2254 2165 2125 2113 2036 2213 2387 2579 2736 2798 2956 2959 2961 2992 3017 3018 2903 2702 2498 2611 3049 3070 3056 3003 2904 2600 2264 1970 1718 1864 2012 1931 2254 2447 2222 1710 1103 608 193 20 0 0 2
584 740 1819 2283 2482 2678 2648 2658 2850 3001 3081 3194 3222 3154 3146 3271 3356 3030 2779 2705 2719 3071 3276 3282 3154 2902 2672 2128 1571 1075 936 1126 1212 1325 1674 1875 1287 557 108 3 2 3 6
1015 692 1182 1696 2381 2544 2896 2937 2977 3139 3218 3292 3369 3389 3425 3492 3484 3379 2913 2546 2536 2582 2709 2961 2692 2644 2291 2021 1730 1185 833 704 709 768 864 964 1020 549 69 1 0 0 0
2717 2077 1642 2019 2090 2610 2546 2489 3067 3210 3179 3364 3425 3521 3558 3534 3453 3554 3415 2984 2806 2837 2876 2376 2335 2462 2402 2164 1725 1320 919 510 530 367 299 264 42 2 1 0 0 0 0
1843 2663 2747 2773 2206 2808 2162 1448 161 608 1213 1980 2753 3508 3397 3071 3176 3131 3059 3004 2802 2399 2334 2635 2678 2486 2278 1941 1587 994 408 156 54 6 2 0 0 0 0 0 0 0 0
1096 1028 2017 2626 2976 2731 2534 2071 2020 436 296 797 1548 2859 3035 3074 2121 2136 2111 1883 1680 1913 2581 2386 2320 1968 1353 842 547 160 22 0 2 0 2 0 0 0 1 1 0 0 0
938 1160 1328 1822 2877 2916 2781 2438 2018 2099 2150 1640 467 839 1113 1375 1267 1035 1119 1438 1573 1439 1547 1492 1230 854 621 202 0 0 0 0 0 0 0 0 0 0 0 1 0 0 0
1018 1292 1364 2343 2740 2951 2716 2375 2098 2008 1811 1292 536 240 12 200 412 596 703 1325 1486 1311 993 818 347 15 0 0 0 0 0 0 0 0 0 3 1 2 1 1 0 0 0
1040 1426 1531 2000 2927 2984 2489 2178 2020 1609 1309 967 629 535 1 69 417 181 29 16 26 10 0 0 0 0 0 0 0 0 0 0 0 0 3 6 0 0 0 0 0 0 0
1054 1441 1491 1694 2307 2855 2615 2187 1558 1278 983 541 126 0 0 0 0 0 0 0 0 0 0 0 0 0 0 0 0 0 0 0 0 0 0 0 0 0 0 0 0 0 0
1236 1479 1137 1280 1688 1931 1734 1184 1102 882 440 131 0 0 0 0 0 0 0 0 0 0 0 0 0 0 0 0 0 0 0 0 0 0 0 0 0 0 0 0 0 0 0
1343 1306 714 575 835 847 402 242 166 35 0 0 0 0 0 0 0 0 0 0 0 0 0 0 0 0 0 0 0 0 0 0 0 0 0 0 0 0 0 0 0 0 0
834 589 217 10 0 4 4 0 0 0 0 0 0 0 0 0 0 0 0 0 0 0 0 0 0 0 0 0 0 0 0 0 0 0 0 0 0 0 0 0 0 0 1
0 1 0 0 0 0 0 0 0 0 0 0 0 0 0 0 0 0 0 0 0 0 0 0 0 0 0 0 0 0 0 0 0 0 0 2 8 3 3 0 0 0 0
1 2 2 1 0 0 1 1 2 2 1 1 0 0 0 0 0 0 0 0 0 0 0 0 0 0 0 0 0 0 0 0 0 0 0 0 6 4 2 3 4 0 0

GFSGL_con_mlcape_063.txt.gz
CAPE
264 239 196 213 236 214 165 106 135 37 5 12 218 438 869 1073 1155 1189 1266 1368 1133 1073 1121 1190 1174 1006 711 391 79 0 0 0 0 0 0 0 0 17 11 4 0 0 0
127 189 209 235 283 389 446 179 105 70 89 135 64 325 703 1076 1245 1234 1184 1227 1323 1225 1175 1277 1364 1377 1201 891 532 11 0 0 0 0 0 0 2 4 13 10 9 0 0
35 159 294 280 233 177 271 624 583 315 167 123 313 573 803 915 1012 1196 1207 1237 1225 1244 1189 1171 1188 1432 1416 1322 1205 904 229 9 0 0 0 0 0 0 0 0 0 0 0
158 158 252 423 450 394 273 190 354 575 514 405 327 359 515 755 1287 1518 1503 1472 1333 1277 1289 1418 1427 1232 1156 1293 985 1058 1002 779 317 36 0 0 3 10 2 0 0 0 0
309 327 346 347 486 602 606 539 347 396 519 455 336 337 581 601 706 1048 1657 1613 1507 1362 1329 1357 1491 1479 1150 1198 1101 1023 1063 990 983 824 740 388 251 93 40 8 3 0 0
487 466 452 493 547 689 852 867 842 647 517 621 534 297 285 644 719 667 896 1353 1501 1504 1399 1462 1538 1496 1440 1357 1273 1505 1655 1094 892 877 781 709 548 340 125 83 26 0 0
562 617 717 781 738 742 983 1293 1313 1111 997 705 771 764 556 559 653 697 847 1075 1143 1168 1244 1346 1418 1541 1530 1604 1501 1325 1295 1313 1486 1626 1345 1014 970 604 266 219 123 66 36
578 741 884 949 1016 1150 1098 1144 1326 1547 1472 1230 1018 1084 1080 1052 1041 844 784 1045 1247 1414 1479 1548 1626 1673 1747 1831 1841 1918 1765 1618 1393 1265 1428 1612 1564 1217 464 212 170 108 55
512 711 872 1030 1040 1208 1442 1405 1410 1567 1768 1757 1603 1457 1467 1511 1268 1138 1117 1342 1455 1584 1804 1849 1879 1927 1972 1901 2069 2169 2206 2216 1925 1672 1560 1591 1451 1202 743 310 143 36 24
509 733 902 1000 1157 1324 1378 1561 1680 1885 1859 2041 2189 2216 1929 1839 1815 1616 1355 1625 1716 1854 2004 2125 2097 2127 2073 2025 2166 2299 2437 2471 2411 2303 1846 1511 1270 1299 836 534 485 175 24
417 476 684 1188 1325 1540 1725 1880 2010 2124 2263 2362 2416 2473 2526 2459 2407 1915 1704 2128 2209 2279 2311 2370 2367 2242 2103 2049 2012 2383 2540 2600 2628 2552 2502 2391 1934 1514 1412 975 381 143 136
809 790 815 863 1177 1548 1708 1920 2129 2336 2431 2508 2570 2610 2672 2736 2568 2387 2076 2005 2483 2669 2759 2801 2772 2575 2365 2133 1829 1889 1980 1841 1924 2073 2187 2188 2022 1635 1318 839 430 150 34
1658 1973 1694 1420 1341 1310 1659 1922 2227 2385 2450 2562 2635 2641 2713 2785 2825 2503 2323 2201 2185 2569 2937 3019 2988 2809 2575 2282 1940 1706 1187 1401 1533 1546 1575 1507 1398 1375 1095 553 111 1 1
1611 1461 1841 2082 2264 2101 2021 2086 2276 2494 2563 2632 2762 2815 2882 2943 2998 2952 2448 2262 2100 2146 2140 2564 2481 2547 2477 2508 2042 1636 1337 1102 1184 1257 1032 786 561 538 412 163 14 1 0
1682 1926 2155 2259 2106 2155 2554 2460 2659 2695 2678 2771 2770 2878 2963 3047 3145 3139 3153 2928 2705 2714 2741 2342 2171 2426 2502 2321 2108 1756 1335 986 921 476 344 184 76 14 0 1 1 0 0
1008 1108 1123 1527 2093 2659 2213 1549 371 883 1255 1657 2126 2801 3144 3131 3179 3130 3075 3059 2984 2519 2389 2599 2716 2579 2525 2366 2152 1720 962 574 119 17 2 0 0 1 0 0 0 0 0
148 251 327 585 983 1801 2264 2057 1887 666 183 834 1420 2001 2221 3255 3034 2889 2819 2643 1935 1690 2658 2726 2740 2540 2173 1988 1673 1087 646 21 0 0 0 0 2 1 0 0 0 0 0
126 376 533 780 1006 1391 1692 2224 2002 2209 2390 1772 386 1058 1667 2188 2336 2222 2025 1574 1749 1199 1973 2196 2182 1902 1606 1185 487 287 0 0 0 0 0 0 0 0 0 0 0 0 0
5 282 595 820 1130 1560 2021 2137 2211 2137 2331 1792 746 454 243 562 716 862 936 1987 1926 1713 1467 1403 1109 834 498 165 3 0 0 0 0 0 0 2 2 0 0 0 0 0 0
0 94 470 743 1099 1363 1930 2350 2205 2008 1831 1645 1408 1372 422 574 1288 1154 1044 1070 1275 1265 950 827 453 88 0 0 0 0 0 0 0 0 0 0 2 1 0 0 0 0 0
0 78 401 749 922 1139 1819 1986 1977 1910 1714 1471 1186 520 368 950 954 720 427 192 158 84 0 0 0 0 0 0 1 0 0 0 0 0 0 0 2 2 0 0 0 0 0
0 49 351 1035 1015 1094 1667 1842 1594 1564 1339 1133 650 69 0 0 26 9 0 0 0 0 0 0 0 0 0 0 0 0 0 0 0 0 0 0 0 0 0 0 0 0 0
0 41 443 903 834 877 1099 1292 1037 751 489 301 50 0 0 0 0 0 0 0 0 0 0 0 0 0 0 0 0 0 0 0 0 0 0 0 0 0 0 0 0 0 0
1 388 510 510 412 413 434 427 219 69 8 0 0 0 0 0 0 0 0 0 0 0 0 0 0 0 0 0 0 0 0 0 0 0 0 0 0 0 0 0 0 0 0
67 255 43 0 0 0 3 4 3 0 0 0 0 0 0 0 0 0 0 0 0 0 0 0 0 0 0 0 0 0 0 0 0 0 0 0 0 0 0 0 0 0 0
3 3 3 4 5 4 3 3 3 1 2 4 3 1 0 2 0 0 0 0 0 0 0 0 0 0 0 0 0 0 0 0 0 0 0 0 0 0 0 5 2 0 0

GFSGL_con_mlcape_066.txt.gz
CAPE
13 4 8 43 37 22 3 0 0 0 0 0 22 75 134 272 508 680 867 1095 1253 1312 1120 931 972 965 965 829 537 220 41 0 0 2 0 0 4 7 10 29 14 5 14
91 76 70 66 89 59 45 19 0 0 0 0 1 70 148 287 512 794 957 1100 1161 1278 1360 1255 1147 1104 1126 1235 1178 961 386 68 0 0 0 0 0 11 10 12 13 9 2
128 190 145 157 137 84 82 41 19 36 35 20 5 0 0 43 255 638 1017 1178 1219 1286 1343 1387 1381 1254 1180 1175 1214 1353 1146 917 607 254 40 8 1 0 0 0 0 0 2
103 223 267 280 207 177 168 183 93 45 54 31 75 58 72 149 283 553 839 972 1056 1161 1241 1370 1431 1331 1260 1334 1162 996 1163 1023 754 626 663 590 383 302 36 179 193 18 22
92 162 265 242 197 164 128 178 361 357 198 148 92 96 104 214 322 483 731 998 1296 1472 1421 1437 1452 1460 1325 1343 1506 1369 1053 854 841 526 633 712 500 414 325 396 215 217 187
167 150 126 223 276 256 208 149 106 144 336 369 280 233 145 167 206 266 473 510 669 948 1484 1569 1513 1387 1341 1283 1285 1422 1538 1285 1243 1295 1220 1111 1017 903 751 550 471 261 505
286 216 197 204 298 380 407 444 395 245 237 302 378 384 318 212 99 109 214 605 625 571 681 1068 1459 1540 1443 1541 1336 1217 1264 1282 1398 1704 1755 1654 1543 1354 1333 1188 729 387 539
359 344 345 373 385 401 505 611 664 655 523 389 381 482 509 468 309 169 136 442 731 830 845 747 762 885 1146 1178 1330 1497 1542 1501 1312 1347 1552 1790 1858 1945 1835 1538 1072 678 179
415 466 525 579 576 568 588 652 822 1005 1002 835 749 639 632 694 557 433 427 611 755 896 1108 1182 1223 1196 1289 1252 1564 1742 1882 1988 1885 1572 1586 1677 1566 1481 1269 1059 1082 916 757
463 545 663 748 786 844 820 768 866 1092 1221 1429 1382 1358 1160 1058 1002 781 724 1088 1127 1133 1210 1326 1270 1507 1561 1535 1792 2007 2173 2247 2316 2339 1940 1739 1579 1600 1560 1210 1360 1227 852
339 484 654 771 849 896 991 1164 1307 1341 1438 1557 1656 1750 1797 1597 1635 1360 1134 1383 1531 1645 1707 1810 1909 1752 1649 1667 1646 2141 2286 2443 2538 2489 2557 2515 2324 2097 2065 1922 1290 971 794
285 448 578 706 848 1001 1084 1207 1413 1540 1624 1752 1840 1949 2158 2256 2018 1867 1518 1385 1872 2050 2150 2181 2279 2139 2037 2010 1669 1800 2050 2006 2050 2158 2203 2223 2133 2075 1823 1433 1151 774 355
320 304 479 624 968 1120 1206 1350 1546 1725 1812 1901 2082 2173 2315 2419 2531 2145 1944 1714 1606 2138 2393 2549 2540 2405 2326 2053 1856 1927 1489 1601 1781 1946 2007 2014 1861 1392 967 792 380 17 0
1216 1140 875 788 809 1034 1436 1592 1743 1916 2035 2167 2291 2364 2335 2415 2494 2554 2174 1900 1580 1527 1598 2065 2133 2181 2234 2405 2308 1837 1752 1948 2118 2216 1945 1529 846 623 274 52 0 1 0
1554 1805 2000 2071 1970 1790 1504 1476 1803 1999 2122 2287 2335 2345 2438 2495 2464 2571 2599 2558 2524 2456 2395 2176 1994 2155 2281 2186 2100 2066 1737 1490 1600 1414 1177 791 374 19 0 1 0 0 0
595 699 898 1359 1980 2326 2030 1699 579 909 1042 1287 1634 2201 2698 2623 2630 2565 2597 2675 2741 2507 2395 2691 2545 2356 2338 2358 2376 2129 1520 1369 1202 848 415 156 4 1 0 0 0 1 0
2 117 268 473 703 1032 1632 2107 1976 1050 414 819 1106 1355 1395 2534 2532 2752 2747 2242 1826 1782 2700 2590 2630 2625 2611 2440 2233 1863 1692 1016 434 173 70 0 1 0 1 1 1 0 0
0 0 78 273 514 894 1196 1418 1481 1931 1868 1586 380 891 1121 1365 1821 2107 1847 1651 2135 1573 2665 2694 2671 2512 2330 2162 1846 1498 961 306 71 0 0 0 2 1 1 1 1 0 0
0 0 0 21 336 562 912 1313 1499 1659 1867 1904 1185 675 174 440 990 1138 1214 2984 3026 2333 1929 2052 1906 1678 1617 1482 1187 733 332 39 0 0 0 1 2 0 0 0 0 0 0
0 0 0 0 7 289 698 1036 1474 1733 1972 1732 1491 1658 578 409 1550 1741 1532 1768 2083 1987 1512 1451 1123 900 837 627 326 38 0 0 0 0 0 1 0 0 0 0 1 0 0
0 0 0 0 0 149 551 718 1096 1441 1670 1799 1663 1129 906 1432 1514 1367 1402 1143 1119 1132 999 810 501 343 102 0 0 0 0 0 0 0 1 0 0 0 0 0 0 0 0
0 0 0 0 0 2 524 714 704 739 1180 1427 1127 538 451 821 950 865 739 510 162 68 37 3 0 0 0 0 0 0 0 0 0 1 1 2 0 0 0 0 0 0 0
0 0 0 0 0 0 230 771 948 923 917 814 738 519 318 543 396 104 3 0 0 0 0 0 0 0 0 0 0 0 0 0 0 2 1 0 0 1 2 1 0 0 0
0 0 0 0 0 4 216 558 437 367 387 388 309 128 19 1 0 0 0 0 0 0 0 0 0 0 0 0 0 0 0 0 0 0 0 0 0 0 0 0 0 0 0
2 0 0 0 0 86 43 24 7 0 1 2 1 0 0 0 0 0 0 0 0 0 0 0 0 0 0 0 0 0 0 0 0 0 0 0 0 0 0 0 0 0 0
4 2 0 1 1 1 1 2 3 3 4 3 2 0 1 1 1 1 1 0 0 0 0 0 0 0 0 0 0 0 0 0 0 0 0 0 0 1 0 0 0 0 0

GFSGL_con_mlcape_069.txt.gz
CAPE
169 195 210 308 333 313 249 284 311 271 288 299 276 265 550 690 888 1052 1107 1355 1718 1810 2073 1966 1814 1751 1547 1539 1439 1158 934 561 213 48 89 92 90 117 162 361 272 240 204
196 241 242 327 370 346 317 331 343 318 305 304 337 222 303 505 742 921 889 1248 1606 1655 1880 2051 2019 2044 1865 1893 1771 1803 1544 1331 765 310 591 607 364 255 275 247 225 156 178
194 248 293 353 414 388 399 432 366 367 330 317 355 320 177 516 650 896 1029 1181 1638 1824 1983 2122 2059 2210 2102 2067 2038 1724 1519 1744 1611 1213 1048 1297 1280 986 881 698 542 497 423
255 307 397 440 455 467 492 514 444 432 422 379 386 353 343 366 448 471 764 1016 1312 1579 1788 1915 1999 2098 2177 2257 2262 2078 2091 1870 1594 1552 1269 1150 1101 1127 1115 807 848 982 1036
382 444 533 565 582 618 697 638 593 538 543 548 506 487 495 547 405 481 637 898 1152 1366 1733 1846 2030 2042 1876 1971 2149 2172 2180 2102 1994 1794 1648 1590 1537 1574 1667 1601 1525 1446 1423
465 525 633 674 684 681 721 745 788 691 579 605 525 510 522 597 303 141 365 684 992 1274 1130 1507 1836 1810 1677 1412 1336 1392 1725 2191 2159 2005 1823 1787 2219 2245 2048 2170 2212 2108 2068
463 522 660 759 774 748 783 783 820 886 987 867 801 787 705 728 359 78 70 363 710 988 1080 1102 1101 1055 1560 1842 1840 1305 1168 1142 1321 1668 1870 2094 2307 2589 2735 2766 2524 2254 1908
491 485 576 740 742 790 798 795 740 707 735 828 901 1003 944 920 535 127 35 341 735 961 1090 1094 1066 985 1366 1526 1449 1578 1756 1889 1785 1402 1551 1926 2311 2660 2851 2737 2485 1964 1479
571 573 592 626 705 859 919 931 917 950 926 839 828 890 874 867 542 201 93 401 605 867 1202 1333 1393 1259 1318 1084 1222 1209 1476 1855 2106 1962 1790 1710 1698 1590 1468 1448 1664 1820 1749
693 694 752 748 752 808 869 906 1004 1105 1138 1292 1281 1314 1089 874 818 342 234 767 904 1011 1368 1605 1405 1429 1544 1277 1288 1433 1746 2259 2646 2877 3002 2429 2038 2038 1785 1503 1775 1925 1558
921 961 945 888 887 955 1017 1119 1243 1386 1554 1761 1700 1846 1834 1578 1376 774 458 1044 1289 1537 1659 1798 1978 1522 1212 1086 1183 1876 2337 2719 2932 2931 2966 2862 2800 2601 2490 2638 2194 1759 1187
930 966 1045 1093 1106 1287 1361 1421 1455 1510 1591 1723 1863 2005 2164 2363 1922 1529 940 921 1665 2010 2271 2416 2519 2133 1690 1509 1323 1514 1763 2002 2291 2457 2584 2535 2543 2501 2388 2272 1953 1220 827
819 911 1056 1195 1304 1398 1512 1626 1845 2023 1883 2024 2110 2134 2227 2408 2736 2072 1447 1135 1244 1829 2365 2669 2521 2318 2041 1793 1637 1733 1614 1651 1998 2203 2399 2518 2561 2378 1912 1222 409 46 8
642 843 1035 1182 1336 1478 1682 1766 1830 1959 2162 2154 2320 2426 2532 2707 2889 3005 2361 1599 1101 1193 1369 1992 2300 2256 2187 2354 2304 1953 1748 2163 2424 2557 2608 2574 2291 1639 1106 462 25 0 0
1735 1493 916 1047 1104 1641 1699 1849 1972 2129 2220 2413 2547 2688 2835 2970 3019 2955 3066 2913 2666 2182 2054 2103 2173 1869 2118 2112 2180 2363 2314 2080 2052 2046 2142 2156 1709 1066 425 32 1 1 2
1162 1490 1771 2521 2318 1938 1824 1583 731 918 1198 1412 1681 2235 2968 2734 2734 2524 2366 2451 2520 2330 2285 2694 2516 2379 2445 2421 2371 2307 2088 1891 1881 1750 1702 1569 1234 690 56 3 2 6 1
28 350 578 1064 1900 2626 2534 2224 2185 1424 793 949 1092 1275 1316 2056 2078 2148 2329 2099 1715 1646 2718 2839 2932 2678 2562 2482 2460 2299 2219 1956 1587 1407 1369 1051 607 127 2 3 4 8 2
0 0 102 736 1276 1409 1581 1969 2093 1955 2093 2382 794 999 1060 1185 1478 1622 1466 1463 2037 1419 2403 2839 2754 2666 2598 2644 2554 2375 2063 1562 1326 1098 883 458 96 4 3 3 2 3 1
0 0 0 52 613 978 1317 1490 1617 1660 1840 2104 2098 958 476 314 448 696 672 2641 3113 3178 2546 2649 2718 2679 2627 2450 2143 1796 1447 1182 1019 972 631 20 2 4 4 7 3 0 2
0 0 0 0 0 219 789 1226 1201 1043 1265 1720 2164 2125 1303 469 1523 1421 1054 1669 2946 3570 3430 2544 2201 1812 1833 1516 1210 1074 826 499 559 310 0 1 4 2 4 4 2 5 2
0 0 0 0 0 0 160 693 935 849 825 857 1380 1777 1518 1452 2138 2119 1857 1792 2372 2997 2735 2270 1758 1372 1013 939 961 874 653 252 14 0 0 4 6 3 3 6 10 2 1
0 0 0 0 0 0 0 78 687 979 645 151 468 668 497 710 1352 1583 1729 1863 1914 1814 1446 1164 968 699 492 421 289 137 72 1 0 1 2 1 6 4 5 3 3 4 1
1 0 0 0 0 0 0 0 47 692 755 693 539 356 358 503 768 1226 1401 1243 673 473 441 285 195 28 0 0 0 0 0 0 1 2 2 1 3 4 3 3 1 0 9
2 1 0 0 0 0 0 0 1 381 637 509 542 381 330 283 275 226 215 143 14 2 12 10 1 0 0 0 0 0 0 1 2 2 5 5 2 0 1 0 0 0 10
4 3 3 2 0 0 1 9 247 474 244 67 30 1 0 1 0 0 0 0 0 0 0 0 0 1 2 1 0 0 0 0 0 0 6 10 11 13 12 8 7 4 3
5 7 5 3 2 0 0 0 0 1 1 4 5 7 2 3 2 1 0 0 0 0 0 0 0 0 0 0 0 0 0 0 0 0 5 11 17 23 18 18 15 14 12

GFSGL_con_mlcape_072.txt.gz
CAPE
812 838 872 783 809 874 642 845 1148 1174 1025 1186 827 755 471 843 1285 1635 1529 1247 1671 2202 2272 2304 2437 2366 1493 1036 1246 1242 918 851 788 474 231 248 654 986 981 965 871 793 666
898 1120 962 989 973 784 966 908 1082 1263 1367 1355 1240 1137 866 753 1207 1640 1634 1089 1658 2025 2261 2482 2627 2619 2780 2704 1856 1506 1405 1504 1446 1531 1316 1044 1211 1464 1786 1616 1289 882 706
811 853 894 964 940 992 1078 1152 1077 1244 1380 1430 1390 1285 1164 744 762 1264 1525 1559 1560 1838 2256 2451 2612 2778 2817 2619 2436 1881 1605 1731 1819 1807 1514 1011 874 979 1142 1675 1903 1825 1668
522 662 964 1192 1206 1009 1246 1367 1337 1379 1471 1481 1512 1415 1308 1076 655 640 856 1356 1510 1627 2006 2380 2598 2696 2751 2844 2974 2857 2678 2464 1825 1808 1538 1467 1414 1499 1580 1660 1754 1823 1885
759 712 1057 1362 1410 1496 1556 1560 1521 1519 1478 1555 1609 1530 1406 1233 725 732 583 599 1039 1549 1717 1875 2128 2233 2173 2442 2519 2566 2591 2369 1849 1542 1397 1263 1103 1198 1766 1799 1889 1909 2144
1155 1017 1179 1568 1591 1577 1706 1705 1697 1632 1632 1691 1634 1630 1456 1204 561 258 470 534 631 970 1233 1469 1714 1822 1954 1725 1587 1564 1774 2381 2880 2334 1720 1546 2269 2313 1944 1983 2029 2493 3007
1493 1343 1429 1625 1689 1699 1672 1775 1778 1776 1799 1805 1804 1763 1655 1662 1041 415 250 444 448 803 1237 1269 1069 573 867 1369 1571 1616 1538 1313 1354 1659 1914 2031 2048 2266 2666 3038 3100 3057 3017
1571 1627 1659 1765 1782 1857 1846 1929 1970 1886 1930 1899 1853 1876 1845 1789 1334 845 375 618 898 1090 1220 1476 1573 1407 1450 1310 1296 1441 1741 1859 2043 1957 2041 2204 2339 2804 3191 3327 2901 2725 2554
1597 1686 1765 1771 1837 1902 1917 1978 1973 2044 2043 2076 2110 2137 2078 2028 1475 1023 690 850 835 1160 1433 1664 1897 1941 1918 1439 1363 1276 1440 1552 1373 1382 1506 1703 1964 2082 1988 1971 1949 2499 2471
1697 1646 1753 1810 1907 1939 2045 2034 2026 1968 1885 1759 1821 1952 1985 2105 1948 1044 751 1047 917 919 1328 1864 1578 1647 1919 1692 1653 1598 1641 1730 1884 2220 2958 3083 2586 3013 2776 2517 2503 2571 2403
1490 1416 1556 1668 1983 2041 2140 2136 2149 2002 1906 2068 2032 2047 2050 2033 2087 1377 837 1225 958 990 1066 1058 1473 1447 1450 1231 1191 1988 2161 2290 2664 3105 3390 3522 3760 3594 3409 3476 3099 2651 2278
1524 1479 1687 1802 1645 1693 2034 2140 2157 2207 2263 2393 2330 2306 2216 2464 2164 1824 1030 919 1333 1504 1567 1776 2100 2051 1758 1594 1350 1409 1369 1429 2080 2673 3089 3031 2847 3137 3196 2916 2214 1879 1303
1650 1742 1792 1870 1803 1697 2055 2189 2181 2285 2194 2341 2316 2382 2302 2333 2779 2255 1515 1219 1102 1322 2092 2638 2473 2362 2164 1865 1612 1627 1521 1958 2407 2711 2794 2992 3046 3285 3090 2003 1119 849 109
1789 1914 1975 2099 2083 1907 2105 2280 2265 2204 2228 2113 2254 2253 2351 2412 2588 2939 2652 1678 1257 1257 1348 1922 2488 2562 2550 2780 2872 2226 2132 2630 2985 2952 3021 3158 3511 2831 2243 1567 843 482 2
1765 1868 1992 2092 2052 2277 2187 2200 2234 2296 2306 2414 2278 2446 2557 2763 2887 3018 3269 3536 3073 2214 2145 2501 2638 2615 2687 2752 2863 3127 3368 3413 2778 2819 2963 2899 2638 2293 1573 1318 613 328 168
2017 1723 1666 1627 1878 1875 2011 2074 1219 993 1116 1519 1837 2309 2879 2798 2705 2737 2830 2868 2827 2577 2561 2916 3035 2807 2595 2630 2659 2768 2830 2848 2790 2609 2431 2362 2341 2028 1565 1029 581 235 275
1402 2029 2297 2227 2128 1949 2292 2498 2711 1708 1232 1442 1589 1644 2039 2458 2345 2091 2069 1921 1766 2070 2935 3286 3268 2842 2879 3244 3300 3164 2902 2780 2462 2100 2049 2083 2057 1833 932 1061 346 203 233
0 51 1221 1525 1830 2062 1337 1686 2419 1756 1845 2607 1334 1448 1230 1320 1359 1511 1384 1677 2179 1581 2672 2959 3185 3286 3503 3700 3456 3196 2992 2729 2247 2223 2098 1926 1691 1407 855 559 187 217 61
0 0 1 126 811 643 154 27 196 1103 775 2293 2519 1388 908 546 480 485 462 2149 3229 3365 3248 3185 3396 3443 3347 3250 3489 3413 2988 2373 2133 1886 1618 1351 1092 1459 686 148 26 1 26
0 0 0 0 0 132 536 706 641 1022 1525 1876 1695 1651 1196 630 1287 1390 928 1353 2533 3201 3306 3250 3162 3095 3446 3526 3373 2925 2272 1692 1567 1470 1465 1143 1054 835 400 94 33 7 4
0 0 0 0 0 0 21 254 581 748 680 1050 1327 1580 1724 2236 2147 2128 2482 1966 2033 2794 3440 3688 3615 3276 3111 3061 2287 1574 1320 1256 1211 1220 1284 1262 964 533 252 180 32 6 2
0 0 0 0 0 0 0 0 3 45 286 429 342 452 400 645 1347 2247 2543 2562 2930 2884 3186 3552 3570 3179 2815 2456 2296 2053 1618 1348 1169 1271 1337 870 394 258 140 35 11 5 5
0 0 0 0 0 0 0 0 0 0 3 187 323 278 382 434 670 1450 2290 2578 2788 2906 2772 2386 2401 2381 1786 1347 1209 1169 1069 869 688 527 522 313 183 110 6 1 10 5 1
0 3 1 0 0 0 0 0 0 0 0 20 292 327 310 506 618 1104 1248 1572 1674 1312 1329 1118 1138 1144 891 682 596 472 440 382 357 319 255 42 3 1 6 4 13 4 4
3 6 7 5 1 0 0 0 6 39 170 10 42 29 0 1 2 1 16 67 265 216 84 52 108 240 152 205 239 208 0 0 0 0 1 4 5 1 3 7 11 4 1
4 6 8 10 10 9 9 7 6 4 2 1 7 7 7 3 2 0 0 0 0 0 0 0 0 0 0 0 0 0 0 0 0 0 3 6 4 10 10 12 21 16 12

GFSGL_con_mlcape_075.txt.gz
CAPE
1266 1063 950 1112 940 992 1134 1474 1283 1414 1418 1329 1183 1102 788 859 1380 1843 1762 1368 1948 1951 1928 1974 1998 2072 1662 1189 1181 1305 1195 944 979 977 912 756 1568 1360 1318 1531 1853 1887 1382
1279 1214 1171 1401 1293 1363 1154 1115 1420 1630 1918 1808 1833 1506 1231 808 1250 1748 1710 1091 1324 1470 1788 2194 2213 2122 2772 2691 2051 1749 1384 1677 1637 1698 1673 1631 1721 1756 2103 2795 2594 1989 1942
1331 1316 1452 1468 1561 1422 1483 1366 1339 1620 1979 1918 2072 2123 1792 1272 1141 1619 1930 1804 1128 1448 1810 2253 2370 2599 2835 2586 2948 2405 1988 2133 2218 2303 2087 1521 1196 1334 1711 1997 2141 2015 2158
984 1066 1432 1735 1763 1571 1592 1676 1678 1896 2120 2137 2314 2370 2148 1828 1320 1053 1451 1895 1923 1572 1706 2045 2146 2402 2795 3072 3069 3153 2993 2685 2018 1912 1756 1751 1582 1640 1585 1703 1922 1672 1852
1241 1103 1420 1874 1910 1898 1707 1851 2028 2089 2178 2316 2455 2452 2302 1927 1451 1276 1105 1365 1819 1836 1726 1920 2158 2283 2232 2709 2620 2608 2995 2689 2203 1848 1608 1247 1013 1193 1963 1840 1956 1919 1979
1484 1222 1289 1801 2111 2027 1892 1962 2135 2196 2231 2406 2413 2474 2347 1758 952 773 1067 1038 1130 1402 1696 2087 2258 2023 1911 1864 1891 1870 1812 2120 2768 2334 1842 1632 1886 2021 1962 1666 2146 2182 2960
1865 1491 1394 1838 2140 2200 2136 2178 2301 2341 2419 2367 2551 2559 2528 2519 1098 595 440 972 1175 1313 1493 1765 1705 770 1225 2040 1999 1696 1583 1439 1466 1758 1772 1891 1907 2317 2471 2461 3121 3540 3453
1830 2122 1676 1945 2246 2402 2469 2503 2546 2622 2452 2493 2672 2744 2717 2617 1910 1075 572 761 854 1056 1436 1816 2027 1502 1230 1478 1996 2184 2176 2387 2398 2031 2168 2403 2683 2946 3359 2852 3090 3076 3004
2212 2165 2144 2101 2327 2648 2590 2692 2806 2857 2858 2852 3051 2885 2825 2641 1892 1366 1055 1247 1156 1435 1905 1959 1928 1959 2244 2152 1888 1500 1509 1751 1286 1106 1148 1270 1359 1335 1508 2320 2709 2805 2993
2138 2324 2549 2339 2578 2793 2840 2736 2873 2965 2836 2442 2679 3020 2981 2892 2583 1534 1179 1454 1272 1275 1615 1986 1809 1895 2162 2099 2198 2229 2172 2422 2402 2292 2503 2724 2419 2836 2843 2566 3318 3381 3248
2073 2363 2705 2684 2771 2949 3074 3129 3131 2947 2423 2792 2722 2949 3061 2855 3128 2182 1353 1799 1339 1229 1159 906 1163 1268 1282 1173 1226 2072 2515 2927 2757 2773 2901 3240 3589 3704 4215 3527 3827 3668 3163
2164 2407 2531 2829 2634 2668 3122 3271 3188 3160 2989 3101 2849 2888 2421 2856 2639 2219 1594 1525 1909 1550 1094 501 649 610 772 1091 1166 1364 1554 1636 2000 2182 2512 2837 3101 3527 3421 3547 3624 3027 2187
2341 2438 2584 2610 2724 2534 3036 3263 3002 3152 2533 2496 2564 2385 1936 1807 2640 2126 1460 1378 1374 1652 1640 1221 1297 1632 1881 1350 1175 1486 1566 1913 2147 2570 2881 3050 3207 3293 3593 3097 2531 1844 1145
2395 2608 2639 2645 2699 2559 2690 2877 2623 2471 2574 2176 2257 2168 2002 1683 1722 2606 2253 1441 1323 1459 1490 1549 1825 2095 2230 2708 2964 2144 2189 2694 2955 3169 3226 3299 3370 3684 3678 2475 1806 1429 619
2174 2236 2484 2462 2438 2665 2563 2413 2506 2346 2211 2275 1781 1984 2168 2377 2435 2473 2836 3048 2514 2209 2222 2220 2143 2139 2459 2860 3160 3347 3543 3556 3253 3176 3364 3531 3583 3874 3149 2151 1448 1430 777
1986 2308 2413 2387 2588 2539 2310 2154 1368 1651 1362 1388 1460 1885 2557 1671 1963 2138 2346 2588 2867 2856 2481 2654 2792 2928 3119 3221 3333 3179 3325 3447 3496 3868 3760 3612 3374 2992 2430 1904 1460 1264 1461
276 1511 2548 2490 2654 2519 2553 2551 2435 1464 1231 1467 1530 1589 1568 1593 1786 1909 2120 2003 2210 2562 3277 3250 2978 2850 3264 3233 3076 2988 3022 3115 3661 3666 3445 3279 2847 2507 2124 1807 1483 1359 971
0 56 883 1850 2273 2252 2374 2499 2534 2776 2599 2156 1638 1772 1449 1120 1214 1187 1545 2120 2752 2298 2815 3123 3139 3464 3423 3274 3145 3366 3637 3313 3652 3445 3169 2734 2383 2321 2067 1697 1488 1279 876
0 0 0 107 859 2090 2773 2892 2974 2233 2458 1743 1367 1321 1167 838 713 733 619 1839 2671 3089 3128 3117 3224 3224 3375 3464 3492 3484 3022 3268 3675 3308 2709 2624 2398 2251 2004 1632 1568 1172 644
0 0 0 0 24 530 1134 706 455 666 427 731 822 1798 1091 1014 1350 1632 1340 1611 2136 2567 2451 2441 2692 2912 2983 3004 3088 3507 4059 3785 3259 2703 2428 2230 1986 1721 1602 1308 1346 905 371
0 0 0 0 0 0 26 45 464 397 532 148 108 833 1162 1477 1775 1463 2104 2034 2110 2366 2696 2687 2527 2609 3476 3382 3668 3529 3446 3414 3083 2457 1755 1707 1513 1416 1418 1781 1099 585 343
0 0 0 0 0 0 0 0 52 317 416 86 196 744 699 971 1817 1145 880 1296 2253 2772 2641 2847 3066 3083 3493 3417 3241 3197 2877 2506 2191 1835 1589 1637 1642 1446 1250 1126 843 606 346
0 0 0 0 0 0 0 0 0 6 98 173 205 364 534 377 397 90 307 846 1729 2044 2397 3127 3294 3382 3519 3342 2891 2611 2626 2635 2498 2046 1780 1761 1577 1275 1003 860 730 414 301
0 0 0 0 0 0 0 0 0 0 0 0 3 97 419 600 612 798 814 871 1165 1792 2526 2615 2501 2560 2599 2571 2098 1909 1708 1667 1544 1146 1106 1033 980 906 540 450 483 199 128
2 4 5 5 1 1 0 0 0 0 0 0 0 0 0 0 0 0 0 0 0 0 0 0 0 0 4 0 0 0 0 0 0 0 338 735 720 535 226 267 189 41 37
3 5 7 7 8 11 12 10 10 10 9 9 10 10 9 11 10 7 2 1 0 0 0 0 0 0 0 0 0 0 0 0 0 0 0 211 201 59 11 0 1 6 5

GFSGL_con_mlcape_078.txt.gz
CAPE
1352 842 701 567 494 234 809 621 1259 894 1112 1312 1323 1224 1597 1462 1773 1744 1624 1884 1728 2004 1359 2284 1965 1859 1283 1742 2241 2174 1499 1310 1127 1171 1534 1764 2006 1656 1498 1511 1687 1812 2132
1553 1241 830 817 611 468 57 1560 1558 1953 1920 2000 1443 2021 1392 1394 1429 1677 1867 1386 1624 1967 2032 1716 1984 2547 2234 1807 1506 1554 1787 1742 1588 1504 1484 1568 1913 2214 2264 2412 2580 2496 2364
1793 1508 1283 1068 1026 769 406 887 1773 1256 1569 1780 2286 1621 2063 1647 1292 1784 2155 1852 1798 1733 1812 2176 2294 2115 2417 2937 3018 2986 2959 2871 2694 2319 2582 2717 1741 1611 1731 1913 2225 2259 2451
1811 1734 1484 1348 1353 1192 1182 686 1139 1882 1686 2035 1874 2368 2320 2187 1799 1435 2025 2214 2226 2022 2152 1960 2421 2640 2592 2862 2929 2820 2715 2596 2525 2377 2232 2349 2255 2230 2608 2018 1833 2099 2259
1391 1657 1745 1624 1432 1639 1641 1711 1364 1299 1730 2047 2299 2301 2617 2606 2243 1911 1583 2098 2133 2260 2221 1881 1956 2421 2707 2894 3122 3264 3126 3129 3210 3046 2951 2507 1875 1838 1760 2215 1991 1809 1955
1355 1539 1613 1817 1799 1688 1740 1885 1857 1615 1812 2236 2316 2468 2649 2697 2201 1486 1617 1299 1846 2001 1833 1931 2143 2140 2089 1822 1796 1899 2151 2131 1978 1863 1826 1657 1768 2114 2361 1695 1889 2226 2892
1700 1641 1650 1795 2034 2027 2069 1942 1990 1950 1925 2283 2416 2459 2561 2669 1989 1231 1093 1448 1235 1463 1931 2011 2071 2073 1766 1772 1577 1312 1275 1343 1471 1518 1393 1326 1429 1586 2137 2334 2694 3007 2767
1949 2149 1841 1735 2011 2296 2181 2182 2039 2167 2255 2191 2396 2546 2637 2726 2457 1517 826 1048 1357 1509 1540 1468 1506 1685 1382 1449 2022 2363 2315 2145 1891 1543 1569 1877 2231 2468 2466 2595 2962 2391 2982
1969 2176 2240 1823 2065 2345 2451 2320 2288 2257 2356 2412 2439 2633 2656 2655 2504 2130 1213 900 959 1164 1244 1184 1524 2131 2394 2038 1367 812 714 985 1398 1620 1821 2038 2155 2294 2539 2244 1644 2273 2890
2001 2222 2502 2144 2037 2357 2554 2514 2528 2545 2570 2593 2611 2768 2996 3019 2745 2086 1608 1593 1361 1255 1453 1564 1565 1623 1493 1472 1679 1785 1803 1995 2568 2655 2689 2477 2447 2437 2174 2148 2802 3032 3270
2682 2238 2490 2787 2202 2490 2786 2829 2856 2824 2848 2852 2869 2944 3295 3261 3234 2533 1505 1928 1735 1745 1731 1708 1893 1719 1363 1152 1219 1716 1800 2183 2608 2910 2961 2939 3049 3380 3874 3547 3550 3617 3585
2151 2635 2588 2643 2845 2712 2925 3164 3050 3080 3074 2949 2967 2969 3116 3353 3099 2609 2077 1640 1881 1810 1658 1648 1624 1196 942 958 805 882 1182 1488 2049 2252 2244 2296 2450 3040 3483 3768 3798 3915 3082
2060 2888 2624 2931 3071 2808 3000 3154 3328 3236 3196 3109 3038 3181 3013 3249 3454 2863 2280 1927 1816 2091 2036 1911 1354 1122 1015 732 748 607 685 1086 1555 2025 2428 2621 2971 3436 3351 3651 3199 2681 1773
3209 2886 2933 3074 3186 3105 2965 3186 3366 3360 3345 3198 2973 2994 3078 2670 2607 3063 2274 1638 1493 1508 1741 1993 1941 1623 1312 1693 2264 1733 1466 1933 2364 2772 2895 3045 3460 3386 3501 3535 3001 2246 1707
2639 3044 3110 3151 2969 3176 2836 3280 3376 3349 3240 3178 2936 2713 2748 2666 2369 2002 2617 2151 1855 1732 1860 1911 1970 1933 1482 1495 2342 3073 3002 2835 2908 3067 3202 3330 3514 3596 3581 3214 2715 1970 1805
765 1627 2636 2803 2860 2818 2931 2674 2078 2878 2285 2478 2627 2659 1643 1509 1146 1334 1277 2359 2192 2065 1969 2428 2586 2480 2464 2382 2388 2735 3272 3667 3780 3418 3358 3518 3688 3790 3857 3110 2351 2033 1791
0 3 455 1404 2674 2770 2681 2534 2593 1484 1038 1252 1600 1831 2174 1725 1675 1660 1779 1944 2319 2248 2969 2907 3030 2946 3138 3327 3392 3710 3485 3226 2896 2891 3724 3779 3746 3577 3243 2759 2366 2001 1634
0 0 0 146 500 1619 2704 2760 2824 2219 2071 1748 1035 1288 1294 1526 1582 1719 1863 2049 2498 2580 3137 3425 3635 3537 3501 3475 3548 3437 3133 3197 3396 3477 3581 3705 3371 2984 2711 2434 2187 1996 1735
0 0 0 0 0 230 1905 3017 2761 2926 2670 2520 2381 1173 349 300 297 594 1353 2618 2830 3021 3271 3096 2923 2977 3328 3663 3510 3198 2955 3170 3833 3969 3809 3541 3136 2849 2556 2285 2138 1815 1529
0 0 0 0 0 15 133 1008 1416 2034 2229 2629 2407 2274 1442 949 1288 1327 1068 1496 2074 2347 2578 2860 3169 3379 3286 3332 3639 3554 3608 3941 3857 3688 3737 3340 2943 2704 2336 2293 2169 1880 1466
0 0 0 0 0 0 0 0 55 197 426 369 1358 1512 1478 1384 1692 1732 1815 1570 1716 1879 2098 2364 2643 2649 2829 3472 3431 3519 3395 3355 3761 3664 3241 2612 2150 2082 2037 1992 1866 1626 1416
0 0 0 0 0 0 0 0 0 46 145 267 275 136 628 1046 776 1143 586 514 2255 2573 2748 2896 2690 2817 3110 3038 2951 3457 3675 3513 3438 3241 2795 2336 1912 1653 1526 1719 1709 1699 1338
0 0 0 0 0 0 0 0 0 0 0 0 0 95 64 16 3 55 40 742 695 278 105 224 385 648 530 1097 1173 1758 2596 2698 2989 2852 2465 2019 1755 1713 1587 1562 1290 1222 899
0 0 0 0 0 0 0 0 0 0 0 0 0 0 0 0 0 0 0 0 0 0 0 0 0 0 0 0 0 0 0 0 6 729 2218 2278 1991 1909 1766 1500 1194 921 813
1 5 3 2 3 0 0 0 0 0 0 1 3 0 1 4 2 1 1 0 0 0 0 0 0 0 0 0 0 0 0 0 0 0 40 551 1365 1163 993 845 671 484 582
1 3 4 7 9 5 4 10 9 10 11 12 11 10 10 12 10 7 7 3 1 0 0 0 0 0 0 0 0 0 0 0 0 0 0 0 110 408 513 398 258 231 258

GFSGL_con_mlcape_081.txt.gz
CAPE
202 258 0 0 484 413 434 148 787 654 1507 1388 1218 1058 1528 1286 1388 1494 1458 1283 1516 1276 1191 1448 1854 1777 1292 1074 1266 1801 1827 1487 1123 1057 1337 1857 1572 1455 1468 1772 1860 1803 1598
310 310 254 0 84 327 393 192 180 563 823 1556 1205 1279 1248 1098 1219 1524 1349 1367 1419 1564 1528 1515 1228 2076 1857 1688 1245 1107 1322 1452 1523 1278 1515 1754 2153 2358 1898 1903 2120 2510 2443
611 311 415 259 0 219 151 201 199 539 698 1004 1331 1200 1271 1204 977 1063 1278 1177 1208 1334 1857 1793 1600 1670 1923 2271 2376 2257 2614 2829 2678 2570 2314 1985 1882 1863 2029 2163 2009 2245 2185
838 683 478 396 320 26 16 0 436 667 1372 1319 1594 1425 1464 1186 1079 986 1215 1366 1364 1124 1576 2004 1866 1901 1801 1666 1965 2364 2266 2169 2225 2160 2197 2366 2444 2513 2328 1647 1210 1772 1411
1126 1028 813 571 438 515 213 116 0 1150 963 1034 1449 1580 1625 1542 1574 1322 1088 1320 1557 1372 1531 1629 1920 1647 1744 2246 2393 2407 2642 2706 2746 2863 2920 2985 2670 1891 1074 1529 1467 1255 1940
1298 1284 1118 972 783 684 717 571 254 1 1455 1328 1047 1122 1341 1927 1789 1633 1498 1230 1472 1644 1538 1674 1917 2068 1771 1613 1746 2159 2586 2706 2608 2352 1934 1390 877 773 1012 1244 1467 1810 2234
1316 1419 1390 1188 1122 968 1017 951 972 619 167 1049 1523 1568 1538 1526 1756 1827 1741 1611 1256 1353 1638 1590 1293 1363 1516 1785 1820 1779 1647 1453 1531 1628 1356 1097 1069 1163 1427 1691 1767 1876 2361
1139 1382 1466 1486 1294 1212 1083 1200 1271 1441 1184 960 1123 1546 1750 1962 1930 1779 1745 1507 1464 1273 1120 1283 1536 1509 1430 1328 1277 1451 1457 1429 1316 1115 1237 1521 1620 1722 1857 1695 1949 2316 2744
1565 1288 1420 1429 1515 1497 1268 1257 1395 1429 1614 1400 1477 1894 1910 1959 1923 1913 1653 1190 1070 1278 1261 1105 1023 1052 1067 1130 1167 965 788 818 1296 1574 1599 1475 1451 1532 1738 2011 2027 2119 2183
999 1979 1604 1468 1549 1619 1722 1541 1693 1641 1531 1798 1821 1742 2007 2101 2058 1870 1726 1773 1056 955 1064 1248 1239 1328 1387 1508 1594 1553 1469 1238 1560 1715 1931 1912 1827 1848 2045 1770 2254 2266 2361
58 486 2363 1842 1610 1725 1818 1951 1856 1902 1834 1725 1816 2014 2100 2110 2389 2037 1646 2059 1779 1259 969 877 1045 946 791 764 796 941 829 905 1185 1519 1874 2422 2767 2688 2754 2276 2019 2522 3000
0 140 2010 2398 1932 1901 1918 2111 2091 2039 2045 2000 2006 2096 2143 2346 2261 2243 1940 1620 1989 1833 1444 1372 1281 1171 1145 1082 861 817 1012 1096 1496 1687 1879 1962 2020 2011 2156 2471 3460 3156 3363
0 170 1648 2439 2318 2018 2097 2193 2310 2281 2274 2151 2234 2243 2316 2524 2754 2560 2279 1857 1733 2009 1898 1657 1444 1272 1048 710 513 510 507 617 916 1204 1376 1503 1702 2134 2443 2996 2967 2898 2591
1 199 1991 2537 2597 2349 2403 2366 2557 2530 2461 2494 2430 2374 2429 2420 2620 3009 2416 1903 1662 1458 1775 1780 1374 1277 1322 1441 1282 1001 809 840 939 1208 1486 1709 2154 2597 2860 3160 2864 2592 2361
0 0 1231 2672 2609 2670 2631 2643 2620 2736 2726 2575 2558 2572 2406 2599 2542 2483 2883 2494 2204 1821 1717 1649 1770 1833 1871 1774 1577 1503 1289 1258 1596 1845 2166 2534 2824 3004 3162 3251 3182 2528 2591
0 1 0 730 1676 2716 2450 2436 1978 2510 2625 2616 2569 2653 2665 2238 2472 2410 1998 2098 2066 1773 1373 1750 1790 1810 1819 1816 1825 1584 1742 1790 2140 2419 2742 2905 2797 2761 3065 3171 2877 2856 2782
0 0 0 0 520 1071 2490 2452 2530 1911 1597 1754 2215 2595 2225 2212 1597 1551 1715 1373 1271 1278 1757 1744 1961 2190 2326 2265 2161 2168 2251 2351 2609 3128 3360 3369 3344 3193 3340 3263 2802 2788 2534
0 0 0 0 0 59 541 1749 2506 2238 2091 2356 1257 1481 1303 1588 1064 939 943 601 712 1215 1818 2133 2390 2548 2664 2687 2737 2902 3128 3204 3180 3017 2588 2689 2809 3028 3172 2969 2289 2178 1949
0 0 0 0 0 0 103 1092 2149 2447 1950 1944 1403 456 107 297 606 893 1084 2285 2041 1958 2305 2703 2856 2984 3172 3193 3192 3194 3199 3099 3010 2864 3117 3380 3377 3200 2923 2491 2195 1921 1995
0 0 0 0 0 0 0 178 1056 1731 1998 1924 1651 1389 264 348 1042 1157 1213 1591 2132 2515 2465 2701 2541 2765 2810 2763 3030 3173 3165 3069 2870 2899 3086 3465 3344 3212 2938 2592 2201 1879 1731
0 0 0 0 0 0 0 0 0 138 485 1077 1066 983 327 831 976 1087 968 858 996 1118 1614 1870 2032 2055 2249 2531 2790 3201 3262 3165 3200 3335 3249 2956 3056 3032 2678 2290 2195 1978 1740
0 0 0 1 1 2 1 0 0 0 0 4 110 0 64 105 72 97 0 0 2 0 0 0 0 0 0 0 111 1204 2533 2985 3165 3190 2990 2905 2471 2144 1974 1592 1482 1477 1436
0 0 0 0 6 3 2 3 0 0 1 5 6 0 0 0 0 0 0 0 0 0 3 0 0 0 0 0 0 0 0 20 15 29 1906 2755 2316 1971 1691 1451 1378 1431 1530
0 2 1 0 2 7 9 5 10 1 0 0 2 9 9 9 5 0 0 0 0 1 4 2 2 1 0 0 0 0 0 0 0 0 0 608 2067 1940 1833 1569 1445 1390 1326
2 4 5 5 4 6 8 8 9 8 9 14 5 11 7 7 13 8 8 2 5 2 3 2 0 0 0 0 0 0 0 0 0 0 0 0 32 269 1416 1649 1544 1405 1138
2 4 5 7 7 8 8 7 9 9 9 9 7 8 8 9 7 7 7 7 5 6 4 1 0 0 0 0 0 0 0 0 0 0 0 0 0 0 0 200 374 429 413

GFSGL_con_mlcape_084.txt.gz
CAPE
130 32 0 0 26 184 25 68 717 639 605 761 673 890 1039 1085 949 993 1084 986 851 957 918 958 932 1470 1473 1603 1147 1124 1381 1365 1416 1353 1234 1370 1620 1911 1995 1811 1918 1880 2040
211 135 7 0 0 152 188 1 14 760 732 641 616 949 955 957 936 756 799 1051 1055 1164 1343 1120 1064 1216 1423 1742 1607 1505 1152 1449 1754 1691 1986 2172 2115 1704 2036 2151 1854 1973 1831
224 202 149 0 0 9 202 241 33 130 727 1219 1137 947 962 893 992 1066 1145 1105 1025 992 1195 1295 1478 1430 1133 1673 1947 1830 2028 2135 2257 2239 2072 1850 1888 2062 2307 2158 1757 1249 1388
248 176 238 151 0 0 60 52 240 221 239 661 1172 1038 745 766 905 859 843 882 958 886 1044 1118 1559 1681 1653 1639 1563 1403 1492 1790 2071 2084 2072 2074 2210 2468 2358 1991 804 956 1248
343 252 211 289 161 0 0 43 0 218 293 370 779 975 1145 1057 953 799 780 637 545 549 867 1133 1055 1557 1815 1724 1410 1427 1838 2047 2162 2294 2368 2338 2139 2049 1371 1012 997 1180 1620
555 409 209 293 272 151 0 0 0 0 221 379 425 1342 1252 1247 1083 896 803 745 775 702 587 823 1095 1361 1439 1504 1575 1690 2062 2105 2278 2333 2282 2071 1641 1322 1016 1140 1346 1598 1592
812 714 663 295 361 293 306 58 4 0 0 159 498 628 1248 1401 1301 1168 1130 1089 912 946 864 788 836 1169 1274 1430 1558 1645 1564 1528 1736 1764 1620 1442 1337 1146 1162 1502 1512 1448 1454
96 475 907 884 531 429 399 447 275 191 35 0 93 932 896 892 962 1090 1045 1135 1208 1070 1089 1091 1025 943 967 939 962 897 896 964 957 1024 1020 1251 1349 1501 1578 1470 1504 1728 1982
20 9 203 923 927 818 743 688 656 575 525 252 34 303 1018 1323 1157 960 776 936 1152 1269 1282 1121 1198 1184 1056 819 877 861 853 855 1051 1064 1090 1132 1252 1345 1378 1527 1737 1834 2026
0 0 0 76 1179 1103 1068 973 954 919 969 905 709 573 531 714 846 820 944 1319 983 943 1040 1145 1011 1047 996 907 874 765 655 548 785 875 1153 1167 1113 1306 1636 1466 1933 2139 2184
0 0 3 1 304 1414 1238 1149 1077 1133 1093 1207 1229 1132 1163 1309 1411 1073 979 1474 1481 1273 958 825 765 763 689 689 723 923 986 1040 897 821 896 1151 1507 1859 2221 2183 1867 2219 2433
0 0 4 10 269 1582 1420 1370 1145 1191 1285 1218 1243 1403 1475 1392 1326 1322 1142 1143 1581 1562 1367 1004 825 599 441 380 350 549 609 526 628 927 1157 1354 1467 1540 1726 1897 1833 1733 1823
0 0 10 44 357 1607 1541 1555 1605 1413 1490 1501 1464 1389 1410 1558 1734 1414 1295 1142 1196 1619 1700 1566 1278 996 837 633 615 640 510 566 669 719 885 1073 1243 1351 1464 1668 2122 2656 2734
0 0 0 18 1426 1986 1667 1680 1830 1763 1645 1676 1685 1650 1628 1641 1742 1864 1452 1076 1026 1077 1448 1649 1589 1295 1119 1043 845 533 402 500 635 727 715 766 929 1198 1743 2313 2388 2476 2600
0 0 0 0 437 1883 1894 1932 2008 1988 1863 1792 1787 1758 1789 1820 1813 1923 2142 1877 1642 1455 1576 1460 1492 1335 1509 1274 1179 1174 1052 883 913 917 916 1036 1310 1686 2223 2466 2722 2469 2811
0 0 0 0 1 346 1776 2007 1557 1883 1887 1741 1812 1988 2046 1902 1858 1869 1806 1933 1946 1536 1273 1775 1703 1741 1693 1645 1663 1670 1458 1373 1262 1139 1121 1145 1660 2294 2474 2343 2549 2653 2679
0 0 0 0 0 0 180 1025 2342 1819 1515 1733 1771 1858 1899 2200 1885 1673 1706 1790 1361 932 2100 1833 1912 1774 1722 1626 1629 1684 1739 1474 1545 1395 1349 1738 2223 2584 2699 2667 2642 2769 2486
0 0 0 0 0 0 0 151 521 2104 2032 2113 1580 1535 1541 1502 1744 1822 1218 614 1025 592 1546 1877 1728 1638 1638 1700 1706 2009 1954 1835 1943 2175 2301 2368 2593 2870 2825 2648 2561 2330 2076
0 0 0 0 0 0 0 3 246 937 1982 1970 1261 629 532 911 943 653 507 1542 1306 1149 1153 1490 1475 1435 1584 1655 2080 2424 2379 2461 2585 2644 2753 2799 2745 2449 2727 2683 2404 2291 2012
0 0 0 0 0 0 0 0 2 211 1022 1628 1542 1218 334 350 876 870 801 1056 1305 1282 1076 1319 1557 1676 1825 1886 2098 2501 2859 2790 2707 2843 2810 2659 2561 2697 2737 2584 2606 2481 2123
0 0 0 0 1 1 0 0 1 1 157 260 201 337 316 500 588 609 484 163 140 31 9 136 147 101 77 170 397 713 1630 2365 2352 2547 2753 2756 2781 2701 2447 2592 2710 2329 1844
0 0 0 0 1 1 0 0 6 4 4 4 3 2 1 0 5 4 2 0 1 12 10 6 3 0 1 0 0 140 318 300 219 265 524 2107 2684 2467 2434 2399 2070 1627 1160
0 0 0 0 4 4 0 0 0 7 4 6 11 7 7 8 9 7 9 9 13 11 8 6 3 3 0 0 0 0 0 30 12 0 38 316 1443 2109 2064 1804 1592 1379 1241
2 2 3 0 2 5 7 6 3 4 8 6 6 7 3 2 4 7 7 5 5 6 6 8 9 5 1 0 0 0 0 0 0 0 0 18 158 346 947 1431 1458 1425 1185
3 4 6 6 7 7 7 8 14 9 8 8 8 7 9 10 13 8 7 8 6 1 1 0 0 0 0 0 0 0 0 0 0 0 0 0 0 0 0 14 390 924 1122
2 4 6 6 6 7 8 8 8 8 9 8 8 9 8 8 7 9 7 8 12 9 6 4 0 0 0 0 0 0 0 0 0 0 0 0 0 0 0 0 0 0 23

GFSGL_con_mlcape_087.txt.gz
CAPE
17 49 0 0 0 0 0 0 146 792 648 523 530 839 1027 1017 1004 769 643 870 894 713 812 981 938 926 1172 1352 1335 1074 965 913 1156 1091 1075 1748 1989 1869 1700 2158 2078 1742 1451
24 0 0 0 0 0 0 0 17 145 589 650 558 538 762 1006 1058 973 837 999 1021 777 846 868 839 948 1042 1218 1536 1440 1341 1399 1546 1610 1776 1863 1758 1910 2069 2168 1906 1850 881
78 4 0 0 0 0 0 0 0 44 107 636 774 773 873 803 960 1049 977 730 837 943 1007 1281 1411 1326 1217 1185 1172 1675 1768 1653 1725 1730 1671 1855 1926 1991 2178 2065 1877 969 1042
96 97 38 0 0 0 0 0 0 0 56 47 742 903 778 923 966 921 947 831 906 975 950 940 954 1054 1306 1493 1447 1443 1474 1391 1470 1644 1759 1818 1928 2144 2044 1716 1151 1017 1326
47 111 136 83 0 0 0 0 0 0 1 44 144 820 1148 1024 910 843 828 965 976 843 795 832 784 945 1027 1398 1667 1620 1598 1289 1459 1870 1942 1843 1712 1500 1401 1312 1156 1164 1451
297 159 136 124 109 0 0 0 0 0 0 8 134 229 404 915 945 677 675 738 768 721 597 563 607 796 938 909 1020 1239 1503 1549 1568 1640 1696 1624 1572 1467 1081 1086 1102 1412 1238
195 201 240 136 162 170 20 0 0 0 0 0 0 143 295 395 620 729 820 875 807 777 738 698 698 839 794 803 862 960 1065 1196 1538 1757 1643 1412 1016 992 1088 1063 1176 1281 1300
457 492 411 302 244 239 209 82 0 0 0 0 0 0 95 292 442 715 899 882 873 824 843 861 772 773 868 880 858 818 767 752 708 580 695 724 846 904 1018 1166 1262 1334 1485
23 1 1 0 119 478 327 281 249 26 0 0 0 0 0 26 305 325 676 1043 1090 1109 1078 888 811 861 931 913 1019 957 860 768 839 819 838 796 790 791 855 979 1153 1422 1723
0 4 2 0 0 0 477 438 340 319 192 118 42 0 0 5 23 56 86 561 690 733 845 775 699 852 868 946 1015 987 909 801 823 643 540 615 720 780 722 802 1320 1719 1847
0 0 2 1 1 0 0 221 555 510 468 447 471 342 99 79 317 245 223 510 667 712 597 534 596 555 485 482 584 866 785 804 726 746 857 834 754 899 1109 1153 1228 1716 1859
0 0 0 0 1 0 0 216 787 744 702 698 784 842 761 604 311 256 230 389 791 827 981 1023 905 789 565 344 215 312 372 450 548 664 680 654 692 869 1103 1349 1509 1531 1681
0 0 0 0 1 0 1 54 706 990 917 946 954 1028 1117 1132 1010 765 667 505 663 1087 1304 1375 1300 1071 815 501 355 465 405 314 446 468 542 687 809 839 925 1057 1232 1404 1776
0 0 0 0 0 5 13 299 600 1185 1049 1119 1195 1135 1118 1141 1296 1404 912 553 515 589 916 1235 1321 1148 1016 985 817 611 410 577 715 735 744 664 526 701 811 961 1267 1813 1968
0 0 0 0 0 1 17 428 1147 1337 1343 1156 1284 1331 1282 1331 1303 1325 1447 1240 1082 952 909 1009 1173 1116 1193 1179 1133 1140 1083 730 698 671 727 768 807 889 950 1103 1529 1963 2122
0 0 0 0 0 0 2 75 1163 1183 1260 1213 1208 1489 1591 1460 1363 1204 1234 1332 1267 978 885 1332 1339 1297 1390 1338 1491 1495 1261 1185 1067 901 911 997 1141 1121 1162 1128 1842 2006 2077
0 0 0 0 0 0 2 2 293 1079 1169 1096 1118 1171 1391 1584 1339 1305 1227 957 622 677 1776 1525 1669 1689 1553 1620 1676 1657 1685 1504 1293 1220 1166 1069 1069 1067 1077 1619 2099 2137 2139
0 0 0 0 0 0 1 5 5 270 1003 1584 1204 992 975 1106 1287 1260 872 581 652 518 1378 1823 1799 1797 1841 1794 1621 1521 1493 1398 1252 1347 1334 1348 1378 1376 1693 2118 2364 2494 2329
0 0 0 0 0 0 1 0 1 20 360 868 1231 872 545 547 605 469 323 1376 1776 1539 1160 1558 1666 1774 1655 1585 1524 1438 1386 1428 1567 1675 1792 1925 2009 2141 2265 2432 2495 2383 2018
0 0 0 0 0 0 2 1 0 0 43 361 1022 1271 544 497 942 905 685 984 1352 1371 1225 1019 810 830 1044 1124 1201 1301 1423 1737 1895 2074 2225 2223 2322 2389 2433 2390 2279 2016 1930
0 0 0 0 1 0 2 1 0 0 0 9 10 0 188 837 863 655 589 266 143 57 39 109 12 0 0 0 48 336 1129 1658 1692 1857 1986 2018 2265 2407 2272 2174 1980 1800 1765
0 0 0 0 2 1 2 4 3 3 2 4 7 6 3 1 2 1 4 11 14 14 8 8 14 17 14 6 7 3 1 2 3 48 347 1077 1718 2102 2056 1829 1837 1616 1472
0 0 0 0 4 3 4 4 5 4 5 6 6 10 10 10 12 13 19 16 13 10 11 11 9 8 6 6 6 8 9 9 6 6 6 7 641 1308 1425 1740 1869 1544 1316
2 1 1 3 6 5 4 5 6 5 6 6 4 6 8 9 11 9 7 7 6 10 6 3 1 1 0 0 0 0 0 0 1 5 3 2 5 164 902 1271 1332 1295 1171
3 3 4 5 7 6 5 4 6 7 6 7 8 6 3 4 7 8 8 8 8 10 10 8 6 0 0 0 0 0 0 0 0 0 0 0 0 0 0 0 12 94 293
3 4 5 5 6 6 6 5 6 7 8 7 7 6 8 8 6 6 5 5 6 6 6 6 5 7 2 1 1 0 0 0 0 0 0 0 0 0 0 0 0 0 0

GFSGL_con_mlcape_090.txt.gz
CAPE
41 43 2 0 0 0 0 0 20 246 499 492 526 639 868 802 917 848 588 705 845 867 811 795 974 1014 1071 1351 1500 1325 1122 933 1094 1123 1154 1760 1740 1957 2071 2279 2125 1678 1215
46 51 33 0 0 0 0 0 0 43 158 459 571 539 716 827 889 971 947 840 627 826 842 955 960 966 1013 1122 1294 1457 1561 1453 1451 1564 1708 1702 1786 2003 2153 2113 1976 1476 1295
11 0 0 2 0 3 0 0 0 0 0 36 186 595 551 678 778 871 974 1025 979 774 990 1029 1068 1396 1444 1398 1376 1340 1425 1686 1635 1493 1529 1780 1970 2072 2021 1764 1579 1248 1264
33 0 0 0 0 0 0 0 0 0 0 0 108 274 634 766 851 918 875 987 986 877 734 853 1001 1033 951 1068 1311 1599 1599 1595 1612 1485 1603 1815 1886 1930 1719 1466 1062 1351 1292
39 69 36 2 0 0 0 0 0 0 0 0 2 122 244 633 846 840 967 998 995 881 845 904 915 900 881 948 1123 1156 1505 1599 1644 1626 1552 1577 1523 1501 1343 1286 1157 1091 1244
132 71 98 76 38 0 0 0 0 0 0 0 0 0 71 331 737 841 967 914 909 842 911 930 850 710 687 585 711 885 1086 1167 1230 1447 1476 1360 1408 1246 1054 918 976 1076 1024
75 193 168 142 138 99 4 0 0 0 0 0 0 0 0 53 159 360 590 864 770 690 748 772 766 772 712 843 809 717 654 698 946 1361 1193 1024 727 711 879 933 974 1056 1179
2 172 276 234 215 153 113 11 0 0 0 0 1 17 0 0 12 83 177 366 577 669 777 864 866 839 821 896 836 886 980 960 863 727 791 899 959 1015 990 1022 1023 1036 1214
0 3 2 12 269 297 243 218 117 0 0 0 0 0 29 13 0 0 0 105 250 331 586 828 888 886 840 729 750 638 840 921 963 828 796 794 718 615 625 793 762 946 1292
0 0 3 2 1 1 231 292 248 170 109 2 0 0 0 29 5 0 0 1 0 87 515 721 659 807 642 503 578 569 552 447 802 799 764 589 487 560 479 476 830 1023 1297
0 0 0 2 3 2 1 0 95 222 317 291 156 82 14 0 0 0 0 157 125 37 42 60 184 39 89 215 261 694 550 678 808 734 710 707 767 823 850 603 641 983 1311
0 0 0 0 4 4 0 0 0 98 303 361 465 399 322 173 3 20 0 3 141 161 133 274 318 182 83 103 116 267 370 325 473 486 539 587 609 585 655 879 1045 971 1189
0 0 0 0 1 1 3 0 0 28 173 276 536 602 622 628 492 92 77 33 31 294 531 585 581 569 616 509 402 494 306 194 349 553 691 728 713 662 778 798 861 1082 1180
0 0 0 0 0 0 2 4 0 40 112 355 690 868 877 906 989 934 358 54 49 64 360 577 762 855 802 911 776 561 388 480 585 815 949 995 846 679 724 731 853 1022 1117
0 0 0 0 0 0 0 1 3 1 365 621 738 895 1003 988 1058 1132 1075 711 630 492 446 522 748 823 981 978 911 931 864 790 744 845 874 1007 891 799 862 857 912 1049 1193
0 0 0 0 0 0 0 0 0 0 22 315 756 869 1106 995 991 819 756 809 753 491 468 945 956 933 939 902 838 828 717 799 894 1019 959 961 1023 996 1038 983 1040 1220 1084
0 0 0 0 0 0 0 0 0 0 0 50 364 430 639 1140 900 867 836 643 446 265 1159 1138 1171 1145 1053 1095 1164 1117 1124 1199 1248 1174 1100 1057 955 1007 967 1039 1090 1146 1185
0 0 0 0 0 0 0 0 0 1 3 56 145 289 546 476 294 391 408 256 408 87 995 1467 1408 1353 1379 1412 1388 1451 1529 1507 1368 1287 1238 1158 1074 1013 938 880 999 1210 1723
0 0 0 0 0 0 0 0 1 0 0 0 1 89 107 78 64 1 8 712 1122 989 753 1151 1405 1608 1455 1613 1626 1541 1525 1549 1437 1262 1166 1161 1233 1239 1383 1454 1514 1659 2011
0 0 0 0 0 3 1 1 0 0 0 0 4 21 13 3 58 44 6 85 587 1064 1139 1037 1170 1177 1266 1474 1347 1166 1207 1156 1102 1075 1123 1300 1463 1517 1860 2030 2075 2098 1866
0 0 0 0 1 1 1 0 1 2 0 0 0 4 4 0 229 294 253 102 48 66 116 155 26 0 0 0 0 0 36 158 441 869 1139 1318 1344 1476 1567 1822 2149 2071 1979
0 0 0 0 0 2 1 0 2 3 4 4 2 4 4 2 2 2 4 6 9 8 10 9 11 12 13 7 7 4 2 1 2 3 3 4 75 395 1084 1319 1371 1439 1266
0 0 0 0 1 3 3 1 4 5 7 6 6 6 9 9 9 10 12 12 10 9 9 7 7 5 5 6 5 5 6 6 5 6 3 4 3 3 175 596 749 782 705
0 0 0 0 1 4 4 4 5 7 6 6 7 8 9 12 13 14 11 9 7 7 7 8 9 8 2 0 0 0 0 0 1 3 1 2 2 0 0 19 43 223 477
2 2 2 1 1 4 5 5 5 6 6 5 5 6 6 6 7 8 6 6 7 7 5 5 6 5 5 4 1 0 0 0 0 0 0 0 0 0 0 0 0 0 0
2 3 4 4 5 5 5 4 4 4 4 4 5 5 5 5 5 5 6 5 5 5 5 7 6 2 2 2 1 0 0 0 0 0 0 0 0 0 0 0 0 0 0

GFSGL_con_mlcape_093.txt.gz
CAPE
378 408 346 223 147 213 99 494 848 759 764 1048 1476 1499 1527 1551 1804 1365 1466 1446 1473 1713 1670 1592 1538 1839 1666 1741 2019 2121 2014 1807 1552 1479 2082 2133 2604 2741 2862 2989 2335 1897 1785
356 430 452 404 261 159 118 0 307 730 861 862 1226 1294 1402 1476 1686 1306 1031 1475 1430 1307 1526 1697 1535 1669 1774 1883 1815 2020 2036 2402 2170 2090 2004 2048 2284 2702 2967 2881 2537 1764 2087
243 170 296 428 377 285 219 158 70 172 520 882 1075 1012 1344 1460 1562 1545 1591 1749 1840 1804 1695 1651 1653 1887 1913 1876 2157 2089 1946 2117 2279 2188 1996 1893 2224 2433 2244 2014 2099 2064 1453
305 224 285 348 517 375 463 434 240 137 106 367 649 714 876 1329 1488 1558 1589 1631 1718 1788 1844 1661 1477 1642 1718 1864 1808 2038 2224 2323 2060 2122 1699 1607 1754 1948 2365 1590 930 1129 1415
539 419 411 493 497 476 357 494 565 422 251 208 292 552 888 1067 1360 1588 1654 1630 1508 1697 1804 1711 1428 1376 1154 1238 1204 1184 1739 1682 1436 1386 1269 1244 1169 1209 1379 1191 1005 1136 1215
219 393 483 523 455 372 323 278 337 428 453 403 321 202 261 641 507 595 1187 1581 1690 1632 1604 1700 1603 1198 948 626 539 533 810 1232 1315 1095 919 1035 1626 1588 952 1157 1320 1341 997
0 17 441 499 550 506 393 289 263 273 365 419 377 410 307 163 175 252 290 1320 1704 1640 1534 1493 1555 1313 1072 1263 1009 586 490 500 686 1088 1226 1355 1160 1460 1687 1703 1556 1621 1529
0 0 1 8 469 685 621 495 398 339 313 389 441 446 440 439 36 0 3 429 1254 1536 1562 1497 1419 1369 1506 1378 1387 1436 1538 1424 1407 975 1044 1252 1620 1815 1852 1739 1654 1532 1529
0 0 0 0 2 12 496 519 507 300 308 307 371 445 487 482 170 0 0 36 365 963 1163 1274 1295 1160 1188 777 1038 1074 1325 1214 1045 1070 935 1042 1019 823 763 1106 1232 1265 1085
0 0 0 0 0 0 0 12 355 388 152 199 204 314 357 459 341 19 0 114 55 73 552 1031 753 720 733 335 671 794 903 746 986 1093 1337 990 653 748 375 561 1160 1235 1048
0 0 0 0 0 0 2 2 0 64 347 422 386 308 299 333 351 50 0 117 337 380 206 92 174 144 0 77 116 593 527 925 978 1327 1272 1145 1125 1253 1355 1262 1127 1248 1081
0 0 0 0 0 0 0 0 0 3 15 12 320 530 603 447 200 75 0 1 186 391 571 593 635 295 85 3 0 0 115 316 882 1028 957 722 773 962 1147 1364 1569 1549 1450
0 0 0 0 0 0 0 0 0 2 14 33 155 533 544 841 747 171 0 0 0 65 466 589 469 320 81 0 0 35 59 343 682 855 720 626 842 1134 1474 1503 1614 1872 1926
4 0 0 0 0 0 0 0 0 3 5 19 21 363 526 796 1013 1077 376 17 0 0 2 190 347 384 423 555 559 227 327 881 980 899 775 849 1212 1484 1492 1497 1394 1395 1521
1 1 0 0 0 0 0 0 0 0 2 4 67 409 605 640 982 1228 1293 902 349 255 290 347 575 726 797 918 987 1189 1326 1199 986 992 1018 1026 1204 1355 1455 1519 1516 1438 1442
2 1 0 0 0 0 0 0 0 0 0 0 0 0 38 716 857 798 767 810 523 214 177 705 924 930 914 932 974 1042 1128 1148 1093 971 947 1087 1307 1460 1621 1560 1606 1714 1487
8 0 1 0 0 0 0 0 0 0 2 0 0 0 0 85 423 439 371 299 304 156 714 979 1172 1174 999 1009 1031 938 1026 893 1060 1044 1172 1409 1621 1625 1650 1574 1509 1420 1559
5 0 0 0 0 0 0 0 0 0 0 0 1 0 0 5 37 53 39 18 154 16 576 998 1313 1106 1136 1119 970 898 990 1135 1683 1772 1764 1798 1801 1766 1398 1301 1185 1113 1078
7 0 0 0 0 0 0 0 0 3 2 0 1 1 0 1 2 0 0 200 334 377 274 611 1029 1338 1537 1513 1411 1210 1204 1435 1684 1856 2020 2102 1782 1486 1218 1232 1245 1016 1150
0 0 0 0 0 0 0 1 5 2 2 0 0 2 1 2 4 57 0 90 102 445 798 535 474 978 1391 1660 1596 1360 1459 1361 1716 1941 2009 1984 1826 1521 1242 1407 1456 1674 1615
0 0 0 0 0 0 4 5 5 4 2 4 4 5 2 1 1 3 88 9 30 178 15 3 40 40 14 50 213 412 496 388 162 167 296 618 992 1347 1463 1471 1491 1651 1852
0 0 0 0 0 1 2 4 4 4 4 3 6 8 4 2 2 1 1 6 6 5 1 0 0 7 8 7 9 9 6 3 2 1 1 1 1 9 113 474 923 1399 1800
1 0 0 0 0 0 4 4 3 5 6 8 7 5 7 6 7 11 7 9 8 5 5 6 6 8 9 7 5 7 8 4 3 2 2 1 2 2 2 45 279 501 1186
1 1 2 0 1 1 4 3 6 6 7 7 7 6 6 6 11 12 7 6 4 4 5 5 5 7 8 8 9 7 9 9 10 7 3 4 1 1 4 2 2 36 349
1 2 3 2 3 3 4 4 5 6 7 6 6 5 6 7 7 6 5 5 6 6 4 5 6 4 4 1 1 1 0 1 1 0 1 0 0 0 0 2 1 4 4
2 3 4 4 5 5 6 6 4 5 6 5 5 5 5 5 5 5 5 6 5 4 3 5 4 4 2 1 0 0 0 0 0 0 0 0 0 0 0 0 0 0 0

GFSGL_con_mlcape_096.txt.gz
CAPE
1158 1071 1219 1257 1329 1312 937 906 1011 1424 1454 1577 1975 1854 1686 1562 1683 1723 1624 1357 1837 1547 1672 1814 1770 1816 1273 1062 1254 1393 1340 1246 1246 919 1423 1736 2323 2388 2755 2897 2076 1705 1194
1063 1070 1146 1152 1182 1071 1056 840 826 1130 1592 1475 1456 1807 2020 2000 2005 1765 1142 1211 1633 1646 1721 1643 1628 1331 2000 1815 1312 1333 1209 1470 1400 1530 1725 1696 1769 2180 2535 2560 1956 1361 1723
826 905 1013 1106 1062 961 1051 1118 851 802 1042 1205 1319 1611 1886 1954 2004 2215 1661 1414 1586 1725 1868 1852 1436 1462 1756 1349 1602 1456 1353 1566 1552 1514 1606 1612 1703 1704 2058 1729 1697 1028 829
643 810 792 868 966 945 1108 1203 1205 1053 953 871 1064 1285 1550 1825 1918 1909 1978 2047 1862 1526 2010 2055 1671 1072 1488 1741 1943 2041 1983 2084 1871 1784 1657 1411 1088 1227 1414 1165 682 575 808
800 862 906 944 801 875 1060 1043 1182 1280 1176 1081 902 803 1034 1222 1454 1901 1894 1868 2133 2138 2014 2141 1666 1094 848 1031 954 1120 1176 1532 1421 1136 972 691 635 825 978 833 623 618 903
45 632 969 914 1015 1077 1118 1293 1252 1282 1343 1282 1199 939 647 389 303 893 1506 1763 1858 1996 1885 2246 2044 1525 1381 947 761 506 670 1274 1319 714 203 224 833 1115 794 705 865 916 1003
5 5 8 300 871 1011 1087 1060 1149 1235 1238 1268 1297 1213 1018 828 141 197 643 1088 1339 1615 1814 1842 1921 1298 1633 1826 1339 769 506 421 489 1064 1294 1283 1089 1104 1348 1708 1630 1811 1517
0 3 4 6 3 138 787 1007 1020 1126 1114 1200 1220 1270 1218 1181 747 238 54 704 1042 1313 1516 1656 1804 1502 1307 1622 1766 1670 1521 1327 1429 1276 1189 1383 1514 1452 1786 2039 2102 2198 1869
0 0 0 3 4 0 7 106 424 1006 1098 1129 1146 1221 1363 1308 869 459 163 287 70 758 1176 1567 1741 1755 1727 1484 1543 1153 1218 1028 699 887 795 899 1219 1197 1126 1290 1015 741 408
0 0 0 0 0 1 1 1 5 41 560 974 962 1037 1152 1261 1208 682 221 474 390 11 107 1107 1193 1339 1471 1275 1396 1236 1058 778 603 574 940 1047 957 1101 580 729 1024 746 419
0 0 0 0 0 0 2 0 0 0 46 280 549 851 912 1043 1177 660 329 521 559 536 257 3 2 168 388 372 655 1391 1178 866 476 542 840 927 885 876 1123 1476 1520 1140 616
0 0 0 0 0 0 1 0 0 0 0 118 33 88 527 1004 879 711 295 108 497 643 811 718 742 364 0 7 23 122 362 677 430 1 46 241 338 282 213 525 1495 2087 1723
0 0 0 2 0 0 0 0 0 0 2 2 103 108 63 260 896 884 402 63 4 71 632 821 773 572 261 40 9 42 31 281 240 22 49 253 316 305 536 879 1528 2252 2472
0 0 0 0 1 0 0 0 0 0 0 0 3 8 83 77 181 514 892 201 20 0 0 110 410 577 635 706 593 128 180 367 324 272 432 520 478 400 332 761 1029 1084 1366
0 0 0 0 0 0 0 0 0 0 0 0 0 2 2 10 180 112 3 603 1370 510 116 276 443 507 730 844 765 708 813 828 605 729 848 877 788 560 409 568 827 1014 1107
0 0 0 0 0 0 0 0 0 0 0 0 0 0 1 0 0 0 0 0 73 275 349 396 947 1191 1331 1362 1301 1068 824 834 948 1033 990 934 878 658 324 345 679 1002 1090
0 0 0 0 0 0 0 0 0 0 0 0 0 0 0 0 0 0 0 0 0 36 656 1024 998 1198 1513 1666 1705 1116 1084 1232 1264 938 690 718 627 332 267 545 794 1132 1307
0 0 0 0 0 0 0 0 0 0 0 0 0 0 0 0 0 0 0 4 4 5 457 968 1309 1365 1420 1628 1317 1214 1186 1090 1446 1387 723 587 554 569 696 885 1046 1367 1879
8 2 0 2 2 0 0 0 0 0 0 0 1 0 2 0 0 0 0 3 85 213 76 281 888 1211 1325 1516 1539 1394 1398 1324 1341 1377 1373 1720 1698 1554 1212 1211 1813 1742 1934
10 4 9 10 7 6 2 0 0 0 0 0 0 1 1 0 0 1 3 1 2 323 648 317 308 549 837 1187 1344 1378 1416 1455 1506 1389 1501 1688 1768 1817 1825 1962 2034 2076 2157
0 4 10 14 16 14 11 1 0 0 0 0 0 1 0 0 1 4 6 3 2 48 127 318 211 74 79 148 204 356 737 1212 1339 1554 1382 1068 1166 1300 1659 1600 1387 1469 1544
1 2 2 14 21 21 19 4 1 1 0 0 0 0 0 2 6 6 6 3 3 5 2 1 0 1 1 1 4 4 8 31 14 7 9 44 65 60 108 276 453 675 1051
7 4 2 7 7 16 3 1 1 2 1 2 1 1 4 7 8 7 7 6 5 6 7 7 3 0 5 6 7 9 7 7 5 5 4 4 3 3 4 15 84 290 585
3 0 0 2 1 2 9 4 2 0 1 2 4 5 6 8 8 6 5 5 5 4 5 4 5 5 4 4 4 4 2 3 1 5 7 5 6 5 6 6 5 3 5
4 4 6 5 3 4 2 0 0 3 4 6 6 7 7 7 6 5 5 4 5 5 5 6 7 6 4 6 3 3 1 0 0 0 1 3 1 2 2 2 1 3 0
4 4 3 4 4 3 4 4 4 5 6 7 7 7 6 5 4 4 4 4 5 5 5 5 6 6 1 0 0 0 0 0 0 0 0 0 0 0 0 0 0 0 0

GFSGL_con_mlcape_099.txt.gz
CAPE
1854 1814 1767 1729 1930 2049 1610 1297 1215 1203 1318 1633 1840 1513 1512 1265 1489 1787 1754 1934 2051 1756 1781 1722 1893 2096 1602 945 995 1077 1179 1258 1306 1363 1413 1529 2102 2683 2654 3138 2475 2063 1215
1467 1581 1646 1748 1777 1770 1795 1445 1345 1307 1407 1443 1804 1917 1821 1652 1666 1591 1570 864 1361 1369 1254 1432 1570 1490 1985 2029 1421 1319 1168 1559 1360 1418 1440 1894 2005 2251 2414 2890 2142 1712 895
1462 1560 1590 1723 1783 1601 1609 1644 1399 1426 1403 1455 1520 1684 1728 1853 2013 1899 1903 1575 1641 1772 1570 1335 1305 1441 1646 1568 1957 1587 1293 1916 2095 1933 1697 1474 1681 1751 1699 1798 2090 1236 850
912 932 1473 1566 1739 1623 1518 1587 1692 1543 1469 1450 1577 1555 1562 1743 1821 1710 1832 2060 1808 1612 1734 1621 1350 1263 1392 1789 1892 2113 1977 1905 1633 1752 1760 1585 1337 1087 1165 1182 851 669 620
254 839 904 1140 1273 1514 1570 1519 1601 1771 1675 1593 1481 1295 1225 1307 1284 1635 1727 1647 2008 1979 1779 1782 1575 1153 1036 1128 1158 1515 1842 1658 1345 1287 1193 896 597 1209 1299 629 949 661 642
1 5 38 807 1015 1378 1387 1568 1719 1613 1838 1864 1774 1535 1265 723 96 547 1262 1656 1750 1976 2077 2194 2108 1707 999 768 592 330 425 1214 1546 769 316 258 771 665 598 711 1151 564 990
0 2 5 5 42 720 1319 1557 1596 1601 1673 1700 1892 1830 1718 1637 892 74 161 901 1484 1921 1846 2237 1860 1109 1534 1783 1447 882 559 396 405 850 1142 1187 1056 1459 1544 1870 1240 1906 1594
0 0 0 0 3 5 36 1113 1184 1444 1556 1528 1576 1755 1812 1908 1389 853 265 307 949 1419 1673 1969 1940 2045 2112 2243 2022 1923 2094 2044 1561 932 815 1055 1511 1688 1792 1752 2211 2575 2040
5 0 0 0 0 3 6 1 77 766 1059 1547 1482 1471 1517 1909 1617 1134 823 799 352 670 1305 1592 1928 2213 2354 1669 1660 1974 2053 1843 1059 1270 1455 1559 1842 1545 1269 1169 829 617 446
0 2 3 0 0 0 0 1 3 2 206 348 813 1235 1180 1321 1576 1348 991 1119 947 771 867 902 581 1192 1791 1885 1799 1910 1948 1905 1605 945 970 739 631 841 580 695 938 748 560
0 0 0 2 0 0 0 0 2 4 4 2 123 350 974 1183 1403 1157 915 1337 1274 988 917 855 500 172 93 322 870 1846 1878 1982 1800 1396 1054 703 487 727 1485 1906 1806 1236 826
0 0 0 0 0 0 0 0 0 0 0 0 0 59 340 627 894 1186 668 572 1153 1151 1232 1087 1071 450 0 0 15 237 411 849 1015 709 414 80 6 16 208 529 1687 2022 1850
0 0 0 0 0 0 0 0 0 0 0 0 0 2 38 671 464 285 640 543 381 494 973 1128 726 356 176 85 0 2 9 139 386 492 569 405 117 22 121 455 690 1856 2840
0 0 0 0 0 0 0 0 0 0 0 0 0 0 35 126 371 455 314 395 158 15 37 275 321 230 102 198 451 300 135 274 468 701 810 734 435 139 261 466 439 389 609
0 0 0 0 0 0 0 0 0 0 0 0 0 0 0 0 6 0 0 0 0 1 0 12 628 769 565 616 882 1097 1209 885 645 665 801 739 530 529 663 614 484 358 495
0 0 0 0 0 0 0 0 0 0 0 0 0 0 0 0 0 0 0 0 0 0 0 2 211 644 916 1109 1099 1209 1292 1128 1085 1136 982 788 755 867 940 948 803 545 488
5 0 0 0 0 0 0 0 0 0 0 0 0 0 0 0 0 0 0 0 0 0 0 0 1 484 816 993 1271 1538 1586 1508 1367 1080 1029 1144 1174 1269 1004 796 814 630 517
8 8 4 0 0 0 0 0 0 0 0 0 0 0 0 0 0 0 0 0 0 0 0 0 3 228 806 810 970 1350 1466 1711 1618 1466 1430 1455 1135 728 599 627 539 399 559
9 6 3 3 1 0 0 0 0 0 0 0 0 0 0 0 0 0 0 0 3 0 0 3 42 705 819 442 580 1239 1366 1330 1411 1169 1416 1428 1621 1205 566 591 632 451 544
5 3 1 6 5 0 3 4 1 0 0 0 0 0 2 0 0 0 0 1 2 3 3 10 281 235 438 512 175 319 1219 1287 922 965 1122 1227 1454 1507 1452 1487 1562 1673 1374
7 3 1 0 0 6 17 8 1 3 2 5 5 1 0 0 0 0 1 1 2 1 3 2 1 23 74 45 78 22 93 339 600 835 997 1164 1403 1434 1552 1712 1666 1736 1715
3 4 4 0 0 6 26 21 22 20 17 20 14 9 0 0 0 1 2 5 7 7 7 5 5 6 1 0 0 0 0 0 6 7 26 38 100 266 423 542 629 626 728
7 6 4 2 5 0 1 6 1 19 12 23 24 23 11 1 0 1 4 6 8 6 5 5 5 5 6 4 5 5 2 0 0 4 0 0 4 4 12 40 111 143 211
5 6 4 0 0 0 0 0 0 3 0 0 2 4 1 0 1 3 5 8 7 7 5 5 5 6 4 3 3 2 5 5 4 3 6 0 4 3 3 3 24 29 17
6 4 3 3 3 3 1 0 0 0 0 0 1 1 3 3 5 5 5 7 6 5 4 4 4 5 6 4 3 2 1 0 1 0 0 1 2 0 0 3 1 0 0
5 4 3 3 1 2 4 3 3 1 2 2 2 3 4 5 5 5 5 5 4 4 3 2 3 4 3 1 0 0 0 0 0 0 0 0 0 0 0 0 0 0 0

GFSGL_con_mlcape_102.txt.gz
CAPE
2066 2206 2031 2116 2272 2170 1794 1076 774 1195 773 143 0 422 1038 1368 1631 1708 1442 1373 1281 1317 1602 1619 2029 2071 1649 1979 2204 2183 1613 1679 1909 1992 1631 1515 1467 2046 3292 2674 2948 2447 1469
1332 1610 1722 2156 2177 2216 2038 1785 1324 1117 1121 1149 970 1304 1385 1481 1390 1746 1512 1686 1408 1742 1672 1405 1708 1704 1918 1645 1254 1101 1184 1131 927 1300 1709 2118 2539 1936 2971 2410 2427 2131 1866
995 1193 1632 1782 1597 2005 2330 2138 1840 1522 1403 1484 1398 1522 1449 1336 1540 1584 1677 1197 1478 1642 1767 1641 1446 1616 1599 1665 1886 2128 2224 2387 2088 2471 2419 1537 1745 2077 2141 1993 1879 1992 1118
251 331 881 1368 1546 1606 1765 2004 1944 1774 1685 1705 1927 1925 1875 1742 1705 1529 1887 1728 1313 1655 2018 1888 1769 1749 1801 1756 1954 1762 1691 1485 1597 1682 1596 2014 2001 1692 2019 1063 667 1140 1058
7 4 64 316 824 970 1308 1344 1644 1912 1978 1850 1913 2037 2092 1882 1592 1683 1636 1622 1542 1471 1663 1676 2234 1866 1719 1703 1497 1641 1772 1914 1907 1644 1439 958 606 794 620 900 1238 1353 716
0 0 1 10 68 172 701 1053 1254 1512 1945 2076 2036 1986 1716 1605 623 533 1709 1494 1767 1747 1522 1833 2309 2264 1460 948 710 564 517 630 1271 1714 696 306 664 1065 1067 1064 870 573 993
0 0 0 2 4 1 10 161 834 1064 1214 1499 1600 1890 2036 1940 1326 627 151 360 926 1519 1655 1507 1576 1579 1726 1575 923 723 358 172 185 184 283 618 477 296 550 873 1186 1488 1081
0 0 0 0 0 0 0 2 10 232 1039 1102 1290 1503 1525 1767 1863 1504 950 815 564 764 960 1433 1804 1775 1655 1895 2195 2194 1773 1522 1272 805 513 302 446 680 1076 1119 1441 1943 2162
0 0 0 0 0 0 0 0 0 0 27 442 994 1215 1367 1452 1631 1342 1225 1308 1208 1010 634 1056 1428 1528 2021 2086 1854 1548 1892 2548 2440 1958 1641 1264 995 851 1175 1545 1218 818 465
0 0 0 0 0 0 0 0 0 0 0 0 33 636 1042 1386 1405 1245 927 1285 1551 1443 1393 1128 703 686 843 960 1604 2105 1772 1380 1614 1829 1626 803 837 927 940 1118 1011 677 714
0 0 0 0 0 0 0 0 0 0 0 0 0 6 180 710 1204 929 809 1057 1437 1444 1375 1345 1330 1100 685 443 136 826 1169 1645 1707 1688 1776 1730 1491 1167 1141 914 675 717 786
0 0 0 0 0 0 0 0 0 0 0 0 0 0 0 119 733 609 445 456 948 1220 1070 1080 1206 793 457 62 0 7 15 156 869 1124 1216 1102 832 557 395 384 767 1206 1357
0 0 0 0 0 0 0 0 0 0 0 0 0 0 0 5 111 201 98 21 7 3 286 586 223 409 453 289 352 319 61 17 84 377 553 637 619 533 322 147 41 581 1532
0 0 0 0 0 0 0 0 0 0 0 0 0 0 0 0 0 0 0 0 0 0 0 0 0 0 28 244 246 379 217 190 276 183 162 232 381 548 602 438 85 0 771
0 0 0 0 0 0 0 0 0 0 0 0 0 0 0 0 0 0 0 0 0 0 0 0 0 0 334 888 886 730 557 502 319 306 304 371 523 719 724 518 198 108 452
0 0 0 0 0 0 0 0 0 0 0 0 0 0 0 0 0 0 0 0 0 0 0 0 0 0 4 370 706 1008 1009 743 903 890 748 688 671 636 662 633 533 432 477
4 2 1 0 0 0 0 0 0 0 0 0 0 0 0 0 0 0 0 0 0 0 0 0 0 0 1 21 196 383 259 678 1139 1242 1198 1162 930 764 602 463 472 504 537
2 0 1 3 0 1 0 0 0 0 0 0 0 0 0 0 0 0 0 0 0 0 0 0 1 3 4 6 72 317 446 303 518 679 232 376 650 896 1032 973 857 843 770
2 2 1 0 0 0 0 0 0 0 0 0 0 0 0 0 0 0 0 0 0 0 0 0 2 2 6 5 219 381 563 591 183 340 424 377 12 301 670 606 799 420 284
2 1 1 0 1 2 0 0 0 0 0 2 0 0 0 0 0 6 1 0 0 1 0 0 0 1 2 2 35 363 326 513 392 130 49 52 65 649 797 878 748 852 735
4 0 0 0 0 1 3 6 2 0 3 0 0 0 6 13 14 6 2 0 0 0 2 1 2 5 6 5 2 0 0 2 48 63 11 0 0 451 616 600 650 649 517
2 0 2 3 0 1 3 7 2 2 4 4 0 0 3 4 10 17 4 0 0 1 3 4 4 5 6 7 5 2 2 2 0 0 0 1 3 58 77 118 238 644 633
2 5 6 4 2 2 2 1 5 3 0 0 1 1 4 2 0 0 0 0 0 1 2 4 5 6 5 4 4 4 3 3 3 1 1 0 3 2 1 1 7 47 91
0 1 3 1 0 0 0 0 3 2 0 0 0 0 0 0 0 0 0 0 0 3 4 4 5 5 4 4 4 2 2 2 2 2 4 3 4 4 4 2 1 3 3
2 1 2 3 1 2 1 1 1 2 1 0 0 1 2 0 0 0 0 1 2 4 4 4 4 4 3 2 2 1 1 0 1 2 3 3 3 3 2 1 3 3 2
2 3 1 2 3 2 4 2 2 2 3 2 2 1 1 1 1 1 2 2 4 4 3 2 2 2 1 2 1 0 0 0 0 0 0 1 1 0 0 0 0 0 0

GFSGL_con_mlcape_105.txt.gz
CAPE
69 428 1067 1201 1246 1143 1027 1041 909 667 467 0 381 700 968 1461 1238 1392 1193 1327 1228 1447 1337 1524 1307 1757 1811 991 1214 1140 1149 1352 1255 1141 1144 1171 2084 1862 1687 2495 2441 2271 1864
0 144 762 1237 1287 1088 963 1660 961 905 695 429 48 0 657 1309 1242 1088 980 823 1112 989 1128 1300 1154 1605 1227 1707 1593 1648 1698 1732 1841 1528 1525 2100 2095 1425 1663 2184 2339 2034 1771
7 153 755 1208 1402 1195 1301 1417 1583 1297 1018 804 306 809 989 1044 1367 1282 1416 1336 1255 1374 1457 1377 1309 995 1172 1270 1167 1131 1231 1437 1624 1373 1380 1399 1315 1731 1369 749 533 1192 701
0 63 235 467 871 1025 1382 1810 1988 1703 1407 1400 1334 1361 1353 1378 1112 1208 1112 1185 1452 1218 1447 1506 1661 1587 1544 1504 1417 1222 1176 1393 1394 1413 1725 1421 1247 1219 774 797 537 808 526
3 19 24 123 150 386 815 1164 1482 1829 1751 1477 1473 1651 1736 1512 1309 1493 1453 1243 1413 1174 923 1438 1866 1819 1523 1662 1733 1441 1253 1175 1645 1577 1670 1239 822 150 566 833 134 321 432
0 8 9 96 52 24 79 343 1024 1148 1201 1553 1557 1357 1426 1856 1608 1404 1321 1282 1627 1216 1068 1054 1076 1342 1985 1788 1377 1192 992 692 148 292 523 671 293 59 211 37 186 278 155
0 0 0 0 0 0 0 24 152 339 808 1000 1165 1309 1614 1632 1571 1219 550 369 1310 1599 1772 1480 1230 1185 1089 1113 1580 1161 518 372 352 120 12 5 1 0 18 121 227 449 523
0 0 0 0 0 0 0 0 0 4 131 277 732 1062 1263 1371 1422 1485 1001 777 847 703 545 932 1344 1258 1184 1128 1359 1570 1515 1306 1090 725 579 658 532 490 483 489 590 829 1122
0 0 0 0 0 0 0 0 0 0 0 9 25 120 481 1067 1161 999 792 912 1048 1099 1030 906 775 772 1087 1247 1204 985 1365 1689 1735 1523 1467 1431 1218 860 769 974 925 897 487
0 0 0 0 0 0 0 0 0 0 0 0 0 0 0 150 509 719 550 655 988 1060 1254 1289 1107 957 761 603 621 722 804 1149 1750 1777 1365 1092 1189 1091 847 552 590 542 591
0 0 0 0 0 0 0 0 0 0 0 0 0 0 0 0 0 104 253 289 588 738 843 999 1278 1031 723 503 177 370 550 495 727 970 1250 1427 1411 1318 1153 964 739 758 599
0 0 0 0 0 0 0 0 0 0 0 0 0 0 0 0 0 6 5 0 2 103 366 642 752 140 142 179 208 320 250 123 242 204 360 605 812 987 1013 922 824 563 513
0 0 0 0 0 0 0 0 0 0 0 0 0 0 0 0 0 0 0 0 0 0 0 0 0 0 0 87 349 250 80 49 81 92 253 251 192 359 616 552 365 236 311
0 0 0 0 0 0 0 0 0 0 0 0 0 0 0 0 0 0 0 0 0 0 0 0 0 0 0 0 0 91 164 325 282 234 269 284 268 214 289 402 380 399 313
0 0 0 0 0 0 0 0 0 0 0 0 0 0 0 0 0 0 0 0 0 0 0 0 0 0 0 0 0 44 446 709 560 414 343 282 306 288 272 320 404 482 491
0 0 0 0 0 0 0 0 0 0 0 0 0 0 0 0 0 0 0 0 0 0 0 0 0 0 0 0 0 0 2 177 401 553 473 424 403 365 405 523 652 687 600
0 0 0 0 0 0 0 0 0 0 0 0 0 0 0 0 0 0 0 0 0 0 0 0 0 0 0 1 3 5 7 52 227 351 393 355 414 538 628 545 515 508 481
0 0 0 0 0 0 0 0 0 0 0 0 0 0 0 0 0 0 0 0 0 0 0 0 0 3 1 2 8 10 5 5 61 328 495 402 246 161 118 43 2 0 0
0 0 0 0 0 0 0 0 0 0 0 0 0 0 0 0 0 0 0 0 0 0 0 0 0 1 3 4 1 2 4 2 82 223 254 299 218 67 15 0 0 0 0
0 0 0 0 0 0 0 0 0 0 0 0 0 0 0 0 0 0 0 0 0 0 0 0 0 0 1 4 4 4 6 6 5 1 1 274 166 40 2 0 0 0 0
0 0 0 0 0 0 0 0 0 1 1 0 0 0 0 0 0 0 0 33 8 0 0 0 0 1 3 3 4 5 5 7 4 1 2 2 3 1 0 1 1 12 12
0 0 0 0 0 0 1 2 3 1 0 0 0 0 0 0 0 0 0 0 0 0 0 0 0 1 2 4 5 5 5 7 7 6 3 3 4 2 3 3 1 11 80
0 0 0 0 0 0 0 0 0 1 0 1 0 0 3 0 0 0 0 0 0 0 0 0 0 1 2 4 4 5 6 6 6 5 5 5 4 4 3 2 3 0 0
0 0 0 0 0 0 0 0 0 0 1 0 1 2 0 2 0 0 0 0 0 0 0 0 2 2 4 4 4 2 4 5 3 2 2 3 5 5 6 3 3 1 1
0 0 0 0 0 0 0 0 0 2 3 4 2 0 0 2 2 1 1 1 0 1 2 1 3 2 2 3 1 3 1 0 0 1 3 3 4 5 4 5 4 3 2
0 0 0 0 0 0 0 1 3 2 2 6 4 4 5 2 2 4 2 1 1 2 2 2 1 0 0 0 0 0 0 0 0 0 0 0 2 3 4 2 1 0 0

GFSGL_con_mlcape_108.txt.gz
CAPE
128 349 578 1032 1025 642 1075 1101 1010 585 489 162 621 441 871 1169 1204 1301 835 1265 1060 977 995 1103 1189 1422 1652 1140 1228 1070 1056 1172 1374 1291 1271 1470 1670 1425 1669 1822 2114 2046 1641
0 47 122 412 846 1093 1239 974 806 732 452 23 89 394 550 947 1307 1289 1176 1035 977 968 805 657 765 1059 1226 1123 1139 1131 1268 1373 1349 1387 1379 1179 1228 1367 834 768 954 936 764
29 16 57 293 339 947 866 1013 960 711 637 299 50 240 287 576 1199 1229 1104 959 814 1094 798 948 1056 1073 835 873 1052 1083 943 945 1126 1210 1189 1458 1601 1122 914 631 510 213 364
0 1 85 105 273 621 957 750 854 1018 785 659 605 270 25 621 828 1200 1228 1240 1220 1164 1096 1252 1415 1375 1307 1179 1241 1258 1196 1076 1024 995 1228 1220 1272 1016 698 180 117 56 115
2 0 18 27 104 197 214 271 695 845 1184 1229 1008 841 1111 1123 1240 1201 1007 1122 1027 1096 1250 1137 1261 1460 1710 1712 1641 1503 1489 1383 1065 832 630 711 621 401 79 137 27 105 212
0 5 3 21 14 30 65 91 97 362 977 1173 1371 1407 1548 1670 1604 1240 1219 1277 1320 955 1133 1222 949 879 990 1265 1406 1405 1536 1437 1035 745 573 270 3 0 37 59 143 245 325
0 0 0 0 0 0 2 3 18 49 218 463 826 1105 1371 1426 1462 1354 1164 956 958 867 1043 1361 1210 1148 1181 1113 952 907 1003 948 910 688 649 576 452 399 449 365 409 494 532
0 0 0 0 0 0 0 0 0 0 11 86 112 209 389 746 898 951 850 867 832 757 723 744 858 1063 1349 1176 1055 1057 1063 1133 1080 834 737 816 762 836 765 727 549 667 705
0 0 0 0 0 0 0 0 0 0 0 0 0 4 26 90 144 332 351 683 870 841 882 934 969 948 873 781 793 790 826 756 989 858 823 1163 1117 1007 871 924 1162 968 645
0 0 0 0 0 0 0 0 0 0 0 0 0 0 0 0 0 5 44 239 476 715 755 816 799 713 391 231 468 731 788 732 692 775 913 872 956 1040 851 677 959 747 519
0 0 0 0 0 0 0 0 0 0 0 0 0 0 0 0 7 1 3 74 186 307 411 523 520 40 0 8 8 280 378 168 253 252 263 422 654 782 814 722 624 738 518
0 0 0 0 0 0 0 0 0 0 0 0 0 0 0 0 0 0 0 0 0 4 17 0 0 0 0 0 0 204 176 15 117 240 228 283 343 466 617 717 675 554 659
0 0 0 0 0 0 0 0 0 0 0 0 0 0 0 0 0 0 0 0 0 0 0 0 0 0 0 0 0 0 0 3 45 41 101 220 224 153 141 205 293 476 552
0 0 0 0 0 0 0 0 0 0 0 0 0 0 0 0 0 0 0 0 0 0 0 0 0 0 0 0 0 0 0 0 0 33 154 243 231 186 172 106 129 208 202
0 0 0 0 0 0 0 0 0 0 0 0 0 0 0 0 0 0 0 0 0 0 0 0 0 0 0 0 0 0 0 0 0 50 136 190 229 197 218 209 136 130 177
0 0 0 0 0 0 0 0 0 0 0 0 0 0 0 0 0 0 0 0 0 0 0 0 0 0 0 0 0 0 0 0 0 3 2 37 92 149 194 212 227 282 329
0 0 0 0 0 0 0 0 0 0 0 0 0 0 0 0 0 0 0 0 0 0 0 0 0 0 0 1 0 0 0 0 3 4 5 20 94 230 275 280 261 257 328
0 0 0 0 0 0 0 0 0 0 0 0 0 0 0 0 0 0 0 0 0 0 0 0 0 0 0 0 0 0 0 0 1 3 4 5 20 88 98 99 194 198 99
0 0 0 0 0 0 0 0 0 0 0 0 0 0 0 0 0 0 0 0 0 0 0 0 0 0 0 0 0 0 1 0 0 2 5 5 4 3 6 10 21 6 0
0 0 0 0 0 0 0 0 0 0 0 0 0 0 0 0 0 0 0 0 0 0 0 0 2 1 0 0 0 0 0 0 0 0 4 5 4 4 3 18 11 7 0
0 0 0 0 0 0 0 0 0 0 0 0 0 0 3 0 0 0 0 2 1 0 0 0 0 0 0 0 0 0 1 1 3 3 4 5 4 6 7 2 4 3 3
0 0 0 0 0 0 0 0 0 0 0 0 0 0 0 0 1 0 4 6 0 0 0 0 0 0 0 0 0 1 0 0 1 3 5 6 6 7 7 7 2 4 4
0 0 0 0 0 0 0 0 0 0 0 0 0 0 0 0 9 6 3 7 0 0 0 0 0 0 0 1 1 0 1 0 2 6 8 7 7 8 8 8 7 3 3
0 0 0 0 0 0 0 0 0 0 1 0 0 0 2 3 1 1 2 4 1 0 0 0 0 1 2 4 3 3 2 2 3 4 4 4 6 7 8 8 8 6 5
0 0 0 0 0 0 0 0 0 0 0 0 0 2 4 5 4 1 4 6 3 1 0 0 1 1 2 1 0 0 0 1 0 0 0 1 2 4 5 5 7 7 6
0 0 0 0 0 0 0 0 0 0 0 1 3 3 1 2 6 6 4 6 5 2 1 1 0 0 0 0 0 0 0 0 0 0 0 0 0 3 5 4 4 6 5

GFSGL_con_mlcape_111.txt.gz
CAPE
465 596 655 656 603 359 55 46 350 466 527 534 614 832 918 825 787 891 953 856 909 968 1021 1039 950 1097 1446 1194 1125 1178 1284 1297 1156 1145 1121 1194 1241 1284 870 928 717 509 484
181 225 263 393 513 706 763 696 1009 787 453 235 304 541 618 654 987 1146 1232 1082 905 929 916 836 643 909 934 929 933 960 973 971 930 670 927 1121 1367 1331 961 612 317 167 207
1 29 18 23 258 565 946 1130 1034 675 611 376 39 21 281 444 829 1162 1136 1091 933 823 885 785 825 1065 1009 937 858 998 1043 1065 1067 1032 760 1103 1203 1143 1072 631 48 14 130
0 11 0 18 97 323 521 910 967 827 658 519 314 29 60 214 346 777 1161 1082 978 933 890 1110 1033 1287 1336 1259 1309 1375 1293 1163 1166 1139 950 737 642 420 285 10 0 9 130
18 33 39 36 7 94 211 357 436 558 866 837 681 504 383 198 46 595 821 1050 1071 991 991 1023 1096 1037 1189 1325 1604 1499 1446 1463 1392 1258 1113 733 507 344 180 111 211 169 278
32 8 1 1 8 16 53 96 114 197 271 436 769 1147 1209 950 1161 1014 1134 1060 925 1048 1173 1041 948 1104 1130 893 749 904 1089 1097 1162 1172 980 923 669 440 327 421 444 345 235
0 0 0 0 0 1 0 1 0 6 48 87 154 243 539 872 746 846 901 1039 1254 1220 1154 935 703 861 1168 1212 1099 955 776 730 819 916 857 740 599 548 453 557 614 560 423
0 0 0 0 0 0 0 0 0 0 0 0 0 1 12 146 184 359 546 654 719 815 776 744 765 797 752 673 680 870 1012 961 929 673 522 505 392 417 585 690 665 617 643
0 0 0 0 0 0 0 0 0 0 0 0 0 0 0 0 0 4 41 197 465 541 524 630 709 791 702 552 755 807 775 762 727 665 583 550 525 524 379 491 884 883 627
0 0 0 0 0 0 0 0 0 0 0 0 0 0 0 0 0 2 0 24 191 245 358 458 87 119 0 0 234 452 638 714 596 470 511 450 449 372 255 211 460 511 410
0 0 0 0 0 0 0 0 0 0 0 0 0 0 0 0 1 0 0 9 11 33 94 148 27 0 0 0 0 31 256 226 322 349 450 413 358 385 434 309 264 459 494
0 0 0 0 0 0 0 0 0 0 0 0 0 0 0 0 0 0 0 0 0 0 0 0 0 0 0 0 0 0 0 0 0 14 95 174 133 85 48 190 318 221 346
0 0 0 0 0 0 0 0 0 0 0 0 0 0 0 0 0 0 0 0 0 0 0 0 0 0 0 0 0 0 0 0 0 0 0 0 0 14 80 116 73 128 232
0 0 0 0 0 0 0 0 0 0 0 0 0 0 0 0 0 0 0 0 0 0 0 0 0 0 0 0 0 0 0 0 0 0 0 0 2 0 17 13 11 23 50
0 0 0 0 0 0 0 0 0 0 0 0 0 0 0 0 0 0 0 0 0 0 0 0 0 0 0 0 0 0 0 0 0 1 2 1 2 1 15 56 56 47 46
0 0 0 0 0 0 0 0 0 0 0 0 0 0 0 0 0 0 0 0 0 0 0 0 0 0 0 0 0 0 0 0 0 0 0 3 3 4 11 41 90 111 112
0 0 0 0 0 0 0 0 0 0 0 0 0 0 0 0 0 0 0 0 0 0 0 0 0 0 0 0 0 0 0 0 0 0 0 0 0 3 7 10 5 11 46
0 0 0 0 0 0 0 0 0 0 0 0 0 0 0 0 0 0 0 0 0 0 0 0 0 0 0 0 0 0 0 0 0 0 0 0 1 1 3 4 5 7 4
0 0 0 0 0 0 0 0 0 0 0 0 0 0 0 0 0 0 0 0 0 0 0 0 0 0 0 0 0 0 0 0 0 0 0 0 0 1 0 4 4 4 3
0 0 0 0 0 0 0 0 0 0 0 0 0 0 0 0 0 0 0 0 0 4 7 0 0 0 0 0 0 0 0 0 0 0 0 0 0 2 0 1 2 3 6
0 0 0 0 0 0 0 0 0 0 0 0 0 0 0 0 0 0 0 2 0 2 2 0 0 0 0 0 0 0 0 0 1 0 0 0 0 0 1 1 0 2 4
0 0 0 0 0 0 0 0 0 0 0 0 0 0 0 0 0 0 0 0 11 11 8 0 0 0 0 0 0 0 0 0 0 0 1 0 0 1 1 2 2 4 5
0 0 0 0 0 0 0 0 0 0 0 0 0 0 0 0 0 0 1 3 0 0 7 1 0 0 0 0 0 0 0 0 0 2 1 1 1 2 3 0 1 2 5
0 0 0 0 0 0 0 0 0 0 0 0 0 0 0 0 1 5 3 2 1 2 10 18 5 2 1 0 0 1 1 2 2 4 4 5 6 6 5 4 4 5 5
0 0 0 0 0 0 0 0 0 0 0 0 0 0 1 3 4 1 3 5 5 4 4 8 14 6 3 1 0 0 0 0 0 0 2 2 1 2 3 3 3 5 4
0 0 0 0 0 0 0 0 0 0 0 0 0 0 0 2 3 2 2 2 4 4 4 6 7 6 5 2 0 0 0 0 0 0 0 1 1 1 2 2 3 5 5

GFSGL_con_mlcape_114.txt.gz
CAPE
412 487 516 496 409 265 116 161 335 491 558 535 485 568 774 741 716 787 883 913 846 782 1007 1090 983 880 1261 1071 1123 1057 1184 1125 793 808 845 1071 1258 1547 1156 823 326 101 92
220 358 304 332 370 531 454 223 109 256 344 462 432 457 623 789 759 764 797 990 920 865 928 894 819 848 794 868 828 988 1076 1022 1076 962 966 861 1091 1327 1158 740 104 37 108
15 36 0 16 110 328 458 544 577 686 588 317 245 210 361 529 554 771 1011 1108 1044 977 823 808 744 944 982 998 933 988 1052 1069 1072 1191 1191 1021 958 740 324 149 109 112 198
0 0 0 0 0 39 280 565 791 840 713 469 253 87 0 156 253 512 772 979 957 895 839 816 929 982 1063 1281 1202 1316 1419 1342 1219 1297 1203 1184 938 636 361 375 371 371 307
0 0 0 3 0 34 168 258 411 709 729 682 569 521 357 236 114 139 261 686 874 1034 1024 934 934 972 1013 1046 1118 1030 1201 1078 1152 1095 1151 1056 1014 883 727 362 530 559 698
0 0 0 5 4 1 2 66 172 252 309 422 431 597 943 896 471 619 581 924 1018 969 872 961 1077 1027 1003 916 927 821 807 953 1019 952 867 761 811 665 463 589 594 725 791
0 0 0 0 0 0 1 8 12 16 7 57 72 127 268 252 154 304 553 1004 1145 1189 1201 1206 1075 781 690 760 784 714 852 773 747 959 853 773 525 410 383 290 281 492 688
0 0 0 0 0 0 0 0 0 0 0 0 0 2 6 0 0 0 60 438 618 621 593 595 709 800 703 647 739 723 667 601 586 437 514 562 494 471 422 489 412 315 425
0 0 0 0 0 0 0 0 0 0 0 0 0 0 0 0 0 0 0 46 177 278 330 414 483 563 78 140 582 658 728 775 681 521 480 423 362 285 173 272 504 474 626
0 0 0 0 0 0 0 0 0 0 0 0 0 0 0 0 0 0 0 5 13 62 185 139 0 0 0 0 78 280 455 512 455 513 550 556 353 339 152 154 473 551 626
0 0 0 0 0 0 0 0 0 0 0 0 0 0 0 0 0 0 0 0 0 0 0 0 0 0 0 0 0 0 0 0 0 0 70 210 250 235 227 171 64 124 279
0 0 0 0 0 0 0 0 0 0 0 0 0 0 0 0 0 0 0 0 0 0 0 0 0 0 0 0 0 0 0 0 0 0 0 0 0 0 0 0 62 144 154
0 0 0 0 0 0 0 0 0 0 0 0 0 0 0 0 0 0 0 0 0 0 0 0 0 0 0 0 0 0 0 0 0 0 0 0 0 0 0 0 0 2 21
0 0 0 0 0 0 0 0 0 0 0 0 0 0 0 0 0 0 0 0 0 0 0 0 0 0 0 0 0 0 0 0 0 0 0 5 6 5 9 11 7 4 2
0 0 0 0 0 0 0 0 0 0 0 0 0 0 0 0 0 0 0 0 0 0 0 0 0 0 0 0 0 0 0 0 0 0 0 0 0 1 1 4 4 7 11
0 0 0 0 0 0 0 0 0 0 0 0 0 0 0 0 0 0 0 0 0 0 0 0 0 0 0 0 0 0 0 0 0 0 0 0 0 0 0 2 4 6 15
0 0 0 0 0 0 0 0 0 0 0 0 0 0 0 0 0 0 0 0 0 0 0 0 0 0 0 0 0 0 0 0 0 0 0 0 0 0 0 0 0 1 1
0 0 0 0 0 0 0 0 0 0 0 0 0 0 0 0 0 0 0 0 0 0 0 0 0 0 0 0 0 0 0 0 0 0 0 0 0 0 0 0 0 0 3
0 0 0 0 0 0 0 0 0 0 0 0 0 0 0 0 0 0 0 0 0 0 0 1 7 2 0 0 0 0 0 0 0 0 0 0 0 1 0 0 0 0 0
0 0 0 0 0 0 0 0 0 0 0 0 0 0 0 0 0 0 0 0 0 3 1 0 5 0 0 0 0 0 0 0 0 0 0 0 0 1 0 0 0 0 0
0 0 0 0 0 0 0 0 0 0 0 0 0 0 0 0 0 0 0 0 0 0 2 3 5 5 0 0 0 0 0 0 1 2 2 1 1 1 2 1 1 0 0
0 0 0 0 0 0 0 0 0 0 0 0 0 0 0 0 0 0 2 2 1 1 0 0 0 4 2 2 3 3 2 1 0 1 2 2 1 0 0 2 2 0 0
0 0 0 0 0 0 0 0 0 0 0 0 0 0 0 0 0 0 1 2 0 2 7 8 2 0 5 4 5 5 4 4 3 3 3 1 0 3 1 1 2 0 1
0 0 0 0 0 0 0 0 0 0 0 0 0 0 0 0 0 0 1 0 2 6 4 7 8 0 0 7 13 7 4 4 0 1 2 2 3 3 1 2 4 5 3
0 0 0 0 0 0 0 0 0 0 0 0 0 0 0 0 0 1 2 2 2 1 5 7 7 5 2 4 9 10 7 0 0 0 1 3 4 5 4 3 2 3 3
0 0 0 0 0 0 0 0 0 0 0 0 0 0 0 0 0 1 1 2 2 4 6 6 6 8 7 5 4 2 0 0 0 0 0 2 2 2 2 2 2 2 2

GFSGL_con_mlcape_117.txt.gz
CAPE
528 568 619 548 575 452 476 566 803 1066 1155 1147 1150 947 1195 1511 1576 1451 1450 1588 1382 1434 1568 1733 1824 1631 1895 1947 2043 1902 1843 1728 1036 871 1662 1537 1792 2318 2189 1673 934 224 399
336 515 656 644 542 784 624 397 496 684 857 980 1125 1019 955 958 1228 978 965 1176 1396 1339 1556 1611 1658 1396 1585 1848 1695 1695 1896 2037 1706 1825 1912 1648 2000 1959 1897 1490 1125 580 1056
375 445 484 454 507 768 981 1051 814 938 1005 851 714 743 903 985 1014 1117 1109 1171 1135 1250 1529 1504 1633 1512 1871 1584 1777 1760 1855 2044 2159 1951 1933 1968 2095 1995 1653 1519 1524 1606 852
146 53 99 87 104 106 368 1062 1200 1285 1042 1001 800 672 462 424 777 998 1135 1063 984 999 1136 1214 1018 1145 1199 1393 1432 1452 1410 1161 1516 1769 1782 1484 1845 1944 1601 1434 1171 1238 1307
5 0 0 5 12 87 147 383 1056 1385 1379 1194 1023 876 600 491 444 592 804 841 904 934 1175 1303 1192 1045 934 1014 1290 1269 1481 798 957 1051 980 1198 927 1250 1351 1098 1097 988 934
0 0 0 14 3 0 79 230 461 740 857 998 1099 1353 1555 1175 334 427 541 726 933 1140 1068 1231 1240 1203 1131 824 683 672 1087 1422 1512 1115 1267 1319 1618 1337 719 665 491 305 52
0 0 0 0 16 14 4 19 56 188 371 429 418 496 505 359 136 345 537 1414 1450 1654 1768 1765 1717 1185 1052 1537 1193 582 552 527 714 1242 1286 1526 1336 1242 1303 1161 1076 1195 1048
0 0 0 0 0 1 2 1 2 3 29 72 104 159 237 56 0 0 92 953 1236 1305 1301 1287 1294 1390 1268 763 1233 1433 1486 1451 1239 953 1020 1254 1477 1521 1513 1332 1299 1062 1126
0 0 0 0 0 0 0 0 0 0 0 0 7 13 91 20 0 0 56 223 518 573 695 639 643 1178 0 0 657 1128 1334 1363 1120 676 442 449 446 296 171 447 979 1195 1019
0 0 0 0 0 0 0 0 0 0 0 0 2 5 0 0 0 0 0 0 0 0 80 0 0 0 0 0 0 70 635 959 820 736 810 1018 803 1196 503 337 782 931 818
0 0 0 0 0 0 0 0 0 0 0 0 0 0 1 0 0 0 0 0 0 0 0 0 0 0 0 0 0 0 0 0 0 0 1 78 211 371 515 670 822 706 496
0 0 0 0 0 0 0 0 0 0 0 0 0 0 0 0 0 0 0 0 0 0 0 0 0 0 0 0 0 0 0 0 0 0 0 0 0 0 0 11 110 255 397
0 0 0 0 0 0 0 0 0 0 0 0 0 0 0 0 0 0 0 0 0 0 0 0 0 0 0 0 0 0 0 0 0 0 0 0 0 5 14 20 31 80 223
0 0 0 0 0 0 0 0 0 0 0 0 0 0 0 0 0 0 0 0 0 0 0 0 0 0 0 0 0 0 0 0 0 0 0 0 0 0 0 0 6 15 15
0 0 0 0 0 0 0 0 0 0 0 0 0 0 0 0 0 0 0 0 0 0 0 0 0 0 0 0 0 0 0 0 0 0 0 0 0 0 0 0 0 0 9
0 0 0 0 0 0 0 0 0 0 0 0 0 0 0 0 0 0 0 0 0 0 0 0 0 0 0 0 0 0 0 0 0 0 0 0 0 0 0 0 0 0 0
0 0 0 0 0 0 0 0 0 0 0 0 0 0 0 0 0 0 0 0 0 0 0 0 0 0 0 0 0 0 3 7 2 0 0 0 0 0 0 0 0 0 0
0 0 0 0 0 0 0 0 0 0 0 0 0 0 0 0 0 0 0 0 0 0 0 0 0 0 3 3 2 2 1 0 0 0 0 0 0 0 0 0 0 0 0
0 0 0 0 0 0 0 0 0 0 0 0 0 0 0 0 0 0 0 0 0 0 0 0 0 0 0 5 9 5 2 0 0 1 0 1 1 1 1 0 0 0 0
0 0 0 0 0 0 0 0 0 0 0 0 0 0 0 0 0 0 0 0 0 0 0 0 1 0 3 10 15 16 14 7 5 3 2 2 3 2 2 1 2 2 0
0 0 0 0 0 0 0 0 0 0 0 0 0 0 0 0 0 0 0 0 0 0 0 0 0 0 1 1 4 6 4 5 4 2 6 7 7 2 4 0 0 0 3
0 0 0 0 0 0 0 0 0 0 0 0 0 0 0 0 0 0 0 0 0 0 0 1 1 0 0 0 3 2 3 5 6 6 5 5 5 5 2 1 2 0 0
0 0 0 0 0 0 0 0 0 0 0 0 0 0 0 0 0 0 0 0 0 0 2 6 8 8 2 0 7 9 6 3 4 5 3 4 3 1 1 1 0 1 2
0 0 0 0 0 0 0 0 0 0 0 0 0 0 0 0 0 0 0 0 0 2 1 6 6 7 6 4 2 2 8 13 11 10 10 4 3 5 4 4 3 3 3
0 0 0 0 0 0 0 0 0 0 0 0 0 0 0 0 0 0 0 0 0 1 7 5 6 6 6 7 9 4 3 0 0 0 2 3 4 4 4 3 3 3 3
0 0 0 0 0 0 0 0 0 0 0 0 0 0 0 0 0 0 0 0 0 4 5 4 4 4 4 3 6 3 0 0 1 0 1 3 3 4 3 3 3 3 2

GFSGL_con_mlcape_120.txt.gz
CAPE
949 691 891 792 1005 1281 919 1165 1427 1254 1171 1239 1163 1027 1062 1207 1414 1675 1282 1468 1886 1796 1809 1848 1836 2246 1367 1648 1601 1542 1348 1233 1003 637 748 1294 1951 1613 1835 2048 912 518 448
893 940 684 785 669 765 964 933 1371 1484 1653 1300 1324 1207 1165 1180 1392 1442 1167 763 1347 1285 1379 1558 1637 1229 1764 1562 1319 1558 1349 1533 1390 987 1247 1293 1241 1840 2300 2369 1714 487 936
1006 793 696 696 748 738 831 707 1039 1229 1215 1294 1566 1107 898 1081 1372 1219 1257 1214 1204 1118 1091 1274 1345 1649 1877 1449 1859 1508 1051 1497 1560 1436 1240 1230 1220 1460 1413 1116 1249 1276 385
922 797 868 864 883 856 1205 1028 1104 1047 1071 1365 1598 1123 1307 1331 1495 1348 1351 1265 1147 958 954 1081 1162 1388 1545 1522 1471 1542 1431 1456 984 1128 858 754 660 862 1534 930 571 483 424
369 495 555 522 666 731 793 1222 1469 1271 787 928 1421 1588 1417 1178 1048 1384 1360 1284 1063 935 838 1031 1047 1048 933 986 1044 1208 1523 1176 539 260 245 272 438 1010 744 605 422 107 143
120 126 140 179 203 226 364 503 1026 1464 1442 1547 1499 1421 1547 1022 412 296 752 1377 1237 1301 1229 1243 1299 1220 1069 929 790 755 999 1458 1513 1267 733 584 1181 1049 441 451 759 550 450
4 69 61 140 166 243 196 240 261 534 1247 1540 1562 1607 1526 900 74 168 435 1314 1482 1366 1375 1380 1118 522 906 1143 913 895 686 532 586 1001 1443 1328 1275 1270 1462 1577 1334 1557 1472
0 0 1 2 6 47 147 177 226 274 338 525 662 889 474 13 0 0 97 1488 1561 1518 1446 1387 1480 1461 476 838 1538 1561 1346 1218 1347 1614 1393 1547 1642 1679 1748 1433 1405 1531 1639
1 1 2 2 0 0 3 20 97 169 214 243 253 338 18 0 0 0 145 743 1080 1074 734 245 573 145 0 0 343 1244 1504 1382 1237 868 740 536 458 362 297 585 842 889 976
2 0 0 0 0 0 0 0 13 21 1 129 66 0 0 0 0 0 0 76 35 112 92 15 0 0 0 0 0 8 252 632 88 28 67 568 744 1344 841 1041 1160 904 938
0 0 0 0 0 0 0 0 0 0 14 0 0 0 0 0 0 0 0 0 0 0 0 0 0 0 0 0 0 0 0 0 0 0 0 6 34 107 141 386 524 686 681
0 0 0 0 0 0 0 0 0 0 0 0 0 0 0 0 0 0 0 0 0 0 0 0 0 0 0 0 0 0 0 0 0 0 0 0 1 2 3 10 14 54 187
0 0 0 0 0 0 0 0 0 0 0 0 0 0 0 0 0 0 0 0 0 0 0 0 0 0 0 0 0 0 0 0 0 0 0 0 0 0 0 0 0 0 0
0 0 0 0 0 0 0 0 0 0 0 0 0 0 0 0 0 0 0 0 0 0 0 0 0 0 0 0 0 0 0 0 0 0 0 0 0 0 0 0 0 0 0
0 0 0 0 0 0 0 0 0 0 0 0 0 0 0 0 0 0 0 0 0 0 0 0 0 0 0 0 0 0 0 0 0 0 0 0 0 0 0 0 0 0 0
0 0 0 0 0 0 0 0 0 0 0 0 0 0 0 0 0 0 0 0 0 0 0 0 0 0 0 0 0 0 0 0 0 0 0 0 0 0 0 0 0 0 0
0 0 0 0 0 0 0 0 0 0 0 0 0 0 0 0 0 0 0 0 0 0 0 0 0 0 0 0 0 0 0 0 3 2 2 0 0 0 0 0 0 0 0
0 0 0 0 0 0 0 0 0 0 0 0 0 0 0 0 0 0 0 0 0 0 0 0 0 0 0 0 0 0 0 0 0 0 2 1 1 3 1 1 0 0 0
0 0 0 0 0 0 0 0 0 0 0 0 0 0 0 0 0 0 0 0 0 0 0 0 0 0 0 0 0 1 1 1 1 2 3 2 4 2 7 5 1 1 0
0 0 0 0 0 0 0 0 0 0 0 0 0 0 0 0 0 0 0 0 0 0 0 0 0 0 0 0 0 4 6 6 4 6 5 4 4 2 1 1 1 3 2
0 0 0 0 0 0 0 0 0 0 0 0 0 0 0 0 0 0 0 0 0 0 0 0 0 0 0 0 0 0 3 8 5 4 1 3 3 3 3 3 0 0 6
0 0 0 0 0 0 0 0 0 0 0 0 0 0 0 0 0 0 0 0 0 0 0 0 0 0 0 0 0 1 2 3 5 2 2 4 4 2 2 2 1 0 0
0 0 0 0 0 0 0 0 0 0 0 0 0 0 0 0 0 0 0 0 0 0 0 0 0 0 1 3 2 4 6 7 12 11 9 7 6 6 8 5 5 2 4
0 0 0 0 0 0 0 0 0 0 0 0 0 0 0 0 0 0 0 0 0 0 0 0 0 2 2 8 7 9 7 7 2 3 4 4 4 4 7 5 6 3 3
0 0 0 0 0 0 0 0 0 0 0 0 0 0 0 0 0 0 0 0 0 0 0 0 0 2 4 6 8 2 3 0 0 0 2 8 4 4 4 4 3 3 3
0 0 0 0 0 0 0 0 0 0 0 0 0 1 0 1 2 3 0 0 0 0 0 0 1 0 2 2 8 1 0 0 0 0 1 4 4 4 4 4 4 4 3